[[{"header":{"parameterUnit":"m.s-1","parameterCategory":1,"la1":30.6,"la2":28.766,"lo1":-90.7593,"lo2":-88.6598,"dy":0.0162,"dx":0.0183,"nx":116,"ny":114,"refTime":"2023-10-10T18:00:00:Z","depth":0,"parameterNumber":2,"parameterNumberName":"U-component_of_WINDS"},"data":[0.0,0.0,0.0,0.0,0.0,0.0,0.0,0.0,0.0,0.0,0.0,0.0,0.0,0.0,0.0,0.0,0.0,0.0,0.0,0.0,0.0,0.0,0.0,0.0,0.0,0.0,0.0,0.0,0.0,0.0,0.0,0.0,0.0,0.0,0.0,0.0,0.0,0.0,0.0,0.0,0.0,0.0,0.0,0.0,0.0,0.0,0.0,0.0,0.0,0.0,0.0,0.0,0.0,0.0,0.0,0.0,0.0,0.0,0.0,0.0,0.0,0.0,0.0,0.0,0.0,0.0,0.0,0.0,0.0,0.0,0.0,0.0,0.0,0.0,0.0,0.0,0.0,0.0,0.0,0.0,0.0,0.0,0.0,0.0,0.0,0.0,0.0,0.0,0.0,0.0,0.0,0.0,0.0,0.0,0.0,0.0,0.0,0.0,0.0,0.0,0.0,0.0,0.0,0.0,0.0,0.0,0.0,0.0,0.0,0.0,0.0,0.0,0.0,0.0,0.0,0.0,0.0,0.0,0.0,0.0,0.0,0.0,0.0,0.0,0.0,0.0,0.0,0.0,0.0,0.0,0.0,0.0,0.0,0.0,0.0,0.0,0.0,0.0,0.0,0.0,0.0,0.0,0.0,0.0,0.0,0.0,0.0,0.0,0.0,0.0,0.0,0.0,0.0,0.0,0.0,0.0,0.0,0.0,0.0,0.0,0.0,0.0,0.0,0.0,0.0,0.0,0.0,0.0,0.0,0.0,0.0,0.0,0.0,0.0,0.0,0.0,0.0,0.0,0.0,0.0,0.0,0.0,0.0,0.0,0.0,0.0,0.0,0.0,0.0,0.0,0.0,0.0,0.0,0.0,0.0,0.0,0.0,0.0,0.0,0.0,0.0,0.0,0.0,0.0,0.0,0.0,0.0,0.0,0.0,0.0,0.0,0.0,0.0,0.0,0.0,0.0,0.0,0.0,0.0,0.0,0.0,0.0,0.0,0.0,0.0,0.0,0.0,0.0,0.0,0.0,0.0,0.0,0.0,0.0,0.0,0.0,0.0,0.0,0.0,0.0,0.0,0.0,0.0,0.0,0.0,0.0,0.0,0.0,0.0,0.0,0.0,0.0,0.0,0.0,0.0,0.0,0.0,0.0,0.0,0.0,0.0,0.0,0.0,0.0,0.0,0.0,0.0,0.0,0.0,0.0,0.0,0.0,0.0,0.0,0.0,0.0,0.0,0.0,0.0,0.0,0.0,0.0,0.0,0.0,0.0,0.0,0.0,0.0,0.0,0.0,0.0,0.0,0.0,0.0,0.0,0.0,0.0,0.0,0.0,0.0,0.0,0.0,0.0,0.0,0.0,0.0,0.0,0.0,0.0,0.0,0.0,0.0,0.0,0.0,0.0,0.0,0.0,0.0,0.0,0.0,0.0,0.0,0.0,0.0,0.0,0.0,0.0,0.0,0.0,0.0,0.0,0.0,0.0,0.0,0.0,0.0,0.0,0.0,0.0,0.0,0.0,0.0,0.0,0.0,0.0,0.0,0.0,0.0,0.0,0.0,0.0,0.0,0.0,0.0,0.0,0.0,0.0,0.0,0.0,0.0,0.0,0.0,0.0,0.0,0.0,0.0,0.0,0.0,0.0,0.0,0.0,0.0,0.0,0.0,0.0,0.0,0.0,0.0,0.0,0.0,0.0,0.0,0.0,0.0,0.0,0.0,0.0,0.0,0.0,0.0,0.0,0.0,0.0,0.0,0.0,0.0,0.0,0.0,0.0,0.0,0.0,0.0,0.0,0.0,0.0,0.0,0.0,0.0,0.0,0.0,0.0,0.0,0.0,0.0,0.0,0.0,0.0,0.0,0.0,0.0,0.0,0.0,0.0,0.0,0.0,0.0,0.0,0.0,0.0,0.0,0.0,0.0,0.0,0.0,0.0,0.0,0.0,0.0,0.0,0.0,0.0,0.0,0.0,0.0,0.0,0.0,0.0,0.0,0.0,0.0,0.0,0.0,0.0,0.0,0.0,0.0,0.0,0.0,0.0,0.0,0.0,0.0,0.0,0.0,0.0,0.0,0.0,0.0,0.0,0.0,0.0,0.0,0.0,0.0,0.0,0.0,0.0,0.0,0.0,0.0,0.0,0.0,0.0,0.0,0.0,0.0,0.0,0.0,0.0,0.0,0.0,0.0,0.0,0.0,0.0,0.0,0.0,0.0,0.0,0.0,0.0,0.0,0.0,0.0,0.0,0.0,0.0,0.0,0.0,0.0,0.0,0.0,0.0,0.0,0.0,0.0,0.0,0.0,0.0,0.0,0.0,0.0,0.0,0.0,0.0,0.0,0.0,0.0,0.0,0.0,0.0,0.0,0.0,0.0,0.0,0.0,0.0,0.0,0.0,0.0,0.0,0.0,0.0,0.0,0.0,0.0,0.0,0.0,0.0,0.0,0.0,0.0,0.0,0.0,0.0,0.0,0.0,0.0,0.0,0.0,0.0,0.0,0.0,0.0,0.0,0.0,0.0,0.0,0.0,0.0,0.0,0.0,0.0,0.0,0.0,0.0,0.0,0.0,0.0,0.0,0.0,0.0,0.0,0.0,0.0,0.0,0.0,0.0,0.0,0.0,0.0,0.0,0.0,0.0,0.0,0.0,0.0,0.0,0.0,0.0,0.0,0.0,0.0,0.0,0.0,0.0,0.0,0.0,0.0,0.0,0.0,0.0,0.0,0.0,0.0,0.0,0.0,0.0,0.0,0.0,0.0,0.0,0.0,0.0,0.0,0.0,0.0,0.0,0.0,0.0,0.0,0.0,0.0,0.0,0.0,0.0,0.0,0.0,0.0,0.0,0.0,0.0,0.0,0.0,0.0,0.0,0.0,0.0,0.0,0.0,0.0,0.0,0.0,0.0,0.0,0.0,0.0,0.0,0.0,0.0,0.0,0.0,0.0,0.0,0.0,0.0,0.0,0.0,0.0,0.0,0.0,0.0,0.0,0.0,0.0,0.0,0.0,0.0,0.0,0.0,0.0,0.0,0.0,0.0,0.0,0.0,0.0,0.0,0.0,0.0,0.0,0.0,0.0,0.0,0.0,0.0,0.0,0.0,0.0,0.0,0.0,0.0,0.0,0.0,0.0,0.0,0.0,0.0,0.0,0.0,0.0,0.0,0.0,0.0,0.0,0.0,0.0,0.0,0.0,0.0,0.0,0.0,0.0,0.0,0.0,0.0,0.0,0.0,0.0,0.0,0.0,0.0,0.0,0.0,0.0,0.0,0.0,0.0,0.0,0.0,0.0,0.0,0.0,0.0,0.0,0.0,0.0,0.0,0.0,0.0,0.0,0.0,0.0,0.0,0.0,0.0,0.0,0.0,0.0,0.0,0.0,0.0,0.0,0.0,0.0,0.0,0.0,0.0,0.0,0.0,0.0,0.0,0.0,0.0,0.0,0.0,0.0,0.0,0.0,0.0,0.0,0.0,0.0,0.0,0.0,0.0,0.0,0.0,0.0,0.0,0.0,0.0,0.0,0.0,0.0,0.0,0.0,0.0,0.0,0.0,0.0,0.0,0.0,0.0,0.0,0.0,0.0,0.0,0.0,0.0,0.0,0.0,0.0,0.0,0.0,0.0,0.0,0.0,0.0,0.0,0.0,0.0,0.0,0.0,0.0,0.0,0.0,0.0,0.0,0.0,0.0,0.0,0.0,0.0,0.0,0.0,0.0,0.0,0.0,0.0,0.0,0.0,0.0,0.0,0.0,0.0,0.0,0.0,0.0,0.0,0.0,0.0,0.0,0.0,0.0,0.0,0.0,0.0,0.0,0.0,0.0,0.0,0.0,0.0,0.0,0.0,0.0,0.0,0.0,0.0,0.0,0.0,0.0,0.0,0.0,0.0,0.0,0.0,0.0,0.0,0.0,0.0,0.0,0.0,0.0,0.0,0.0,0.0,0.0,0.0,0.0,0.0,0.0,0.0,0.0,0.0,0.0,0.0,0.0,0.0,0.0,0.0,0.0,0.0,0.0,0.0,0.0,0.0,0.0,0.0,0.0,0.0,0.0,0.0,0.0,0.0,0.0,0.0,0.0,0.0,0.0,0.0,0.0,0.0,0.0,0.0,0.0,0.0,0.0,0.0,0.0,0.0,0.0,0.0,0.0,0.0,0.0,0.0,0.0,0.0,0.0,0.0,0.0,0.0,0.0,0.0,0.0,0.0,0.0,0.0,0.0,0.0,0.0,0.0,0.0,0.0,0.0,0.0,0.0,0.0,0.0,0.0,0.0,0.0,0.0,0.0,0.0,0.0,0.0,0.0,0.0,0.0,0.0,0.0,0.0,0.0,0.0,0.0,0.0,0.0,0.0,0.0,0.0,0.0,0.0,0.0,0.0,0.0,0.0,0.0,0.0,0.0,0.0,0.0,0.0,0.0,0.0,0.0,0.0,0.0,0.0,0.0,0.0,0.0,0.0,0.0,0.0,0.0,0.0,0.0,0.0,0.0,0.0,0.0,0.0,0.0,0.0,0.0,0.0,0.0,0.0,0.0,0.0,0.0,0.0,0.0,0.0,0.0,0.0,0.0,0.0,0.0,0.0,0.0,0.0,0.0,0.0,0.0,0.0,0.0,0.0,0.0,0.0,0.0,0.0,0.0,0.0,0.0,0.0,0.0,0.0,0.0,0.0,0.0,0.0,0.0,0.0,0.0,0.0,0.0,0.0,0.0,0.0,0.0,0.0,0.0,0.0,0.0,0.0,0.0,0.0,0.0,0.0,0.0,0.0,0.0,0.0,0.0,0.0,0.0,0.0,0.0,0.0,0.0,0.0,0.0,0.0,0.0,0.0,0.0,0.0,0.0,0.0,0.0,0.0,0.0,0.0,0.0,0.0,0.0,0.0,0.0,0.0,0.0,0.0,0.0,0.0,0.0,0.0,0.0,0.0,0.0,0.0,0.0,0.0,0.0,0.0,0.0,0.0,0.0,0.0,0.0,0.0,0.0,0.0,0.0,0.0,0.0,0.0,0.0,0.0,0.0,0.0,0.0,0.0,0.0,0.0,0.0,0.0,0.0,0.0,0.0,0.0,0.0,0.0,0.0,0.0,0.0,0.0,0.0,0.0,0.0,0.0,0.0,0.0,0.0,0.0,0.0,0.0,0.0,0.0,0.0,0.0,0.0,0.0,0.0,0.0,0.0,0.0,0.0,0.0,0.0,0.0,0.0,0.0,0.0,0.0,0.0,0.0,0.0,0.0,0.0,0.0,0.0,0.0,0.0,0.0,0.0,0.0,0.0,0.0,0.0,0.0,0.0,0.0,0.0,0.0,0.0,0.0,0.0,0.0,0.0,0.0,0.0,0.0,0.0,0.0,0.0,0.0,0.0,0.0,0.0,0.0,0.0,0.0,0.0,0.0,0.0,0.0,0.0,0.0,0.0,0.0,0.0,0.0,0.0,0.0,0.0,0.0,0.0,0.0,0.0,0.0,0.0,0.0,0.0,0.0,0.0,0.0,0.0,0.0,0.0,0.0,0.0,0.0,0.0,0.0,0.0,0.0,0.0,0.0,0.0,0.0,0.0,0.0,0.0,0.0,0.0,0.0,0.0,0.0,0.0,0.0,0.0,0.0,0.0,0.0,0.0,0.0,0.0,0.0,0.0,0.0,0.0,0.0,0.0,0.0,0.0,0.0,0.0,0.0,0.0,0.0,0.0,0.0,0.0,0.0,0.0,0.0,0.0,0.0,0.0,0.0,0.0,0.0,0.0,0.0,0.0,0.0,0.0,0.0,0.0,0.0,0.0,0.0,0.0,0.0,0.0,0.0,0.0,0.0,0.0,0.0,0.0,0.0,0.0,0.0,0.0,0.0,0.0,0.0,0.0,0.0,0.0,0.0,0.0,0.0,0.0,0.0,0.0,0.0,0.0,0.0,0.0,0.0,0.0,0.0,0.0,0.0,0.0,0.0,0.0,0.0,0.0,0.0,0.0,0.0,0.0,0.0,0.0,0.0,0.0,0.0,0.0,0.0,0.0,0.0,0.0,0.0,0.0,0.0,0.0,0.0,0.0,0.0,0.0,0.0,0.0,0.0,0.0,0.0,0.0,0.0,0.0,0.0,0.0,0.0,0.0,0.0,0.0,4.2763,0.0,0.0,0.0,0.0,0.0,0.0,0.0,0.0,0.0,0.0,0.0,0.0,0.0,0.0,0.0,0.0,0.0,0.0,0.0,0.0,0.0,0.0,0.0,0.0,0.0,0.0,0.0,0.0,0.0,0.0,0.0,0.0,0.0,0.0,0.0,0.0,0.0,0.0,0.0,4.5024,4.5321,4.5468,4.5247,4.5098,4.4874,0.0,0.0,0.0,0.0,0.0,0.0,0.0,0.0,0.0,0.0,0.0,0.0,0.0,0.0,0.0,0.0,0.0,0.0,0.0,0.0,0.0,0.0,0.0,0.0,0.0,0.0,0.0,0.0,0.0,0.0,0.0,0.0,0.0,0.0,0.0,0.0,0.0,0.0,0.0,0.0,0.0,0.0,0.0,0.0,0.0,0.0,0.0,0.0,0.0,0.0,0.0,0.0,0.0,0.0,0.0,0.0,0.0,0.0,0.0,0.0,0.0,0.0,0.0,0.0,0.0,0.0,0.0,0.0,0.0,0.0,0.0,4.2629,0.0,0.0,0.0,0.0,0.0,0.0,0.0,0.0,0.0,0.0,0.0,0.0,0.0,0.0,0.0,0.0,0.0,0.0,0.0,0.0,0.0,0.0,0.0,4.4572,4.4572,4.4572,4.4572,4.4572,0.0,0.0,0.0,0.0,0.0,0.0,0.0,4.4648,4.4723,4.4723,4.5173,4.5614,4.5977,4.5905,4.5687,4.5395,4.5321,0.0,0.0,0.0,0.0,0.0,0.0,0.0,0.0,0.0,0.0,0.0,0.0,0.0,0.0,0.0,0.0,0.0,0.0,0.0,0.0,0.0,0.0,0.0,0.0,0.0,0.0,0.0,0.0,0.0,0.0,0.0,0.0,0.0,0.0,0.0,0.0,0.0,0.0,0.0,0.0,0.0,0.0,0.0,0.0,0.0,0.0,0.0,0.0,0.0,0.0,0.0,0.0,0.0,0.0,0.0,0.0,0.0,0.0,0.0,0.0,0.0,0.0,0.0,4.2333,4.2005,4.1535,4.1535,4.1198,4.0773,4.184,4.2222,4.2222,4.2222,0.0,0.0,0.0,0.0,0.0,0.0,0.0,0.0,0.0,0.0,0.0,0.0,0.0,0.0,0.0,0.0,0.0,0.0,0.0,0.0,0.0,4.4572,4.4572,4.4572,4.4572,4.4572,4.4572,0.0,0.0,0.0,0.0,0.0,4.4572,4.4949,4.5098,4.5098,4.5801,4.6372,4.6754,4.6372,4.623,4.6159,4.5832,4.5687,4.5687,0.0,0.0,0.0,0.0,0.0,0.0,0.0,0.0,0.0,0.0,0.0,0.0,0.0,0.0,0.0,0.0,0.0,0.0,0.0,0.0,0.0,0.0,0.0,0.0,0.0,0.0,0.0,0.0,0.0,0.0,0.0,0.0,0.0,0.0,0.0,0.0,0.0,0.0,0.0,0.0,0.0,4.4541,4.4449,0.0,0.0,0.0,0.0,0.0,0.0,0.0,0.0,0.0,0.0,0.0,0.0,0.0,4.184,4.184,4.1283,4.0944,4.0944,4.0944,4.0944,4.0859,4.0859,4.0773,4.0688,4.0859,0.0,4.0944,4.0944,0.0,0.0,0.0,0.0,0.0,0.0,0.0,0.0,0.0,0.0,0.0,0.0,0.0,0.0,0.0,0.0,0.0,0.0,0.0,0.0,0.0,4.4799,4.4949,4.4949,4.5173,4.5173,4.4949,4.4949,0.0,0.0,0.0,4.4572,4.4572,4.5024,4.5363,4.5801,4.6159,4.6512,4.6892,4.6722,4.6652,4.6652,4.6474,4.6301,4.6088,4.6088,0.0,0.0,0.0,0.0,0.0,0.0,0.0,0.0,0.0,0.0,0.0,0.0,0.0,0.0,0.0,0.0,0.0,0.0,0.0,0.0,0.0,0.0,0.0,0.0,0.0,0.0,0.0,0.0,0.0,0.0,0.0,0.0,0.0,0.0,0.0,0.0,0.0,0.0,0.0,4.4572,4.4449,4.4048,4.3187,4.2448,0.0,0.0,0.0,0.0,0.0,0.0,0.0,0.0,0.0,4.2087,4.1423,4.1114,4.1114,4.0859,4.0688,4.0688,4.0688,4.0688,4.0688,4.0688,4.0688,4.0688,4.0688,4.0688,4.0688,4.0688,4.0688,4.0688,0.0,0.0,0.0,0.0,4.0688,4.0688,0.0,0.0,0.0,0.0,0.0,0.0,0.0,0.0,0.0,0.0,0.0,0.0,4.4723,4.5098,4.5321,4.5321,4.5614,4.5614,4.5247,4.5173,4.5024,4.4648,4.4572,4.4648,4.4723,4.5247,4.5801,4.6442,4.6442,4.6582,4.6892,4.6892,4.6892,4.6892,4.6892,4.6722,4.6442,4.6442,4.6372,4.623,0.0,0.0,0.0,0.0,0.0,0.0,0.0,0.0,0.0,0.0,0.0,0.0,0.0,0.0,0.0,0.0,0.0,0.0,0.0,0.0,0.0,0.0,0.0,0.0,0.0,0.0,0.0,0.0,0.0,0.0,0.0,0.0,0.0,0.0,0.0,0.0,0.0,4.4572,4.4326,4.3648,4.3156,4.2529,0.0,0.0,0.0,0.0,0.0,0.0,4.214,4.1673,4.1451,4.1451,4.0944,4.0688,4.0688,4.0688,4.0688,4.0688,4.0688,4.0688,4.0688,4.0688,4.0688,4.0688,4.0688,4.0688,4.0688,4.0688,4.0688,4.0688,4.0688,4.0688,4.0688,4.0688,4.0688,4.0688,0.0,0.0,0.0,0.0,0.0,0.0,0.0,0.0,0.0,0.0,0.0,4.5173,4.5173,4.5541,4.576,4.576,4.576,4.5614,4.5247,4.5173,4.5024,4.4648,4.4572,4.4799,4.5173,4.5873,4.6442,4.6892,4.6892,4.6892,4.6892,4.6892,4.6892,4.6892,4.6892,4.6892,4.6892,4.6892,4.6652,4.6301,4.6301,0.0,0.0,0.0,0.0,0.0,0.0,0.0,0.0,0.0,0.0,0.0,0.0,0.0,0.0,0.0,0.0,0.0,0.0,0.0,0.0,0.0,0.0,0.0,0.0,0.0,0.0,0.0,0.0,0.0,0.0,0.0,0.0,0.0,0.0,0.0,0.0,0.0,0.0,4.3648,4.3525,0.0,0.0,0.0,0.0,4.0747,4.0288,4.0238,4.0745,4.0773,4.0773,4.0773,4.0688,4.0688,4.0688,4.0688,4.0688,4.0688,4.0688,4.0688,4.0688,4.0688,4.0688,4.0688,4.0688,4.0688,4.0688,4.0688,4.0688,4.0688,4.0688,4.0688,4.0688,4.0688,4.0688,4.0688,0.0,0.0,0.0,0.0,0.0,0.0,0.0,0.0,4.4572,4.4572,4.4949,4.5173,4.5173,4.5728,4.6088,4.6088,4.6372,4.6333,4.5945,4.5687,4.5395,4.5024,4.4949,4.5321,4.5873,4.6159,4.6512,4.6892,4.6892,4.6892,4.6892,4.6892,4.6892,4.6892,4.6892,4.6892,4.6892,4.6892,4.6823,4.6652,4.6442,4.6159,0.0,0.0,0.0,0.0,0.0,0.0,0.0,0.0,0.0,0.0,0.0,0.0,0.0,0.0,0.0,0.0,0.0,0.0,0.0,0.0,0.0,0.0,0.0,0.0,0.0,0.0,0.0,0.0,0.0,0.0,0.0,0.0,0.0,0.0,0.0,0.0,0.0,4.3092,4.2955,0.0,4.108,4.1174,4.1105,4.0723,4.0879,4.0971,4.0688,4.0688,4.0688,4.0688,4.0688,4.0688,4.0688,4.0688,4.0688,4.0688,4.0688,4.0688,4.0688,4.0688,4.0688,4.0688,4.0688,4.0688,4.0688,4.0688,4.0688,4.0688,4.0688,4.0688,4.0688,4.0688,4.0688,4.0688,0.0,0.0,0.0,0.0,0.0,0.0,0.0,0.0,4.4648,4.4799,4.5173,4.5468,4.5583,4.6159,4.6512,4.6512,4.6754,4.6722,4.6372,4.5977,4.5614,4.5247,4.5321,4.5656,4.6301,4.6442,4.6652,4.6892,4.6892,4.6892,4.6892,4.6892,4.6892,4.6892,4.6892,4.6892,4.6892,4.6892,4.6892,4.6892,4.6582,4.6442,4.6166,0.0,0.0,0.0,0.0,0.0,0.0,0.0,0.0,0.0,0.0,0.0,0.0,0.0,0.0,0.0,0.0,0.0,0.0,0.0,0.0,0.0,0.0,0.0,0.0,0.0,0.0,0.0,0.0,0.0,0.0,0.0,0.0,0.0,0.0,0.0,4.3791,4.2402,4.2443,4.206,4.0783,4.123,4.1366,4.0739,4.1139,4.1198,4.0688,4.0688,4.0688,4.0688,4.0688,4.0688,4.0688,4.0688,4.0688,4.0688,4.0688,4.0688,4.0688,4.0688,4.0688,4.0688,4.0688,4.0688,4.0688,4.0688,4.0688,4.0688,4.0688,4.0688,4.0688,4.0688,4.0688,4.0688,0.0,0.0,0.0,0.0,0.0,0.0,0.0,4.4572,4.4723,4.5173,4.5541,4.5905,4.6301,4.6652,4.6892,4.6892,4.6892,4.6722,4.6372,4.5977,4.5614,4.5247,4.5614,4.5945,4.6301,4.6722,4.6892,4.6892,4.6892,4.6892,4.6892,4.6892,4.6892,4.6892,4.6892,4.6892,4.6892,4.6892,4.6892,4.6892,4.6892,4.6652,4.6301,0.0,0.0,0.0,0.0,0.0,0.0,0.0,0.0,0.0,0.0,0.0,0.0,0.0,0.0,0.0,0.0,0.0,0.0,0.0,0.0,0.0,0.0,0.0,0.0,0.0,0.0,0.0,0.0,0.0,0.0,0.0,0.0,0.0,4.3536,4.3536,4.306,4.1774,4.2166,4.207,4.0838,4.1245,4.1367,4.0773,4.0688,4.0688,4.0688,4.0688,4.0688,4.0688,4.0688,4.0688,4.0688,4.0688,4.0688,4.0688,4.0688,4.0688,4.0688,4.0688,4.0688,4.0688,4.0688,4.0688,4.0688,4.0688,4.0688,4.0688,4.0688,4.0688,4.0688,4.0688,4.0688,4.0688,0.0,0.0,0.0,0.0,0.0,0.0,0.0,4.4572,4.4723,4.5173,4.5541,4.5905,4.6301,4.6652,4.6892,4.6892,4.6892,4.6722,4.6372,4.5977,4.576,4.5614,4.5945,4.6372,4.6722,4.6823,4.6892,4.6892,4.6892,4.6892,4.6892,4.6892,4.6892,4.6892,4.6892,4.6892,4.6892,4.6892,4.6892,4.6892,4.6892,4.6823,4.6722,0.0,0.0,0.0,0.0,0.0,0.0,0.0,0.0,0.0,0.0,0.0,0.0,0.0,0.0,0.0,0.0,0.0,0.0,0.0,0.0,0.0,0.0,0.0,0.0,0.0,0.0,0.0,0.0,0.0,0.0,0.0,0.0,4.2871,4.2871,4.2871,4.257,4.1773,4.1835,4.1616,4.0802,4.0859,4.0859,4.0688,4.0688,4.0688,4.0688,4.0688,4.0688,4.0688,4.0688,4.0688,4.0688,4.0688,4.0688,4.0688,4.0688,4.0688,4.0688,4.0688,4.0688,4.0688,4.0688,4.0688,4.0688,4.0688,4.0688,4.0688,4.0688,4.0688,4.0688,4.0688,4.0688,4.0688,0.0,0.0,0.0,0.0,0.0,0.0,0.0,4.4723,4.5098,4.5656,4.6088,4.6512,4.686,4.7066,4.7167,4.6961,4.6754,4.6512,4.6301,4.5977,4.5832,4.6017,4.623,4.6512,4.6892,4.6892,4.6892,4.6892,4.6892,4.6892,4.6892,4.6892,4.6892,4.6892,4.6892,4.6892,4.6892,4.6892,4.6892,4.6892,4.6892,4.6892,4.6892,4.6652,4.6442,4.6301,4.6088,4.5905,4.576,4.5541,0.0,0.0,0.0,0.0,0.0,0.0,0.0,0.0,0.0,0.0,0.0,0.0,0.0,0.0,0.0,0.0,0.0,0.0,0.0,0.0,0.0,0.0,0.0,0.0,4.2496,4.217,4.184,4.2087,4.2005,4.1367,4.1283,4.1114,4.0688,4.0688,4.0688,4.0688,4.0688,4.0688,4.0688,4.0688,4.0688,4.0688,4.0688,4.0688,4.0688,4.0688,4.0688,4.0688,4.0688,4.0688,4.0688,4.0688,4.0688,4.0688,4.0688,4.0688,4.0688,4.0688,4.0688,0.0,0.0,0.0,0.0,0.0,4.0688,4.0688,0.0,0.0,0.0,0.0,0.0,0.0,0.0,4.4949,4.551,4.6378,4.6828,4.727,4.777,4.7704,4.7504,4.703,4.6582,4.6301,4.623,4.6017,4.5977,4.6301,4.6372,4.6512,4.6892,4.6892,4.6892,4.6892,4.6892,4.6892,4.6892,4.6892,4.6892,4.6892,4.6892,4.6892,4.6892,4.6892,4.6892,4.6892,4.6892,4.6892,4.6892,4.6892,4.6652,4.6372,4.6372,4.6159,4.5832,4.5832,0.0,0.0,0.0,0.0,0.0,0.0,0.0,0.0,0.0,0.0,0.0,0.0,0.0,0.0,0.0,0.0,0.0,0.0,0.0,0.0,0.0,0.0,0.0,0.0,4.1619,4.1367,4.0773,4.1198,4.1367,4.0773,4.0688,4.0688,4.0688,4.0688,4.0688,4.0688,4.0688,4.0688,4.0688,0.0,0.0,0.0,0.0,4.0688,4.0688,4.0688,4.0688,4.0688,4.0688,4.0688,4.0688,4.0688,4.0688,4.0688,4.0688,4.0688,4.0688,4.0688,4.0688,4.0688,4.0688,4.0688,4.0688,4.0688,4.0688,4.0688,0.0,0.0,0.0,0.0,0.0,0.0,0.0,4.4949,4.551,4.6378,4.6828,4.7372,4.8161,4.7934,4.7638,4.7571,4.6791,4.6159,4.5905,4.6088,4.623,4.6301,4.6582,4.6823,4.6892,4.6892,4.6892,4.6892,4.6892,4.6892,4.6892,4.6892,4.6892,4.6892,4.6892,4.6892,4.6892,4.6892,4.6892,4.6892,4.6892,4.6892,4.6892,4.6892,4.6892,4.6791,4.6791,4.6512,4.6159,4.5905,4.5614,4.5247,4.4874,4.4723,0.0,0.0,0.0,0.0,0.0,0.0,0.0,0.0,0.0,0.0,0.0,0.0,0.0,0.0,0.0,0.0,0.0,0.0,0.0,4.1619,4.1283,4.0859,4.0688,4.0773,4.0859,4.0688,4.0688,4.0688,4.0688,4.0688,4.0688,4.0688,4.0688,4.0688,4.0688,4.0688,4.0688,4.0688,4.0688,4.0688,4.0688,4.0688,4.0688,4.0688,0.0,0.0,4.0688,4.0688,4.0688,4.0688,4.0688,4.0688,4.0688,4.0688,4.0688,4.0688,4.0688,4.0688,4.0688,4.0688,4.0688,4.0688,0.0,0.0,0.0,0.0,0.0,0.0,0.0,4.5247,4.5728,4.6378,4.6828,4.7304,4.8,4.7671,4.727,4.6997,4.6442,4.5977,4.5832,4.6088,4.6372,4.6582,4.6791,4.6892,4.6892,4.6892,4.6892,4.6892,4.6892,4.6892,4.6892,4.6892,4.6892,4.6892,4.6892,4.6892,4.6892,4.6892,4.6892,4.6892,4.6892,4.6892,4.6892,4.6892,4.6823,4.6582,4.6582,4.6372,4.6017,4.5832,4.5687,4.5468,4.5024,4.4874,4.4874,0.0,0.0,0.0,0.0,0.0,0.0,0.0,0.0,0.0,0.0,0.0,0.0,0.0,0.0,4.1283,0.0,0.0,4.0773,4.1114,4.0944,4.0688,4.0688,4.0688,4.0688,4.0688,4.0688,4.0688,4.0688,4.0688,4.0688,4.0688,4.0688,4.0688,4.0688,4.0688,4.0688,4.0688,4.0688,4.0688,4.0688,4.0688,4.0688,4.0688,4.0688,4.0688,4.0716,4.1025,4.1165,4.1165,4.1502,4.1643,4.1643,4.1643,4.1643,4.1615,4.1278,4.0969,4.0688,4.0688,4.0688,4.0688,0.0,0.0,0.0,0.0,0.0,0.0,0.0,4.5687,4.6017,4.6518,4.6896,4.7237,4.7671,4.7337,4.6828,4.623,4.6048,4.5905,4.5832,4.6159,4.6582,4.6892,4.6892,4.6892,4.6892,4.6892,4.6892,4.6892,4.6892,4.6892,4.6892,4.6892,4.6892,4.6892,4.6892,4.6892,4.6892,4.6892,4.6892,4.6892,4.6892,4.6892,4.6791,4.6791,4.6652,4.6442,4.6372,4.6088,4.576,4.5687,4.5614,4.5541,4.5173,4.5098,4.5024,4.4572,4.4419,0.0,0.0,0.0,0.0,0.0,0.0,0.0,0.0,0.0,4.1535,4.1535,4.1114,4.0688,4.0688,4.0688,4.0688,4.0688,4.0688,4.0688,4.0688,4.0688,4.0688,4.0688,4.0688,4.0688,4.0688,4.0688,4.0688,4.0688,4.0688,4.0688,4.0688,4.08,4.0884,4.0884,4.0997,4.1053,4.1053,4.1053,4.1053,4.1053,4.1053,4.1053,4.1081,4.1587,4.1783,4.184,4.2345,4.257,4.257,4.257,4.257,4.2542,4.2008,4.1502,4.1025,4.08,4.0688,4.0688,0.0,0.0,0.0,0.0,0.0,0.0,0.0,0.0,4.612,4.6896,4.7033,4.7304,4.7836,4.7439,4.6759,4.5905,4.6088,4.6088,4.5832,4.6474,4.6892,4.6892,4.6892,4.6892,4.6892,4.6892,4.6892,4.6892,4.6892,4.6892,4.6892,4.6892,4.6892,4.6892,4.6892,4.6892,4.6892,4.6892,4.6892,4.6892,4.6892,4.6652,4.6372,4.6372,4.6582,4.6823,4.6442,4.6088,4.576,4.5395,4.5024,4.4723,4.4648,4.4648,4.4572,4.3879,4.3723,4.3457,4.2252,4.1451,4.1198,4.1702,4.1367,4.1114,0.0,0.0,4.0773,4.0773,4.0773,4.0688,4.0688,4.0688,4.0688,4.0688,4.0688,4.0688,4.0688,4.0688,4.0688,4.0688,4.0688,4.0688,4.0688,4.0688,4.0688,4.0688,4.0688,4.0688,4.0688,4.1221,4.1502,4.1502,4.2064,4.2374,4.2374,4.2374,4.2374,4.2374,4.2374,4.2374,4.2374,4.243,4.2486,4.2486,4.2542,4.257,4.257,4.257,4.257,4.257,4.2514,4.243,4.2233,4.1109,4.0688,4.0688,0.0,0.0,0.0,0.0,0.0,0.0,0.0,0.0,0.0,4.7033,4.7304,4.7572,4.8032,4.7605,4.6997,4.6159,4.6442,4.6372,4.5832,4.6474,4.6892,4.6892,4.6892,4.6892,4.6892,4.6892,4.6892,4.6892,4.6892,4.6892,4.6892,4.6892,4.6892,4.6892,4.6892,4.6892,4.6892,4.6892,4.6892,4.6892,4.6892,4.6652,4.6301,4.6301,4.6301,4.6191,4.5801,4.5468,0.0,4.4874,4.4723,4.4572,4.4572,4.4572,4.4496,4.3801,4.3615,4.3299,4.2005,4.1198,4.0773,0.0,4.1141,4.1224,4.1114,4.1141,4.1137,4.0772,4.0688,4.0688,4.0688,4.0688,4.0688,0.0,4.0688,4.0688,4.0688,4.0688,4.0688,4.0688,4.0688,4.0688,4.0688,4.0688,4.0688,4.0688,4.1025,4.1221,4.1221,4.184,4.2177,4.2177,4.243,4.257,4.257,4.257,4.257,4.257,4.257,4.257,4.2598,4.2935,4.3301,4.3638,4.3638,4.3638,4.3638,4.3638,4.3638,4.361,4.3245,4.3104,4.302,4.2121,4.1559,4.1221,0.0,0.0,0.0,0.0,0.0,0.0,0.0,0.0,0.0,0.0,4.7539,4.7671,4.7901,4.7572,4.7101,4.6652,4.6722,4.6582,4.612,4.6545,4.6791,4.6892,4.6892,4.6892,4.6892,4.6892,4.6892,4.6892,4.6892,4.6892,4.6892,4.6892,4.6892,4.6892,4.6892,4.6892,4.6892,4.6892,4.6892,4.6892,4.6892,4.6582,4.6159,4.6159,4.5873,4.5468,4.5247,4.5024,4.4723,4.4648,4.4572,4.4572,4.4419,4.4343,4.4189,4.3299,4.2981,4.2578,4.1673,4.1029,0.0,4.0912,4.1278,4.1502,4.1053,4.1306,4.1446,4.0828,4.0688,4.0688,4.0688,4.0688,4.0688,4.0688,4.0688,4.0688,4.0688,4.0688,4.0688,4.0688,4.0856,4.094,4.094,4.094,4.094,4.094,4.1531,4.1896,4.1896,4.2486,4.2823,4.2823,4.2992,4.3076,4.3076,4.3076,4.3076,4.3076,4.3076,4.3076,4.3104,4.3554,4.4003,4.4425,4.4425,4.4425,4.4425,4.4425,4.4425,4.4369,4.3919,4.375,4.3694,4.3245,4.257,4.1896,0.0,0.0,0.0,0.0,0.0,0.0,0.0,0.0,0.0,0.0,0.0,0.0,0.0,4.7204,4.7104,4.7337,4.6828,4.662,4.6892,4.6512,4.6512,4.6892,4.6892,4.6892,4.6892,4.6892,4.6892,4.6892,4.6892,4.6892,4.6892,4.6892,4.6892,4.6892,4.6892,4.6892,4.6892,4.6892,4.6892,4.6892,4.6892,4.6474,4.5832,4.5832,4.5321,4.4648,4.5098,4.5173,4.5098,4.4723,4.4572,4.4496,4.3879,4.3615,4.3379,4.2087,4.1283,4.0773,4.0773,4.0688,4.0828,4.1446,4.1615,4.1615,4.1587,4.1615,4.1446,4.0828,4.0688,4.0688,4.0688,4.0688,4.0688,4.0688,4.0688,4.0688,4.0688,4.0688,4.0688,4.0688,4.1221,4.1587,0.0,4.1587,4.1587,4.1587,4.2177,4.2542,4.2542,4.3132,4.3469,4.3469,4.4059,4.4369,4.4369,4.4369,4.4369,4.4369,4.4369,4.4369,4.4369,4.4369,4.4397,4.4425,4.4425,4.4425,4.4425,4.4425,4.4425,4.4425,4.4397,4.4369,4.4369,4.4369,4.3582,4.2542,0.0,0.0,0.0,0.0,0.0,0.0,0.0,0.0,0.0,0.0,0.0,0.0,0.0,0.0,0.0,0.0,4.7836,4.7505,4.6689,4.7237,4.7372,4.7066,4.727,4.7437,4.7437,4.7098,4.6892,4.6892,4.6892,4.6892,4.6892,4.6892,4.6892,4.6892,4.6892,4.6892,4.6892,4.6892,4.6892,4.6892,4.6892,4.6474,4.576,4.576,4.5603,4.5249,0.0,4.517,4.4799,4.4648,4.4572,4.4572,4.4343,4.3957,4.3379,4.2087,4.1198,4.0688,4.0688,4.0688,4.0828,4.1474,4.1615,4.1615,4.1615,4.1615,4.1446,4.0828,4.0688,4.0688,4.0688,4.0688,4.0688,4.0688,4.0688,4.0688,4.0688,4.0688,4.0856,4.125,4.1502,0.0,0.0,0.0,0.0,4.2261,4.2823,4.3188,4.3188,4.3778,4.4116,4.4116,4.4312,4.4425,4.4425,4.4425,4.4425,4.4425,4.4425,4.4425,4.4425,4.4425,4.4425,4.4425,4.4425,4.4425,4.4425,4.4425,4.4425,4.4425,4.4425,4.4425,4.4425,4.4425,4.4144,4.375,0.0,0.0,0.0,0.0,0.0,0.0,0.0,0.0,0.0,0.0,0.0,0.0,0.0,0.0,0.0,0.0,0.0,4.7901,4.6896,4.7237,4.7237,4.6652,4.7119,4.7387,4.7387,4.7297,4.7212,4.7212,4.7097,4.7039,4.7039,4.692,4.6892,4.6892,4.6892,4.6892,4.6892,4.6892,4.6953,4.7039,4.7039,4.6773,4.6265,4.6265,4.6171,0.0,4.5957,4.568,4.5249,4.5033,4.4787,4.4496,4.4035,4.3299,4.2415,4.184,4.1198,4.0688,4.0688,4.0688,4.0828,4.1474,4.1615,4.1615,4.1615,4.1615,4.1446,4.0828,4.0688,4.0688,4.0688,4.0688,4.0688,4.0688,4.0688,4.0688,4.0688,4.0688,4.0912,4.1531,4.1812,4.2205,0.0,0.0,0.0,4.2935,4.3469,4.3835,4.3835,4.42,4.4425,4.4425,4.4425,4.4425,4.4425,4.4425,4.4425,4.4425,4.4425,4.4425,4.4425,4.4425,4.4425,4.4425,4.4425,4.4425,4.4425,4.4425,4.4425,4.4425,4.4425,4.4425,4.4425,4.4425,4.4425,4.434,0.0,0.0,0.0,0.0,0.0,0.0,0.0,0.0,0.0,0.0,0.0,0.0,0.0,0.0,0.0,0.0,0.0,0.0,4.7471,4.6791,4.623,4.5936,4.6497,4.6877,4.6909,4.7498,4.7846,4.7846,4.7521,4.7317,4.7317,4.7103,4.692,4.692,4.692,4.692,4.692,4.692,4.7097,4.7317,4.7317,4.7288,4.72,4.72,4.6998,4.6634,4.6634,4.6634,4.6542,4.5865,4.5218,4.4511,4.326,4.1926,4.0972,4.1564,4.1311,4.0773,4.0688,4.0688,4.0828,4.1474,4.1587,4.1587,4.1615,4.1587,4.139,4.0828,4.0688,4.0688,0.0,0.0,4.0688,4.0688,4.0688,4.0688,4.0688,4.0688,4.094,0.0,0.0,0.0,0.0,0.0,0.0,4.3582,0.0,4.4425,4.4425,4.4425,4.4425,4.4425,4.4425,4.4425,4.4425,4.4425,4.4425,4.4425,4.4425,4.4425,4.4425,4.4425,4.4425,4.4425,4.4425,4.4425,4.4425,4.4425,4.4425,4.4425,4.4425,4.4425,4.4425,4.4425,4.4425,4.4425,0.0,0.0,0.0,0.0,0.0,0.0,0.0,0.0,0.0,0.0,0.0,0.0,0.0,0.0,0.0,0.0,0.0,0.0,4.8161,4.7803,4.7636,4.7679,4.7412,4.7549,4.8093,4.787,4.7846,4.7846,4.7731,4.7712,4.7712,4.7596,4.7607,4.7607,4.7607,4.7607,4.7607,4.7607,4.7628,4.7712,4.7712,4.7505,4.72,4.72,4.7308,4.7342,4.7342,4.7342,4.725,4.6573,0.0,0.0,4.5142,4.4295,4.3419,4.2618,4.1992,4.1367,4.0859,4.0688,4.0828,4.1474,4.1278,4.1053,4.1502,4.125,4.0884,4.0716,4.0688,4.0688,0.0,0.0,0.0,4.0688,4.0688,0.0,4.0688,4.0688,0.0,4.2205,0.0,4.2992,4.4088,4.4312,0.0,0.0,4.4312,4.4425,4.4425,4.4425,4.4425,4.4425,4.4425,4.4425,4.4425,4.4425,4.4425,4.4425,4.4425,4.4425,4.4425,4.4425,4.4425,4.4425,4.4425,4.4425,4.4425,4.4425,4.4425,4.4425,4.4425,4.4425,4.4425,4.4425,4.4425,4.4425,0.0,0.0,0.0,0.0,0.0,0.0,0.0,0.0,0.0,0.0,0.0,0.0,0.0,0.0,0.0,0.0,0.0,0.0,0.0,4.8127,4.8134,4.8217,4.8155,4.828,4.8616,4.8694,4.8498,4.8184,4.8028,4.798,4.798,4.782,4.7846,4.7846,4.7846,4.7846,4.7846,4.7846,4.7851,0.0,0.0,4.7934,4.7787,4.7787,4.7874,4.805,4.805,4.805,4.7989,0.0,0.0,4.6173,4.6062,4.5414,4.4542,4.4098,0.0,4.2021,4.1682,4.1142,4.0772,4.1137,4.094,4.08,4.1137,4.094,4.0688,4.0688,4.0688,0.0,4.0688,4.0688,0.0,0.0,0.0,0.0,4.0688,4.094,4.1474,0.0,4.2823,0.0,4.4312,4.4425,4.4425,0.0,4.4425,4.4425,4.4425,4.4425,4.4425,4.4425,4.4425,4.4425,4.4425,4.4425,4.4425,4.4425,4.4425,4.4425,4.4425,4.4425,4.4425,4.4425,0.0,4.4425,4.4425,4.4425,4.4425,4.4425,4.4425,4.4425,4.4425,4.4425,4.4425,4.4425,0.0,0.0,0.0,0.0,0.0,0.0,0.0,0.0,0.0,0.0,0.0,0.0,0.0,0.0,0.0,0.0,0.0,0.0,0.0,0.0,4.8101,4.8518,4.879,4.8997,4.912,4.9631,4.955,4.8769,4.8426,4.8226,4.8275,4.7997,4.7869,4.7869,4.7869,4.7869,4.7869,4.7869,4.8059,4.8226,4.8226,4.8407,4.8604,0.0,4.8604,4.8604,4.8604,4.8604,4.8604,4.8604,4.7476,4.6092,4.6689,4.6061,4.5144,4.5612,4.4472,4.3079,4.2907,4.191,4.0971,4.0887,4.0773,4.0688,4.0688,4.0688,4.0688,4.0688,4.0688,4.0688,4.0688,4.0688,4.0688,4.0688,0.0,4.0688,4.0688,4.1165,4.1755,4.2486,4.3048,4.3638,4.434,4.4425,4.4425,4.4425,4.4425,4.4425,4.4425,4.4425,4.4425,4.4425,4.4425,4.4425,4.4425,4.4425,4.4425,4.4425,4.4425,4.4425,4.4425,4.4425,4.4425,4.4425,4.4425,4.4425,4.4425,4.4425,4.4425,4.4425,4.4425,4.4425,4.4425,4.4425,4.4425,4.4425,0.0,0.0,0.0,0.0,0.0,0.0,0.0,0.0,0.0,0.0,5.0011,5.0011,0.0,0.0,0.0,0.0,0.0,0.0,0.0,0.0,0.0,5.0259,4.9542,4.9661,5.0811,5.0242,4.9789,4.963,4.8891,4.8533,4.8533,4.8491,4.843,4.843,4.843,4.843,4.843,4.843,4.8491,4.8533,4.8533,4.8594,4.8604,4.8604,0.0,0.0,4.8604,4.8604,4.8604,4.8604,4.8368,4.8101,4.8183,4.7702,4.6997,4.6584,4.5853,4.4863,4.3779,4.2989,4.2195,4.165,4.1114,4.0688,4.0688,4.0688,0.0,0.0,4.0688,4.0688,4.0688,4.0688,4.0688,4.0688,0.0,0.0,0.0,0.0,4.1278,0.0,0.0,0.0,0.0,0.0,0.0,0.0,4.4425,4.4425,4.4425,4.4425,4.4425,4.4425,4.4425,4.4425,4.4425,4.4425,4.4425,4.4425,4.4425,4.4425,4.4425,4.4425,4.4425,4.4425,4.4425,0.0,4.4425,4.4425,4.4425,4.4425,4.4425,4.4425,4.4425,4.4425,4.4425,4.4425,0.0,0.0,0.0,0.0,0.0,0.0,0.0,5.0011,5.0011,5.0011,5.0011,5.0011,5.0011,5.0011,4.9952,0.0,0.0,0.0,0.0,0.0,0.0,0.0,5.0791,5.0923,5.1888,5.1484,5.0962,5.0538,0.0,4.9915,4.9915,4.947,4.9228,4.9259,4.8769,4.8604,4.8604,4.8604,4.8604,4.8604,4.8604,4.8604,4.8604,0.0,0.0,0.0,0.0,4.8604,4.8604,4.8604,4.8604,4.8604,4.8604,4.8389,4.806,4.7782,4.6963,4.6026,4.5394,4.4246,4.3157,4.2836,4.1933,4.1198,4.1198,0.0,0.0,0.0,4.0688,4.0688,4.0688,4.0688,0.0,4.0688,0.0,0.0,0.0,0.0,0.0,0.0,0.0,0.0,0.0,0.0,0.0,0.0,4.4954,4.4769,4.4425,4.4425,4.4425,4.4425,4.4769,4.4769,4.4425,4.4769,4.4954,4.4954,4.4954,4.4954,4.4954,4.5384,4.5293,4.4954,4.5384,4.5293,4.4954,4.4954,4.4954,4.4954,4.4954,4.4954,4.4954,4.4954,4.4954,4.4954,0.0,0.0,0.0,0.0,0.0,0.0,0.0,5.0011,5.0011,5.0011,5.0011,5.0011,5.0011,5.0011,5.0011,0.0,0.0,0.0,0.0,0.0,0.0,0.0,0.0,0.0,0.0,0.0,0.0,5.1443,5.122,0.0,0.0,0.0,0.0,0.0,4.9097,4.8687,4.8852,4.8687,4.8604,0.0,0.0,4.8604,0.0,0.0,0.0,0.0,0.0,4.8604,4.8604,4.8604,4.8604,4.8604,4.8604,4.8604,4.8604,4.8604,4.7904,4.7031,4.6879,4.568,4.4235,4.3968,4.3001,4.2125,4.1951,4.1367,0.0,4.0944,4.0773,4.0688,4.0688,4.0688,4.0688,0.0,4.0688,4.0688,0.0,0.0,0.0,0.0,0.0,0.0,0.0,0.0,0.0,0.0,4.5685,4.5475,4.4833,4.4833,4.4833,4.4833,4.5384,4.5384,4.4833,4.5384,4.5747,4.5747,4.5747,4.5747,4.5747,4.6255,4.6255,4.5747,4.6255,4.6166,4.5747,4.5747,4.5747,4.5747,4.5747,4.5747,4.5747,4.5747,4.5747,4.5747,0.0,0.0,0.0,0.0,0.0,0.0,0.0,5.0011,5.0011,5.0011,5.0011,5.0011,5.0011,5.0011,5.0011,0.0,0.0,0.0,0.0,0.0,0.0,0.0,0.0,0.0,0.0,0.0,0.0,5.2383,5.1516,0.0,0.0,0.0,0.0,0.0,0.0,4.9015,4.971,4.8934,0.0,0.0,0.0,0.0,0.0,0.0,0.0,0.0,0.0,4.8604,4.8604,0.0,0.0,4.8604,4.8604,4.8604,4.8604,4.8604,0.0,0.0,4.7691,4.7006,4.6117,4.48,4.3983,4.3313,4.2695,0.0,4.1619,4.1619,4.1114,4.0688,4.0688,4.0688,4.0688,4.0688,4.0688,4.0688,0.0,0.0,0.0,0.0,0.0,0.0,0.0,0.0,0.0,4.5504,4.6077,4.6403,4.6314,4.6314,4.6314,4.6314,4.6403,4.6403,4.6314,4.6403,4.6403,4.6403,4.6403,4.6403,4.6403,4.6491,4.6491,4.6403,4.6491,4.6491,0.0,4.6403,4.6403,4.6403,4.6403,4.6403,4.6403,4.6403,4.6403,4.6403,0.0,0.0,0.0,0.0,0.0,0.0,5.0011,5.0011,5.0011,5.0011,5.0011,5.0011,5.0011,5.0011,5.0011,5.0011,0.0,0.0,0.0,0.0,0.0,0.0,0.0,0.0,0.0,0.0,0.0,5.3179,5.2836,0.0,0.0,0.0,0.0,0.0,0.0,0.0,4.9868,4.955,0.0,0.0,0.0,0.0,0.0,0.0,0.0,0.0,0.0,0.0,4.8604,0.0,0.0,0.0,4.8604,4.8604,0.0,0.0,4.8604,4.8543,4.8296,4.7732,4.714,4.659,4.5344,4.4197,4.3847,0.0,4.217,4.1757,4.1535,4.1198,4.0773,4.1029,4.1283,4.1283,4.2019,4.2531,4.2531,0.0,0.0,0.0,0.0,0.0,0.0,0.0,0.0,4.6726,4.7392,4.7734,4.7734,4.6929,4.6491,4.6491,4.6929,4.6929,4.6491,4.6929,4.7133,4.7133,4.7133,4.7133,4.7219,4.7563,4.7563,4.7219,4.7563,4.7563,0.0,4.7133,4.7133,4.7133,4.7133,4.7133,4.7133,4.7133,4.7133,4.7133,0.0,0.0,0.0,0.0,0.0,5.0011,5.0011,5.0011,5.0011,5.0011,5.0011,5.0011,5.0011,5.0011,5.0011,5.0011,5.0011,0.0,0.0,0.0,0.0,0.0,0.0,0.0,0.0,0.0,5.3014,5.3508,5.3443,5.3513,0.0,0.0,0.0,0.0,0.0,0.0,0.0,0.0,0.0,0.0,0.0,0.0,0.0,0.0,0.0,0.0,0.0,0.0,0.0,0.0,0.0,0.0,0.0,0.0,4.8604,0.0,4.8604,4.8604,4.8604,4.8266,4.7865,4.765,4.6376,4.5141,0.0,0.0,4.282,4.2333,4.2087,4.184,4.1339,4.1846,4.2295,4.2295,4.3265,4.4039,4.4039,4.4423,0.0,0.0,0.0,0.0,0.0,0.0,0.0,0.0,4.8355,4.8604,4.8604,4.7649,4.7103,4.7103,4.7649,4.7649,4.7103,4.7649,4.7934,4.7934,4.7934,4.7934,4.7934,4.8355,4.8355,4.7934,4.8355,4.8355,0.0,4.7934,4.7934,4.7934,4.7934,4.7934,4.7934,4.7934,4.7934,4.7934,0.0,0.0,0.0,0.0,0.0,0.0,5.0011,5.0011,5.0011,5.0011,5.0011,5.0011,5.0011,5.0011,5.0011,5.0011,5.0011,0.0,0.0,0.0,0.0,0.0,0.0,0.0,0.0,0.0,5.2351,5.3107,5.2882,5.3099,5.3717,5.2872,5.2836,5.3416,0.0,0.0,0.0,0.0,0.0,0.0,0.0,0.0,0.0,0.0,0.0,0.0,0.0,0.0,0.0,0.0,0.0,0.0,0.0,4.8604,4.8604,4.8604,4.8604,4.8604,4.8604,4.8604,4.845,4.7773,4.7096,4.6419,0.0,4.4569,4.3615,4.3536,4.3061,4.2548,4.2548,4.3189,4.3632,4.3632,4.4275,4.4689,4.4689,4.4718,0.0,0.0,0.0,0.0,0.0,0.0,0.0,4.8521,4.8604,0.0,4.8604,4.8604,4.8604,4.8604,4.8604,4.8604,4.8604,4.8604,4.8604,4.8604,4.8604,4.8604,4.8604,4.8604,4.8604,4.8604,4.8604,4.8604,0.0,4.8604,4.8604,4.8604,4.8604,4.8604,4.8604,4.8604,4.8604,4.8604,0.0,0.0,0.0,0.0,0.0,0.0,0.0,5.0011,5.0011,5.0011,5.0011,5.0011,5.0011,5.0011,5.0011,5.0011,5.0011,0.0,0.0,0.0,0.0,0.0,0.0,0.0,0.0,0.0,5.1718,5.2351,5.2769,5.3019,5.3065,5.3246,5.3416,5.3584,5.3008,0.0,0.0,0.0,0.0,0.0,0.0,0.0,0.0,0.0,0.0,0.0,0.0,0.0,0.0,0.0,0.0,0.0,0.0,0.0,0.0,4.8604,4.8604,0.0,4.8604,4.8604,4.8573,4.8358,4.7434,4.6542,4.6326,4.5248,4.4189,4.3693,4.3457,4.3289,4.333,4.3894,4.4488,4.4937,4.5928,4.6711,4.6711,0.0,0.0,0.0,0.0,0.0,0.0,0.0,0.0,4.8604,4.8604,4.8604,4.8604,4.8604,4.8604,4.8604,4.8604,4.8604,4.8604,4.8604,4.8604,4.8604,4.8604,4.8604,4.8604,4.8604,4.8604,4.8604,4.8604,4.8604,4.8604,4.8604,4.8604,4.8604,4.8604,4.8604,4.8604,4.8604,4.8604,4.8604,0.0,0.0,0.0,0.0,0.0,0.0,0.0,5.0011,5.0011,5.0011,5.0011,5.0011,5.0011,5.0011,5.0011,5.0011,5.0011,0.0,0.0,0.0,0.0,0.0,0.0,0.0,0.0,5.07,5.102,5.1683,5.2131,5.2523,5.2882,5.3331,5.3642,5.3783,5.3751,0.0,0.0,0.0,0.0,0.0,0.0,0.0,4.8604,0.0,0.0,0.0,0.0,0.0,0.0,0.0,0.0,0.0,0.0,0.0,0.0,0.0,4.8604,4.8604,4.8604,4.8604,4.8604,4.8604,4.7804,0.0,4.6973,4.6142,4.5264,4.4843,4.4686,4.4728,4.4749,4.5344,4.589,4.6285,4.7283,4.7989,4.7989,0.0,0.0,0.0,0.0,0.0,0.0,0.0,0.0,4.8604,4.8604,4.8604,4.8604,4.8604,4.8604,4.8604,4.8604,4.8604,4.8604,4.8604,4.8604,4.8604,4.8604,4.8604,4.8604,4.8604,4.8604,4.8604,4.8604,4.8604,0.0,4.8604,4.8604,4.8604,4.8604,4.8604,4.8604,4.8604,4.8604,4.8604,0.0,0.0,0.0,0.0,0.0,0.0,0.0,5.0011,5.0011,5.0011,5.0011,5.0011,5.0011,5.0011,5.0011,5.0011,0.0,0.0,0.0,0.0,0.0,0.0,0.0,0.0,0.0,5.0011,5.0355,5.1045,5.108,5.1778,5.3004,5.3072,5.3421,5.398,5.398,5.398,0.0,0.0,0.0,0.0,0.0,0.0,0.0,0.0,0.0,0.0,0.0,0.0,0.0,0.0,0.0,0.0,0.0,0.0,0.0,0.0,0.0,0.0,0.0,4.8604,4.8604,4.8604,4.8112,4.7619,4.7619,4.7096,0.0,4.6603,4.6603,4.6603,4.6665,4.7188,4.7619,4.7681,4.8204,4.8604,4.8604,4.8604,0.0,0.0,0.0,0.0,0.0,0.0,0.0,4.8604,4.8604,4.8604,4.8604,4.8604,4.8604,4.8604,4.8604,4.8604,4.8604,4.8604,4.8604,4.8604,4.8604,4.8604,4.8604,4.8604,4.8604,0.0,4.8604,4.8604,4.8604,4.8604,4.8604,4.8604,4.8604,4.8604,4.8604,4.8604,4.8604,4.8604,0.0,0.0,0.0,0.0,0.0,0.0,0.0,0.0,0.0,0.0,5.0011,5.0011,5.0011,5.0011,5.0011,0.0,0.0,0.0,0.0,0.0,0.0,0.0,0.0,0.0,5.0011,5.0011,5.008,5.0252,5.0838,5.1537,5.2433,5.2894,5.3484,5.4175,5.3915,5.3416,0.0,0.0,0.0,0.0,0.0,0.0,0.0,0.0,0.0,0.0,4.8604,4.8604,0.0,0.0,0.0,0.0,0.0,0.0,0.0,0.0,4.8604,4.8604,4.8604,0.0,4.8604,4.8604,4.8112,4.7619,0.0,4.7096,4.6603,4.6603,0.0,4.6757,4.7281,4.7496,4.7773,4.8296,4.8512,4.8604,4.8604,0.0,0.0,0.0,0.0,0.0,0.0,0.0,4.8604,4.8604,4.8604,4.8604,4.8604,4.8604,4.8604,4.8604,4.8604,4.8604,4.8604,4.8604,4.8604,4.8604,4.8604,4.8604,4.8604,4.8604,4.8604,4.8604,4.8604,4.8604,4.8604,4.8604,4.8604,4.8604,4.8604,4.8604,4.8604,4.8604,4.8604,4.8604,0.0,0.0,0.0,0.0,0.0,0.0,0.0,0.0,0.0,0.0,0.0,0.0,0.0,0.0,0.0,0.0,0.0,0.0,0.0,0.0,0.0,0.0,0.0,5.0011,5.0011,5.0011,5.0011,5.0011,5.0424,5.0976,5.1735,5.2337,5.3129,5.3822,5.4038,5.3749,0.0,0.0,0.0,0.0,5.1776,0.0,0.0,0.0,0.0,0.0,4.8769,4.8604,0.0,4.8604,4.8604,4.8604,0.0,0.0,0.0,0.0,4.8604,4.8604,4.8604,4.8604,4.8604,4.8604,4.8327,4.8081,4.8081,4.7773,0.0,0.0,0.0,0.0,0.0,0.0,4.8173,4.8543,4.8604,4.8604,0.0,0.0,0.0,0.0,0.0,0.0,0.0,0.0,4.8604,4.8604,4.8604,4.8604,4.8604,4.8604,4.8604,4.8604,4.8604,4.8604,4.8604,4.8604,4.8604,4.8604,4.8604,4.8604,4.8604,4.8604,4.8604,4.8604,4.8604,4.8604,4.8604,4.8604,4.8604,4.8604,4.8604,4.8604,4.8604,4.8604,4.8604,4.8604,0.0,0.0,0.0,0.0,0.0,0.0,0.0,0.0,0.0,0.0,0.0,0.0,0.0,0.0,0.0,0.0,0.0,0.0,0.0,0.0,0.0,0.0,0.0,5.0011,5.0011,5.0011,5.0011,5.0011,5.0011,5.039,5.1149,5.1873,5.2701,5.3535,5.4155,5.4303,0.0,0.0,0.0,0.0,5.2733,0.0,0.0,0.0,0.0,0.0,0.0,0.0,0.0,4.8769,4.8687,4.8604,4.8604,0.0,0.0,0.0,0.0,0.0,4.8604,4.8604,4.8604,4.8604,4.8604,4.8604,4.8604,0.0,0.0,0.0,0.0,0.0,0.0,0.0,0.0,0.0,0.0,0.0,0.0,0.0,0.0,0.0,0.0,0.0,0.0,4.8604,4.8604,4.8604,4.8604,4.8604,4.8604,4.8604,4.8604,4.8604,4.8604,4.8604,4.8604,4.8604,4.8604,4.8604,4.8604,4.8604,4.8604,4.8604,4.8604,4.8604,0.0,0.0,4.8604,4.8604,4.8604,4.8604,4.8604,4.8604,4.8604,4.8604,4.8604,4.8604,0.0,0.0,0.0,0.0,0.0,0.0,0.0,0.0,0.0,0.0,0.0,0.0,0.0,0.0,0.0,0.0,0.0,0.0,0.0,0.0,0.0,5.0011,5.0011,5.0011,5.0011,5.0011,5.0011,5.0011,5.0011,5.039,5.1149,5.1873,5.2853,5.4068,5.4205,5.4239,5.4175,5.4045,5.3915,5.3749,5.355,0.0,0.0,0.0,0.0,0.0,0.0,0.0,0.0,4.947,4.9259,4.8604,4.8604,0.0,0.0,0.0,0.0,0.0,4.8604,4.8604,4.8604,4.8604,4.8604,4.8604,4.8604,0.0,0.0,0.0,0.0,0.0,0.0,0.0,0.0,0.0,0.0,0.0,0.0,0.0,0.0,0.0,0.0,0.0,4.8604,4.8604,4.8604,4.8604,4.8604,4.8604,4.8604,4.8604,4.8604,4.8604,4.8604,4.8604,4.8604,4.8604,4.8604,4.8604,4.8604,4.8604,4.8604,4.8604,4.8604,4.8604,0.0,4.8604,4.8604,4.8604,4.8604,4.8604,4.8604,4.8604,4.8604,4.8604,4.8604,4.8604,0.0,0.0,0.0,0.0,0.0,0.0,0.0,0.0,0.0,0.0,0.0,0.0,0.0,0.0,0.0,0.0,0.0,0.0,0.0,0.0,0.0,5.0011,5.0011,5.0011,5.0011,5.0011,5.0011,5.0011,5.0011,5.0183,5.0528,5.1701,5.2743,5.3782,5.4195,5.4367,5.4367,5.4303,5.4175,5.411,0.0,0.0,0.0,0.0,0.0,0.0,0.0,0.0,0.0,0.0,4.963,4.9259,4.8769,0.0,0.0,0.0,0.0,0.0,4.8604,4.8604,4.8604,4.8604,4.8604,4.8604,4.8604,0.0,0.0,0.0,0.0,0.0,0.0,0.0,0.0,0.0,0.0,0.0,0.0,0.0,0.0,0.0,0.0,4.8604,4.8604,4.8604,4.8604,4.8604,4.8604,4.8604,4.8604,4.8604,4.8604,4.8604,4.8604,4.8604,4.8604,4.8604,4.8604,4.8604,4.8604,4.8604,4.8604,4.8604,4.8604,4.8604,0.0,4.8604,4.8604,4.8604,4.8604,4.8604,4.8604,4.8604,4.8604,4.8604,4.8604,4.8666,0.0,0.0,0.0,0.0,0.0,0.0,0.0,0.0,0.0,0.0,0.0,0.0,0.0,0.0,0.0,0.0,0.0,0.0,0.0,0.0,5.0011,5.0011,5.0011,5.0011,5.0011,5.0011,5.0011,5.0011,5.0011,5.008,5.0287,5.1425,5.2459,5.3425,5.4011,5.4356,5.4494,5.4494,5.4367,5.4175,0.0,0.0,0.0,0.0,0.0,0.0,0.0,0.0,0.0,0.0,0.0,0.0,0.0,0.0,0.0,4.8852,4.8769,4.8604,4.8604,4.8604,4.8604,4.8604,4.8604,4.8604,4.8604,0.0,0.0,0.0,0.0,0.0,0.0,0.0,0.0,0.0,0.0,0.0,0.0,0.0,0.0,0.0,0.0,4.8604,4.8604,4.8604,4.8604,4.8604,4.8604,4.8604,4.8604,4.8604,4.8604,4.8604,4.8604,4.8604,4.8604,4.8604,4.8604,4.8604,4.8604,4.8604,4.8604,4.8604,4.8604,4.8604,4.8604,4.8604,4.8604,4.8604,4.8604,4.8604,4.8604,4.8604,4.8635,4.8789,4.8881,4.8974,0.0,0.0,0.0,0.0,0.0,0.0,0.0,0.0,0.0,0.0,0.0,0.0,0.0,0.0,0.0,0.0,0.0,0.0,0.0,0.0,5.0011,5.0011,5.0011,5.0011,5.0011,5.0011,5.0011,5.0011,5.0011,5.0355,5.1045,5.1149,5.1977,5.3391,5.346,5.3873,5.4494,5.4494,5.4303,5.398,5.398,0.0,0.0,0.0,0.0,0.0,0.0,0.0,0.0,0.0,0.0,0.0,0.0,0.0,4.8769,4.955,4.9228,4.8604,4.8604,4.8604,4.8604,4.8604,4.8604,0.0,4.8604,4.8604,0.0,0.0,0.0,0.0,0.0,0.0,0.0,0.0,0.0,0.0,0.0,0.0,0.0,4.8604,4.8604,4.8604,4.8604,4.8604,4.8604,4.8604,4.8604,4.8604,4.8604,4.8604,4.8604,4.8604,4.8604,4.8604,4.8604,4.8604,4.8604,4.8604,4.8604,4.8604,4.8604,4.8604,4.8604,4.8604,4.8604,4.8604,4.8604,4.8604,4.8604,4.8604,4.8604,4.8604,4.8696,4.9374,4.962,4.9712,0.0,0.0,0.0,0.0,0.0,0.0,0.0,0.0,0.0,0.0,0.0,0.0,0.0,0.0,0.0,0.0,0.0,0.0,0.0,5.0011,5.0011,5.0011,5.0011,5.0011,5.0011,5.0011,5.0011,5.0011,5.0011,5.0149,5.0424,5.0907,5.1425,5.2011,5.2977,5.3563,5.3839,5.4322,5.4431,5.4303,5.4175,5.4045,0.0,0.0,0.0,0.0,0.0,0.0,0.0,0.0,5.1294,5.0615,5.0615,5.0104,4.955,5.0384,5.0384,5.0151,5.0274,5.0274,5.0274,5.0274,0.0,0.0,0.0,0.0,0.0,0.0,0.0,0.0,0.0,0.0,0.0,0.0,0.0,0.0,0.0,0.0,4.8604,4.8604,4.8604,4.8604,4.8604,4.8604,4.8604,4.8604,4.8604,4.8604,4.8604,4.8604,4.8604,4.8604,4.8604,4.8604,4.8604,4.8604,4.8604,4.8604,4.8604,4.8604,4.8604,4.8604,4.8604,4.8604,4.8604,4.8604,4.8604,4.8604,4.8604,4.8604,4.8604,4.8881,4.9312,4.9589,4.9959,5.042,0.0,0.0,0.0,0.0,0.0,0.0,0.0,0.0,0.0,0.0,0.0,0.0,0.0,0.0,0.0,0.0,0.0,0.0,5.0011,5.0011,5.0011,5.0011,5.0011,5.0011,5.0011,5.0011,5.0011,5.0011,5.0011,5.0011,5.0011,5.0528,5.0907,5.1149,5.2218,5.2942,5.3425,5.3942,5.4224,5.4367,5.4239,5.4175,0.0,0.0,0.0,0.0,0.0,0.0,0.0,0.0,5.1954,5.159,5.159,5.0962,5.0461,5.122,5.1294,5.1187,5.1262,5.1303,5.1377,0.0,0.0,0.0,0.0,0.0,0.0,0.0,0.0,0.0,0.0,0.0,0.0,0.0,0.0,0.0,0.0,4.9228,4.9309,4.9015,4.9015,4.8934,4.8604,4.8604,4.8687,4.9015,4.9015,4.9015,4.9015,4.9228,4.9309,4.9015,4.9228,4.9228,4.9015,4.9015,4.9015,4.9015,4.9015,4.8852,4.8604,4.8604,4.8604,4.8604,4.8604,4.8604,4.8604,4.8604,4.8604,4.8635,4.8881,4.9251,4.9743,5.0174,5.0605,5.1097,0.0,0.0,0.0,0.0,0.0,0.0,0.0,0.0,0.0,0.0,0.0,0.0,0.0,0.0,0.0,0.0,0.0,0.0,5.0011,5.0011,5.0011,5.0011,5.0011,5.0011,5.0011,5.0011,5.0011,5.0011,5.0011,5.0011,5.0011,5.0011,5.039,5.1114,5.1114,5.1942,5.3391,5.3391,5.3679,5.4239,5.4239,5.411,5.398,0.0,0.0,0.0,0.0,0.0,0.0,0.0,5.2524,5.2524,5.2524,5.1993,5.1484,5.2131,5.1809,5.1336,5.1336,5.1451,0.0,0.0,0.0,0.0,0.0,0.0,0.0,0.0,0.0,0.0,0.0,0.0,0.0,0.0,0.0,0.0,4.9868,5.0615,5.0767,5.0026,4.9868,4.955,4.8687,4.8604,4.9015,4.9868,4.9868,4.9868,4.9868,5.0691,5.0691,4.9947,5.0691,5.0691,4.9947,4.9868,4.9868,4.9868,4.9868,4.947,4.8604,4.8604,4.8604,4.8604,4.8604,4.8604,4.8604,4.8635,4.8635,4.8696,4.9404,4.9712,4.9866,5.1221,5.1713,5.1805,0.0,0.0,0.0,0.0,0.0,0.0,0.0,0.0,0.0,0.0,0.0,0.0,0.0,0.0,0.0,0.0,0.0,0.0,5.0011,5.0011,5.0011,5.0011,5.0011,5.0011,5.0011,5.0011,5.0011,5.0011,5.0011,5.0011,5.0011,5.0011,5.0114,5.0355,5.0873,5.1666,5.2597,5.3149,5.3776,5.4431,5.4431,5.4367,5.4367,0.0,0.0,0.0,0.0,0.0,0.0,0.0,0.0,0.0,5.3179,5.2872,5.2491,5.3111,5.3247,5.3247,5.3281,5.3348,0.0,0.0,0.0,0.0,0.0,0.0,0.0,0.0,0.0,0.0,0.0,0.0,0.0,0.0,0.0,5.0767,5.0767,5.0919,5.0995,5.0767,5.0767,5.0615,5.0384,5.0384,5.0461,5.0691,5.0767,5.0767,5.0767,5.0995,5.0995,5.0767,5.0995,5.0995,5.0767,5.0767,5.0767,5.0767,5.0767,5.0615,5.0384,5.0384,5.0073,4.947,4.947,4.9178,4.8666,4.984,4.9895,4.9519,5.084,5.1234,5.1159,5.1559,5.2021,5.2452,0.0,0.0,0.0,0.0,0.0,0.0,0.0,0.0,0.0,0.0,0.0,0.0,0.0,0.0,0.0,0.0,0.0,0.0,0.0,5.0011,5.0011,5.0011,5.0011,5.0011,5.0011,5.0011,5.0011,5.0011,5.0011,5.0011,5.0011,5.0011,5.0011,5.0011,5.0459,5.108,5.1839,5.2597,5.3356,5.4115,5.4391,5.4494,5.4494,0.0,0.0,0.0,0.0,0.0,0.0,0.0,0.0,0.0,5.3749,5.3683,5.3449,5.3749,5.3915,5.411,5.4175,0.0,0.0,0.0,0.0,0.0,0.0,0.0,0.0,0.0,0.0,0.0,0.0,0.0,0.0,0.0,5.1623,5.1623,5.1623,5.1842,5.1915,5.1623,5.1623,5.1443,5.1145,5.107,5.122,5.1516,5.1623,5.1623,5.1623,5.1915,5.1915,5.1623,5.1915,5.1915,5.1623,5.1623,5.1623,5.1623,5.1623,5.1769,5.2059,5.1369,5.0843,5.0384,5.0384,5.0231,5.0151,5.1041,5.1311,5.1222,5.249,5.2867,5.2775,5.3058,5.3404,5.375,0.0,0.0,0.0,0.0,0.0,0.0,0.0,0.0,0.0,0.0,0.0,0.0,0.0,0.0,0.0,0.0,0.0,0.0,0.0,0.0,5.0011,5.0011,5.0011,5.0011,5.0011,5.0011,5.0011,5.0011,5.0011,5.0011,5.0011,5.0011,5.0011,5.0011,5.0011,5.0424,5.1149,5.1839,5.2597,5.346,5.4149,5.446,5.4494,5.4494,0.0,0.0,0.0,0.0,0.0,0.0,0.0,0.0,5.4239,5.4239,5.4175,5.4045,5.411,5.4239,5.4239,0.0,0.0,0.0,0.0,0.0,0.0,0.0,0.0,0.0,0.0,0.0,0.0,0.0,0.0,5.2378,5.2378,5.2378,5.2378,5.3041,5.3212,5.2449,5.2378,5.2131,5.1369,5.1294,5.159,5.2378,5.2378,5.2378,5.2378,5.3144,5.3144,5.2449,5.3144,5.3144,5.2378,5.2378,5.2378,5.2378,5.2378,5.2764,5.3416,5.1987,5.1294,5.122,5.121,5.1556,5.2248,5.2454,5.2876,5.3493,5.424,5.45,5.4485,5.5053,5.5312,5.5312,0.0,0.0,0.0,0.0,0.0,0.0,0.0,0.0,0.0,0.0,0.0,0.0,0.0,0.0,0.0,0.0,0.0,0.0,0.0,0.0,5.0011,5.0011,5.0011,5.0011,5.0011,5.0011,5.0011,5.0011,5.0011,5.0011,5.0011,5.0011,5.0011,5.0011,5.0011,5.0424,5.1114,5.1287,5.2149,5.3425,5.3563,5.3977,5.4494,5.4494,5.4494,0.0,0.0,0.0,0.0,0.0,0.0,0.0,5.4239,5.4303,5.4367,5.4239,5.4303,5.4431,0.0,5.4431,0.0,0.0,0.0,0.0,0.0,0.0,0.0,0.0,0.0,0.0,0.0,0.0,5.3212,5.3212,5.3212,5.3212,5.3212,5.3348,5.345,5.328,5.3212,5.3212,5.2972,5.2972,5.3041,5.3212,5.3212,5.3212,5.3212,5.3416,5.3416,5.328,5.3416,5.3416,5.328,5.3212,5.3212,5.3212,5.3212,5.3348,5.3518,5.311,5.2661,5.202,5.1987,5.2085,5.2312,5.4142,5.4513,5.424,5.562,5.5726,5.5086,5.5247,5.5312,5.5312,0.0,0.0,0.0,0.0,0.0,0.0,0.0,0.0,0.0,0.0,0.0,0.0,0.0,0.0,0.0,0.0,0.0,0.0,0.0,0.0,5.0011,5.0011,5.0011,5.0011,5.0011,5.0011,5.0011,5.0011,5.0011,5.0011,5.0011,5.0011,5.0011,5.0011,5.0011,5.0218,5.0597,5.0976,5.177,5.2873,5.3253,5.3839,5.4494,5.4494,5.4494,5.4494,5.4494,0.0,0.0,0.0,0.0,0.0,0.0,0.0,5.4494,5.4367,5.4431,5.4494,0.0,0.0,0.0,0.0,0.0,0.0,0.0,0.0,0.0,0.0,0.0,0.0,0.0,5.3551,5.3518,5.3518,5.3518,5.3518,5.3518,5.3518,5.3518,5.3518,5.3518,5.3518,5.3518,5.3518,5.3518,5.3518,5.3518,5.3518,5.3518,5.3518,5.3518,5.3518,5.3518,5.3518,5.3518,5.3518,5.3518,5.3518,5.3518,5.3687,5.4025,5.4025,5.3786,5.3402,5.3745,5.4096,5.446,5.5703,5.6129,5.6051,5.6938,5.692,5.6503,5.6503,5.6503,5.6503,0.0,0.0,0.0,0.0,0.0,0.0,0.0,0.0,0.0,0.0,0.0,0.0,0.0,0.0,0.0,0.0,0.0,0.0,0.0,0.0,0.0,5.0011,5.0011,5.0011,5.0011,5.0011,5.0011,5.0011,5.0011,5.0011,5.0011,5.0011,5.0011,5.0011,5.0011,5.0011,5.0045,5.0666,5.1425,5.2287,5.2942,5.3736,5.4494,5.4494,5.4494,5.4494,5.4494,5.4494,5.4494,5.4494,0.0,0.0,0.0,0.0,5.4494,5.4494,5.4494,5.4494,0.0,0.0,0.0,0.0,0.0,0.0,0.0,0.0,0.0,0.0,0.0,0.0,5.3651,5.3551,5.3518,5.3518,5.3518,5.3518,5.3518,5.3518,5.3518,5.3518,5.3518,5.3518,5.3518,5.3518,5.3518,5.3518,5.3518,5.3518,5.3518,5.3518,5.3518,5.3518,5.3518,5.3518,5.3518,5.3518,5.3518,5.3518,5.3619,5.4025,5.46,5.4871,5.4905,5.4837,5.5581,5.6258,5.6799,5.6934,5.734,5.7881,5.7881,5.7881,5.7881,5.7881,5.7881,5.7881,0.0,0.0,0.0,0.0,0.0,0.0,0.0,0.0,0.0,0.0,0.0,0.0,0.0,0.0,0.0,0.0,0.0,0.0,5.0011,0.0,0.0,5.0011,5.0011,5.0011,5.0011,5.0011,5.0011,5.0011,5.0011,5.0011,0.0,0.0,5.0011,5.0011,5.0011,5.0011,5.0011,5.0114,5.0942,5.2218,5.2321,5.3218,5.4494,5.4494,5.4494,5.4494,5.4494,5.4494,5.4494,5.4494,5.4494,0.0,0.0,0.0,5.4494,5.4494,5.4494,5.4494,0.0,0.0,0.0,0.0,0.0,0.0,0.0,0.0,0.0,0.0,0.0,5.3651,5.3551,5.3484,5.3518,5.3518,5.3518,5.3518,5.3518,5.3518,5.3518,5.3518,5.3518,5.3518,5.3518,5.3518,5.3518,5.3518,5.3518,5.3518,5.3518,5.3518,5.3518,5.3518,5.3518,5.3518,5.3518,5.3518,5.3518,5.3518,5.416,5.4499,5.4634,5.5919,5.6156,5.5615,5.6325,5.6697,5.6867,5.7476,5.7814,5.7881,5.7881,5.7881,5.7881,5.7881,5.7881,5.7881,0.0,0.0,0.0,0.0,0.0,0.0,0.0,0.0,0.0,0.0,0.0,0.0,0.0,0.0,0.0,5.0011,5.0011,5.0011,5.0011,5.0011,5.0011,5.0011,5.0011,5.0011,5.0011,5.0011,5.0011,5.0011,5.0011,0.0,0.0,5.0011,5.0011,0.0,5.0011,5.0011,5.0011,5.0011,5.0873,5.2218,5.2218,5.3149,5.4494,5.4494,5.4494,5.4494,5.4494,5.4494,5.4494,5.4494,5.4494,5.4494,5.4494,0.0,0.0,0.0,5.4494,0.0,0.0,0.0,0.0,0.0,0.0,0.0,0.0,0.0,0.0,0.0,5.4045,5.3915,5.3783,5.3618,5.3518,5.3518,5.3518,5.3518,5.3518,5.3518,5.3518,5.3518,5.3518,5.3518,5.3518,5.3518,5.3518,5.3518,5.3518,5.3518,5.3518,5.3518,5.3518,5.3518,5.3518,5.3518,5.3518,5.3518,5.3721,5.4126,5.4431,5.504,5.5852,5.6494,5.663,5.6359,5.7103,5.7408,5.7442,5.7746,5.7881,5.7881,5.7881,5.7881,5.7881,5.7881,5.7881,5.7881,0.0,0.0,0.0,0.0,0.0,0.0,0.0,0.0,0.0,0.0,0.0,0.0,0.0,0.0,0.0,0.0,5.0011,5.0011,5.0011,5.0011,5.0011,5.0011,5.0011,5.0011,5.0011,5.0011,5.0011,5.0011,0.0,0.0,5.0011,5.0011,5.0011,0.0,5.0011,5.0011,5.0011,0.0,5.0873,5.2218,5.2218,5.3149,5.4494,5.4494,5.4494,5.4494,5.4494,0.0,0.0,0.0,0.0,5.4494,5.4494,5.4494,0.0,0.0,0.0,0.0,0.0,0.0,0.0,0.0,0.0,0.0,0.0,0.0,0.0,0.0,5.4175,5.4175,5.4045,5.3751,5.3551,5.3518,5.3518,5.3518,5.3518,5.3518,5.3518,5.3518,5.3518,5.3518,5.3518,5.3518,5.3518,5.3518,5.3518,5.3518,5.3518,5.3518,5.3518,5.3518,5.3518,5.3518,5.3518,5.3687,5.4059,5.46,5.4972,5.575,5.6799,5.7002,5.707,5.7103,5.7645,5.7881,5.7881,5.7881,5.7881,5.7881,5.7881,5.7881,5.7881,5.7881,5.7881,5.7881,0.0,0.0,0.0,0.0,0.0,0.0,0.0,0.0,0.0,0.0,0.0,0.0,5.0011,5.0011,5.0011,5.0011,5.0011,5.0011,5.0011,5.0011,5.0011,5.0011,5.0011,0.0,5.0011,5.0011,5.0011,5.0011,0.0,0.0,5.0011,5.0011,5.0011,5.0011,5.0011,5.0011,5.0011,0.0,0.0,5.2218,5.2218,5.3149,5.4494,5.4494,5.4494,5.4494,5.4494,0.0,0.0,0.0,0.0,0.0,0.0,5.4494,5.4494,0.0,0.0,0.0,0.0,0.0,0.0,0.0,0.0,0.0,0.0,0.0,0.0,0.0,5.4303,5.4175,5.4045,5.3849,5.3651,5.3484,5.3518,5.3518,5.3518,5.3518,5.3518,5.3518,5.3518,5.3518,5.3518,5.3518,5.3518,5.3518,5.3518,5.3518,5.3518,5.3518,5.3518,5.3518,5.3518,5.3518,5.3518,5.4194,5.4566,5.46,5.6021,5.6731,5.6833,5.7509,5.7814,5.7814,5.7881,5.7881,5.7881,5.7881,5.7881,5.7881,5.7881,5.7881,5.7881,5.7881,5.7881,5.7881,0.0,0.0,0.0,0.0,0.0,0.0,0.0,0.0,0.0,0.0,0.0,0.0,0.0,5.0011,5.0011,5.0011,5.0011,5.0011,5.0011,5.0011,5.0011,5.0011,5.0011,5.0011,5.0011,5.0011,5.0011,0.0,0.0,5.0011,5.0011,5.0011,5.0011,5.0011,5.0011,5.0011,5.0011,5.0011,0.0,0.0,0.0,5.3149,5.4494,5.4494,0.0,0.0,0.0,0.0,0.0,0.0,0.0,0.0,0.0,0.0,0.0,0.0,0.0,0.0,0.0,0.0,0.0,0.0,0.0,0.0,0.0,5.4494,5.4494,5.4494,5.4431,5.4303,5.4045,5.3849,5.3651,5.3484,5.3518,5.3518,5.3518,5.3518,5.3518,5.3518,5.3518,5.3518,5.3518,5.3518,5.3518,5.3518,5.3518,5.3518,5.3518,5.3518,5.3518,5.3518,5.3518,5.3721,5.4194,5.4465,5.5074,5.6021,5.6562,5.7036,5.7509,5.778,5.7881,5.7881,5.7881,5.7881,5.7881,5.7881,5.7881,5.7881,5.7881,5.7881,5.7881,5.7881,5.7881,5.7881,0.0,0.0,0.0,0.0,0.0,0.0,0.0,0.0,0.0,5.0011,0.0,0.0,0.0,0.0,5.0011,5.0011,5.0011,5.0011,5.0011,5.0011,5.0011,5.0011,5.0011,5.0011,5.0011,5.0252,5.0252,5.0011,5.0252,5.0252,0.0,5.0011,5.0011,5.0011,5.0011,5.0011,0.0,0.0,0.0,5.2218,0.0,0.0,5.4494,0.0,0.0,0.0,0.0,0.0,0.0,0.0,0.0,0.0,0.0,0.0,0.0,0.0,0.0,0.0,5.4494,0.0,0.0,0.0,0.0,5.4494,5.4494,0.0,5.4494,5.4494,5.4494,5.4367,5.4045,5.3915,5.3717,5.3618,5.3551,5.3551,5.3551,5.3484,5.3518,5.3518,5.3518,5.3518,5.3518,5.3518,5.3518,5.3518,5.3518,0.0,5.3518,5.3518,5.3518,5.3518,5.3518,5.3856,5.4566,5.4837,5.5581,5.6799,5.7036,5.7408,5.7881,5.7881,5.7881,5.7881,5.7881,5.7881,5.7881,5.7881,5.7881,5.7881,5.7881,5.7881,5.7881,5.7881,5.7881,5.7881,0.0,0.0,0.0,0.0,0.0,0.0,0.0,0.0,5.0011,5.0011,0.0,0.0,0.0,0.0,0.0,5.0011,5.0011,5.0011,5.0011,5.0011,5.0011,5.0011,5.0011,5.0011,5.0011,5.07,5.0735,5.0011,5.0735,5.07,5.0011,5.0011,5.0011,5.0011,5.0011,5.0011,5.0011,0.0,5.0873,5.2218,0.0,5.3149,5.4494,0.0,0.0,0.0,5.4494,5.4494,0.0,0.0,0.0,0.0,0.0,0.0,0.0,0.0,0.0,0.0,0.0,0.0,0.0,0.0,0.0,0.0,5.4494,0.0,5.4494,5.4494,5.4494,5.4367,5.4045,5.398,5.3915,5.3717,5.3717,5.3717,5.3717,5.3618,5.3518,5.3518,5.3518,5.3518,5.3518,5.3518,5.3518,5.3518,5.3518,5.3518,5.3518,5.3518,5.3518,5.3518,5.3518,5.389,5.4634,5.5378,5.6122,5.6833,5.7543,5.7881,5.7881,5.7881,5.7881,5.7881,5.7881,5.7881,5.7881,5.7881,5.7881,5.7881,5.7881,5.7881,5.7881,5.7881,5.7881,5.7881,0.0,0.0,0.0,0.0,0.0,5.0011,5.0011,5.0011,5.0011,0.0,0.0,0.0,5.0011,5.0011,5.0011,5.0011,5.0011,5.0011,5.0011,5.0011,5.0011,5.0011,5.0011,5.0011,5.0011,5.0218,5.0218,5.0011,5.0218,5.0218,5.0011,5.0011,5.0011,5.0011,5.0011,5.0011,5.0011,5.0011,0.0,0.0,5.2218,5.3149,0.0,0.0,0.0,0.0,0.0,5.4494,5.4494,0.0,5.4494,5.4494,0.0,0.0,0.0,0.0,0.0,0.0,5.4494,0.0,0.0,0.0,0.0,0.0,0.0,0.0,5.4494,5.4494,5.4494,5.4431,5.4175,5.4175,5.411,5.3915,5.3751,5.3551,5.3551,5.3484,5.3518,5.3518,5.3518,5.3518,5.3518,5.3518,5.3518,0.0,5.3518,5.3518,5.3518,5.3518,5.3518,5.3518,5.4025,5.4634,5.5412,5.6122,5.6867,5.7577,5.778,5.7881,5.7881,5.7881,5.7881,5.7881,5.7881,5.7881,5.7881,5.7881,5.7881,5.7881,5.7881,5.7881,5.7881,5.7881,5.7881,5.7881,0.0,0.0,0.0,0.0,0.0,5.0011,5.0011,5.0011,5.0011,0.0,0.0,0.0,5.0011,5.0011,5.0011,5.0011,5.0011,5.0011,5.0011,5.0011,5.0011,5.0011,5.0011,5.0011,5.0011,5.0321,5.0321,5.0011,5.0321,5.0321,5.0011,5.0011,5.0011,5.0011,5.0011,0.0,0.0,0.0,0.0,0.0,5.2218,0.0,0.0,5.4494,5.4494,0.0,0.0,0.0,5.4494,5.4494,5.4494,0.0,0.0,0.0,0.0,0.0,0.0,0.0,0.0,0.0,0.0,0.0,0.0,0.0,5.4494,5.4494,5.4494,0.0,5.4494,5.4431,5.4239,5.4239,5.411,5.3915,5.3717,5.3618,5.3618,5.3551,5.3518,5.3518,5.3518,5.3518,5.3518,5.3518,5.3518,5.3518,5.3518,5.3518,5.3518,5.3518,5.3518,5.3518,5.4228,5.4938,5.5716,5.6427,5.7171,5.7881,5.7881,5.7881,5.7881,5.7881,5.7881,5.7881,5.7881,5.7881,5.7881,5.7881,5.7881,5.7881,5.7881,5.7881,5.7881,5.7881,5.7881,5.7881,0.0,0.0,5.0749,5.0263,5.0149,5.0149,5.0149,5.0149,5.0149,0.0,5.0068,5.0011,5.0011,5.0011,5.0011,5.0011,5.0011,5.0011,5.0011,5.0011,5.0011,5.0011,5.0011,5.0011,5.0011,5.0666,5.0666,5.0126,5.0666,5.0631,5.0126,5.0011,5.0011,5.0011,0.0,0.0,0.0,0.0,0.0,5.2114,5.2183,5.308,0.0,0.0,5.4494,0.0,5.4494,5.4494,5.4494,5.4494,5.4494,0.0,0.0,0.0,0.0,0.0,5.4494,0.0,0.0,0.0,0.0,0.0,0.0,0.0,5.4494,5.4494,5.4494,0.0,5.4494,5.4431,5.4333,5.4333,5.4205,5.3946,5.3881,5.3783,5.3717,5.3551,5.3518,5.3518,5.3518,5.3518,5.3518,5.3518,5.3518,5.3518,5.3518,5.3518,5.3518,5.3518,5.3551,5.3619,5.4329,5.5074,5.5818,5.6562,5.7239,5.7881,5.7881,5.7881,5.7881,5.7881,5.7881,5.7881,5.7881,5.7881,5.7881,5.7881,5.7881,5.7881,5.7881,5.7881,5.7881,5.7881,5.7881,5.7881,0.0,5.1449,5.1398,5.1296,5.1296,5.1296,5.1296,5.1296,5.1087,5.0694,5.0263,5.0011,5.0011,5.0011,5.0011,5.0011,5.0011,5.0011,5.0011,5.0011,5.0011,5.0011,5.0011,5.0011,5.0011,5.0149,5.0345,5.064,5.0345,5.0345,5.064,5.0206,5.0011,5.0011,5.0011,0.0,0.0,0.0,0.0,5.139,5.1977,0.0,5.3667,5.4287,5.4494,5.4494,5.4494,5.4494,5.4494,5.4494,5.4494,5.4494,0.0,0.0,0.0,0.0,0.0,0.0,0.0,0.0,0.0,0.0,0.0,0.0,5.4494,5.4494,5.4494,0.0,5.4494,5.462,5.5104,5.5009,5.5069,5.5332,5.5009,5.4362,5.3685,5.3518,5.3518,5.3518,5.3518,5.3518,5.3518,5.3518,5.3518,5.3518,5.3518,5.3518,5.3518,5.3518,5.3788,5.4363,5.5108,5.5852,5.6596,5.7306,5.7746,5.7881,5.7881,5.7881,5.7881,5.7881,5.7881,5.7881,5.7881,5.7881,5.7881,5.7881,5.7881,5.7881,5.7881,5.7881,5.7881,5.7881,5.7881,5.7881,5.2042,5.1994,5.1897,5.1651,5.1601,5.15,5.1244,5.1398,5.1296,5.0509,5.0149,5.0011,5.0011,5.0011,5.0011,5.0011,5.0011,5.0011,5.0011,5.0011,5.0011,5.0011,5.0011,5.0011,5.0011,5.0263,5.0397,5.0397,5.0397,5.0397,5.0397,5.0092,5.0149,5.0397,5.0092,5.0149,0.0,0.0,5.0218,5.0631,5.1356,0.0,5.3425,5.3804,5.4184,5.4494,5.4494,5.4494,5.4494,5.4494,5.4494,0.0,0.0,5.4494,5.4494,0.0,5.4494,5.4494,0.0,0.0,0.0,5.4494,0.0,0.0,0.0,5.4494,5.4494,5.4494,5.4494,5.462,5.4896,5.5104,5.5249,5.5367,5.5189,5.4887,5.4523,5.398,5.3551,5.3518,5.3518,5.3518,5.3518,5.3518,5.3518,5.3518,5.3518,5.3518,5.3518,5.3518,5.3822,5.4566,5.5344,5.6055,5.6799,5.7509,5.7881,5.7881,5.7881,5.7881,5.7881,5.7881,5.7881,5.7881,5.7881,5.7881,5.7881,5.7881,5.7881,5.7881,5.7881,5.7881,5.7881,5.7881,5.7881,5.7881,5.2672,5.2545,5.2408,5.1946,5.1897,5.175,5.1296,5.1551,5.1398,5.0453,5.032,5.032,5.032,5.032,5.032,5.032,5.032,5.032,5.032,5.032,5.0263,5.0149,5.0263,5.0263,5.0149,5.064,5.0749,5.032,5.0675,5.0564,5.0149,5.0149,5.0397,5.0803,5.0453,5.0564,0.0,0.0,0.0,5.0354,0.0,5.1879,5.3011,5.3287,5.377,5.4322,5.446,5.4494,5.4494,5.4494,5.4494,5.4494,5.4494,5.4494,0.0,0.0,0.0,0.0,0.0,0.0,0.0,0.0,0.0,5.4287,0.0,0.0,0.0,5.4494,0.0,0.0,0.0,0.0,0.0,5.5484,0.0,0.0,0.0,5.4703,0.0,5.3849,5.3618,5.3551,5.3685,5.3551,5.3518,5.3518,5.3518,5.3518,5.3518,5.3518,5.389,5.4769,5.5412,5.6122,5.7002,5.7577,5.7881,5.7881,5.7881,5.7881,5.7881,5.7881,5.7881,5.7881,5.7881,5.7881,5.7881,5.7881,5.7881,5.7881,5.7881,5.7881,5.7881,5.7881,5.7881,5.7881,5.3103,5.3103,5.3103,5.3017,5.3017,5.3017,5.2974,5.2581,5.209,5.15,5.1398,5.1398,0.0,0.0,0.0,0.0,0.0,0.0,5.1398,0.0,5.1228,5.0694,5.114,5.1228,5.0694,5.1244,5.1449,5.1398,5.1017,5.0749,5.0694,5.0694,5.0749,5.0803,5.1192,0.0,0.0,0.0,5.1398,0.0,5.1505,5.1489,0.0,5.2873,5.346,5.3598,5.4287,5.4494,5.4494,0.0,5.4494,5.4494,0.0,5.4494,5.4494,5.4494,0.0,0.0,0.0,0.0,0.0,0.0,5.3011,0.0,0.0,0.0,5.4494,5.4494,0.0,0.0,0.0,0.0,0.0,0.0,0.0,0.0,5.6438,5.5907,5.5449,5.5224,5.4205,5.3717,5.4235,5.3849,5.3518,5.3518,5.3518,5.3518,5.3518,5.3518,5.416,5.5547,5.5683,5.6393,5.7746,5.7848,5.7881,5.7881,5.7881,5.7881,5.7881,5.7881,5.7881,5.7881,5.7881,5.7881,5.7881,5.7881,5.7881,5.7881,5.7881,5.7881,5.7881,5.7881,5.7881,5.7881,5.3225,5.3225,5.3225,5.3225,5.3225,5.3103,5.2761,5.2268,5.1946,5.2042,5.1799,5.1601,0.0,0.0,0.0,0.0,0.0,5.1601,0.0,0.0,5.15,5.1244,5.114,5.1017,5.0803,5.1017,5.0964,5.064,5.0749,5.0803,5.0803,5.0803,5.1087,5.1701,5.1651,0.0,5.2042,0.0,5.1601,0.0,0.0,0.0,0.0,5.2869,5.3524,5.408,5.4391,5.4494,5.4494,0.0,5.4494,0.0,0.0,0.0,0.0,0.0,0.0,0.0,0.0,0.0,0.0,0.0,0.0,0.0,5.2839,0.0,5.3184,0.0,0.0,0.0,0.0,0.0,0.0,0.0,5.7166,0.0,0.0,0.0,5.568,5.5461,0.0,0.0,5.4391,5.3815,5.3518,5.3518,5.3518,5.3518,5.3518,5.3518,5.4194,5.5683,5.5716,5.6427,5.7881,5.7881,5.7881,5.7881,5.7881,5.7881,5.7881,5.7881,5.7881,5.7881,5.7881,5.7881,5.7881,5.7881,5.7881,5.7881,5.7881,5.7881,5.7881,5.7881,5.7881,5.7881,5.3225,0.0,0.0,5.3225,5.3225,5.3017,5.2454,5.2221,5.2126,0.0,0.0,0.0,5.2042,5.2042,0.0,0.0,0.0,5.2042,0.0,0.0,5.1799,0.0,0.0,0.0,0.0,5.1017,5.0749,5.0206,5.0749,5.0964,5.0803,5.1123,5.1651,5.2408,0.0,5.2268,5.259,0.0,0.0,5.2438,5.2978,5.3432,5.3662,5.3564,5.4034,5.4772,5.4957,5.4772,5.4494,5.4683,5.462,0.0,5.4494,0.0,0.0,0.0,0.0,0.0,5.3598,0.0,0.0,0.0,0.0,0.0,0.0,0.0,0.0,0.0,0.0,0.0,0.0,0.0,5.7024,5.6876,0.0,5.7401,0.0,5.6861,0.0,0.0,0.0,0.0,0.0,5.4269,5.3915,5.3783,5.3717,5.3753,5.3788,5.3619,5.4262,5.5953,5.5818,5.6427,5.7881,5.7881,5.7881,5.7881,5.7881,5.7881,5.7881,5.7881,5.7881,5.7881,5.7881,5.7881,5.7881,5.7881,5.7881,5.7881,5.7881,5.7881,5.7881,5.7881,5.7881,5.7881,5.3225,5.3225,0.0,0.0,0.0,5.3017,5.2454,5.2806,0.0,0.0,0.0,0.0,0.0,0.0,0.0,0.0,0.0,5.3182,5.3182,0.0,5.2361,0.0,0.0,5.1551,0.0,0.0,5.1296,5.0749,5.1296,5.1296,5.0803,5.1848,5.2361,5.2408,5.2893,5.3146,5.3146,5.3182,5.3622,5.4319,5.4356,5.493,5.5713,0.0,5.5142,5.5461,5.6055,0.0,0.0,5.5164,5.5018,0.0,0.0,0.0,0.0,0.0,0.0,0.0,0.0,0.0,0.0,5.1356,0.0,0.0,0.0,0.0,5.2218,0.0,0.0,0.0,0.0,0.0,5.6813,5.6777,5.7437,0.0,0.0,0.0,0.0,0.0,0.0,0.0,0.0,5.5343,5.5069,5.4391,5.4391,5.4415,5.4567,5.389,5.4499,5.6697,5.6089,5.6427,5.7881,5.7881,5.7881,5.7881,5.7881,5.7881,5.7881,5.7881,5.7881,5.7881,5.7881,5.7881,5.7881,5.7881,5.7881,5.7881,5.7881,5.7881,5.7881,5.7881,5.7881,5.7881,0.0,0.0,0.0,0.0,0.0,0.0,0.0,5.306,0.0,0.0,0.0,0.0,0.0,0.0,5.3272,0.0,0.0,5.3225,5.3225,5.3017,0.0,0.0,0.0,5.2126,0.0,0.0,0.0,0.0,5.1175,5.1347,5.1848,5.2221,5.259,5.2974,0.0,5.3518,0.0,0.0,0.0,0.0,0.0,5.6511,5.7204,0.0,5.5776,5.5999,5.6221,5.6055,0.0,5.5461,5.5284,5.5018,5.462,5.4494,5.4494,5.4494,5.4494,5.4356,0.0,0.0,5.3322,5.1563,0.0,0.0,0.0,0.0,0.0,0.0,0.0,0.0,0.0,0.0,5.6014,5.6014,5.6675,5.7143,0.0,5.7302,5.7437,0.0,0.0,0.0,0.0,0.0,5.5343,5.5069,5.5069,5.4904,5.4484,5.4658,5.5377,5.6712,5.6987,5.7569,5.8564,5.8564,5.8317,5.7881,5.7881,5.7881,5.7881,5.7881,5.7881,5.7881,5.7881,5.7881,5.7881,5.7881,5.7881,5.7881,5.7881,5.7881,5.7881,5.7881,5.7881,5.7881,5.3261,0.0,0.0,0.0,0.0,0.0,0.0,0.0,0.0,0.0,5.3359,0.0,5.3764,0.0,5.3387,0.0,5.3371,5.3225,5.3225,5.3017,0.0,5.3225,5.2499,0.0,0.0,0.0,0.0,0.0,0.0,5.1701,5.2408,5.2627,5.2996,5.3628,0.0,5.4069,5.484,0.0,5.528,0.0,0.0,5.7556,0.0,0.0,5.6631,5.6599,0.0,5.6652,5.6276,5.6111,5.5716,5.5343,5.4957,5.4683,5.4494,5.4494,5.4494,5.4391,5.3908,5.3942,0.0,5.2287,5.208,0.0,5.0666,0.0,5.0379,0.0,0.0,0.0,0.0,0.0,5.517,5.517,5.6088,5.685,0.0,5.7339,0.0,0.0,0.0,0.0,0.0,5.6257,5.5943,5.5751,5.5751,5.5531,5.5147,5.5327,5.6056,5.7439,5.7682,5.8272,5.9279,5.9279,5.9045,5.8668,5.8388,5.828,5.828,5.8027,5.7881,5.7881,5.7881,5.7881,5.7881,5.7881,5.7881,5.7881,5.7881,5.7881,5.7881,5.7881,5.7881,5.7881,0.0,0.0,0.0,0.0,5.3225,0.0,0.0,0.0,5.3318,0.0,5.3514,5.385,5.4663,5.399,5.376,5.457,5.386,0.0,5.3335,5.2789,0.0,0.0,5.2221,5.1897,5.2408,0.0,0.0,0.0,0.0,0.0,5.2562,5.3047,5.3702,5.4473,5.4473,0.0,5.5647,5.5647,5.6124,5.6932,5.7703,5.7997,5.7997,5.7997,5.7642,5.7216,5.7774,5.7302,5.6438,5.6964,5.6349,5.5484,5.5402,5.5018,5.4557,5.4494,5.4494,5.4494,5.4494,5.4011,5.346,5.3425,5.2839,0.0,0.0,0.0,5.1118,0.0,0.0,0.0,0.0,0.0,5.4363,5.4399,5.5757,5.7079,5.7886,5.7726,5.7583,0.0,0.0,0.0,0.0,5.7188,5.6984,5.6366,5.6366,5.641,0.0,5.5883,5.655,5.8737,5.8167,5.8519,6.003,6.003,6.003,5.9966,5.9314,5.8943,5.8943,5.828,5.7954,5.7954,5.7881,5.7881,5.7881,5.7881,5.7881,5.7881,5.7881,5.7881,5.7881,5.7881,5.7881,5.7881,5.5023,5.4987,5.4803,0.0,5.3592,5.3225,0.0,0.0,0.0,0.0,5.4445,5.4859,5.5636,5.5443,5.5318,5.5496,5.5184,0.0,0.0,0.0,0.0,5.4106,5.3266,5.285,5.3017,5.3034,0.0,5.3681,0.0,0.0,5.4773,5.4319,5.4509,5.528,5.528,5.5721,5.6492,5.6492,5.6969,5.7703,5.7923,5.7997,5.7997,0.0,5.7867,5.7774,5.795,5.7821,5.7498,5.7216,5.6912,5.651,5.5658,5.5284,5.5044,5.462,5.4494,5.4494,5.4494,5.4356,5.408,5.3529,5.3253,5.2908,0.0,0.0,0.0,0.0,0.0,0.0,0.0,0.0,0.0,5.4289,5.5757,5.7033,0.0,0.0,0.0,5.7437,0.0,5.7188,5.7188,5.7188,5.7138,5.6984,5.6984,5.6795,5.6375,5.6674,5.7477,5.8685,5.9076,5.9752,6.0711,6.0711,6.0468,5.9966,5.9838,5.9709,5.9709,5.8977,5.8633,5.8633,5.8137,5.7881,5.7881,5.7881,5.7881,5.7881,5.7881,5.7881,5.7881,5.7881,5.7881,5.7881,5.5822,0.0,0.0,5.5159,0.0,0.0,5.3897,0.0,0.0,5.518,5.5336,0.0,5.6529,5.6265,5.6108,5.6436,5.5975,0.0,0.0,0.0,0.0,5.4913,5.4473,5.4252,5.4252,5.4391,0.0,5.4913,0.0,0.0,5.5574,5.5133,5.5354,5.6124,5.6124,5.6565,5.7336,5.7336,5.7593,5.7997,5.7997,5.7997,0.0,5.7997,5.7997,5.7997,5.7997,5.7997,5.795,5.7594,5.7351,5.7015,5.6349,5.583,5.5343,5.5018,5.4745,5.4494,5.4494,5.4494,5.4425,5.3977,5.3873,5.3701,5.2908,5.2943,5.3021,0.0,5.3191,5.3639,0.0,0.0,0.0,0.0,0.0,0.0,0.0,0.0,0.0,0.0,5.7338,5.7239,5.7188,5.7188,5.7188,5.7188,5.7188,5.7036,5.6688,5.7119,5.7729,5.852,5.931,6.01,6.0891,6.125,6.1257,6.0867,6.059,6.0406,6.0406,5.9674,5.9212,5.8909,5.8528,5.8137,5.7881,5.7881,5.7881,5.7881,5.7881,5.7881,5.7881,5.7881,5.7881,5.7881,0.0,0.0,0.0,0.0,0.0,0.0,0.0,5.5507,0.0,5.6066,0.0,5.6566,5.7381,5.6825,5.6677,5.7381,0.0,5.6172,5.6123,5.6049,5.5889,5.5802,5.5647,5.5574,5.5574,5.5684,0.0,0.0,0.0,0.0,5.5904,5.5794,5.6198,5.6969,5.6969,0.0,0.0,5.7997,5.7997,5.7997,5.7997,5.7997,5.7997,5.7997,5.7997,5.7997,5.7997,5.7997,5.7997,5.7997,5.7642,5.7216,5.7116,5.6403,5.5601,5.5461,5.5018,5.462,5.4494,5.4494,5.4494,5.4494,5.4494,5.4356,5.3701,5.3948,5.4275,5.41,5.4525,5.5062,5.5485,0.0,0.0,0.0,0.0,0.0,0.0,0.0,0.0,0.0,0.0,0.0,5.7239,5.7188,5.7188,5.7188,5.7188,5.7188,5.7188,0.0,5.755,5.8383,5.918,6.0013,6.081,6.1607,6.2005,6.2005,6.143,6.1104,6.1104,6.0406,5.9774,5.9145,5.8943,5.8564,5.8027,5.7954,5.7881,5.7881,5.7881,5.7881,5.7881,5.7881,5.7881,5.7881,0.0,0.0,0.0,0.0,0.0,5.7783,5.6932,5.6376,5.6307,5.6973,5.7167,5.7542,5.8359,5.8238,5.8159,5.827,5.811,0.0,0.0,0.0,0.0,5.6735,5.5985,5.5574,5.5574,5.6235,5.6602,0.0,0.0,5.6932,5.7556,5.6895,5.7005,5.7776,0.0,0.0,5.7997,5.7997,0.0,5.7997,5.7997,5.7997,5.7997,5.7997,5.7997,5.7997,5.7997,5.7997,5.7997,5.7997,5.795,5.7774,5.7266,5.6964,5.6616,5.5658,5.5343,5.5104,5.462,5.4494,5.4494,5.4494,5.4494,5.4494,5.4356,5.4748,5.512,5.4901,5.5302,5.5668,5.5595,0.0,0.0,0.0,0.0,0.0,0.0,0.0,0.0,0.0,0.0,5.7388,5.7338,5.7239,5.7188,5.7188,5.7188,5.7188,5.7188,0.0,5.755,0.0,5.918,6.0013,0.0,0.0,6.2005,6.2005,6.1895,6.1804,6.1804,6.1104,6.0772,6.059,5.9412,5.8841,5.8703,5.8137,5.7881,5.7881,5.7881,5.7881,5.7881,5.7881,5.7881,5.7881,0.0,0.0,0.0,0.0,0.0,0.0,0.0,5.8688,0.0,5.7974,5.7979,5.8169,5.8577,5.8614,5.8614,5.8614,5.8572,5.8523,5.8443,5.8024,5.7671,5.7626,5.7132,0.0,5.6822,5.7226,5.7409,5.7409,0.0,5.7629,5.7997,5.7593,5.7629,5.7997,0.0,5.7997,0.0,0.0,0.0,5.7997,5.7997,5.7997,5.7997,5.7997,5.7997,5.7997,5.7997,5.7997,5.7997,5.7997,5.7997,5.795,5.7679,5.7315,5.6964,5.6111,5.5658,5.5284,5.4683,5.4494,5.4494,5.4494,5.4494,5.4494,5.4494,5.5224,5.5836,5.5757,5.6386,5.6948,5.685,5.7152,0.0,0.0,0.0,0.0,0.0,0.0,5.7904,0.0,0.0,0.0,0.0,5.7437,0.0,0.0,0.0,5.7188,5.7188,0.0,5.7369,0.0,0.0,0.0,6.0194,0.0,6.2005,6.2005,6.2005,6.2005,6.2005,6.1692,6.1315,6.0986,6.0246,5.9543,5.8841,5.8209,5.7881,5.7881,5.7881,5.7881,5.7881,5.7881,5.7881,5.7881,0.0,5.9022,0.0,0.0,5.969,0.0,6.0141,6.0778,6.0698,5.9276,5.9091,5.9091,5.9091,5.9176,5.9181,5.8995,5.8958,5.8842,5.8572,5.8443,5.8349,5.826,5.8088,5.7997,5.7997,5.7997,5.7997,0.0,0.0,0.0,5.7997,5.7997,5.7997,5.7997,0.0,0.0,0.0,0.0,5.7997,5.7997,5.7997,5.7997,5.7997,5.7997,5.7997,5.7997,5.7997,5.7997,5.7997,5.7997,5.7997,5.7997,5.7997,5.7642,5.7166,5.6652,5.6055,5.5461,5.4834,5.462,5.4494,5.4494,5.4494,5.4494,5.4494,5.5461,5.6276,5.6276,5.7202,5.7997,5.7997,5.7997,0.0,0.0,0.0,0.0,0.0,0.0,0.0,0.0,0.0,0.0,5.7631,5.7583,0.0,0.0,0.0,0.0,5.7188,0.0,0.0,0.0,0.0,5.9615,5.9615,0.0,6.2005,6.2005,6.2005,6.2005,6.2005,6.2005,6.1692,6.1163,6.1045,6.0184,5.8841,5.8317,5.8027,5.7881,5.7881,5.7881,5.7881,5.7881,5.7881,5.7881,0.0,0.0,0.0,0.0,0.0,0.0,6.1076,6.115,6.115,6.1001,6.0964,6.0964,6.0964,6.0964,6.0667,5.9887,5.9812,5.9478,5.8693,5.8523,5.8393,5.8393,5.8133,5.7997,5.7997,5.7997,5.7997,0.0,0.0,5.7997,5.7997,5.7997,5.7997,5.7997,0.0,0.0,0.0,5.7997,5.7997,5.7997,5.7997,5.7997,5.7997,5.7997,5.7997,5.7997,5.7997,5.7997,5.7997,5.7997,5.7997,5.7997,5.7997,5.795,5.7774,5.7216,5.6652,5.6111,5.5519,5.4896,5.4494,5.4494,5.4494,5.4494,5.4494,5.5461,5.6276,5.6276,5.7202,5.7997,5.7997,5.7997,5.7997,0.0,0.0,0.0,0.0,0.0,5.7997,5.7997,0.0,0.0,5.781,5.7679,0.0,0.0,5.7388,0.0,0.0,0.0,0.0,5.7188,5.8746,5.9615,5.9615,6.1208,6.2005,6.2005,6.2005,6.2005,6.2005,6.2005,6.195,6.1895,6.1221,6.0184,5.8909,5.8841,5.8458,5.7881,5.7881,5.7881,5.7881,5.7881,5.7881,5.7881,0.0,0.0,0.0,0.0,0.0,0.0,0.0,6.2339,6.2636,6.2636,6.1819,6.1187,6.1187,6.1187,6.1076,6.0704,6.0704,6.0333,5.9478,5.9307,5.8998,5.843,5.8215,5.8088,5.7997,5.7997,5.7997,0.0,0.0,0.0,0.0,5.7997,5.7997,5.7997,0.0,5.7997,5.7997,5.7997,5.7997,5.7997,5.7997,5.7997,5.7997,5.7997,5.7997,5.7997,5.7997,5.7997,5.7997,5.7997,5.7997,5.7997,5.7997,5.7997,5.7867,5.7266,5.6964,5.6652,5.6111,5.5773,5.5484,5.5104,5.5079,5.4957,5.4557,5.5164,5.5887,5.6221,5.7202,5.8143,5.8621,5.8327,5.8143,5.8657,0.0,0.0,0.0,0.0,0.0,5.7997,0.0,5.7904,5.7904,5.7904,5.7763,0.0,0.0,0.0,0.0,0.0,0.0,5.7289,0.0,5.9615,5.9615,6.1208,6.2005,6.2005,6.2005,6.2005,6.2005,6.2005,6.2005,6.195,6.1315,6.0651,6.0058,5.9212,5.8772,5.8458,5.8099,5.7881,5.7881,5.7881,5.7881,5.7881,6.1558,0.0,6.193,0.0,6.2376,6.2747,6.2747,6.323,6.3602,6.3602,6.2636,6.193,6.193,6.193,6.1819,6.1558,6.1558,6.1187,6.0333,6.0166,5.9856,5.9176,5.8829,0.0,5.841,5.8153,5.8153,5.8364,5.8364,0.0,0.0,0.0,0.0,0.0,5.8694,5.8584,5.8364,5.8364,5.8217,5.7997,5.7997,5.7997,5.7997,5.7997,5.7997,5.7997,5.7997,5.7997,5.7997,5.7997,5.7997,5.7997,5.7997,5.7997,5.795,5.7498,5.7216,5.7015,5.6652,5.6438,5.6221,5.5773,5.5484,5.5284,5.4834,5.5224,5.5887,5.6652,5.7449,5.818,5.8767,5.8584,5.8547,5.9134,0.0,0.0,0.0,5.8143,0.0,5.7997,5.7997,5.7997,5.7997,5.7997,0.0,0.0,0.0,0.0,0.0,0.0,0.0,0.0,0.0,0.0,5.9667,6.1208,6.2005,6.2005,6.2005,6.2005,6.2005,6.2005,6.2005,6.195,6.1487,6.1163,6.0891,5.9931,5.9279,5.8841,5.8388,5.8065,5.7881,5.7881,5.7881,5.7881,6.2413,6.3044,6.3565,6.3565,6.3602,6.3602,6.3602,6.3602,6.3602,6.3602,6.3602,6.3565,6.3565,6.3565,6.3267,6.245,6.2413,6.2041,6.1261,6.1056,6.0974,0.0,0.0,5.953,5.9394,5.8584,5.8538,5.9208,0.0,0.0,6.0382,0.0,6.0382,6.0382,6.0382,5.9942,5.9208,5.9208,5.8731,5.7997,5.7997,5.7997,5.7997,5.7997,5.7997,5.7997,5.7997,5.7997,5.7997,5.7997,5.7997,5.7997,5.7997,5.7997,5.7997,5.7997,5.7546,5.7116,5.7116,5.6704,5.6276,5.6276,5.583,5.5402,5.5402,5.583,5.6599,5.7726,5.7997,5.7997,5.7997,5.8657,5.9208,5.9208,0.0,0.0,0.0,5.851,0.0,5.7997,5.7997,5.7997,5.7997,5.7997,0.0,0.0,0.0,0.0,0.0,0.0,0.0,5.7583,5.9037,0.0,5.9823,6.1262,6.2005,6.2005,6.2005,6.2005,6.2005,6.2005,6.2005,6.2005,6.2005,6.1636,6.0986,6.0986,6.0121,5.8909,5.8909,5.8458,5.7881,5.7881,5.7881,5.7881,6.323,6.3416,6.3602,6.3602,6.3602,6.3602,6.3602,6.3602,6.3602,6.3602,6.3602,6.3602,6.3602,6.3602,6.3527,0.0,6.323,6.2896,0.0,6.196,6.1656,6.1011,6.1226,6.1328,6.1191,6.1486,6.1439,6.0967,0.0,0.0,0.0,6.0419,6.0419,6.0419,6.0419,6.0272,6.0015,6.0015,5.9869,5.9648,5.9648,5.9942,6.0456,6.0456,6.0786,6.1263,6.1263,6.1263,6.1263,6.1263,6.0896,6.0346,5.9795,5.8877,5.7997,5.7997,5.7867,5.7726,5.7726,5.7594,5.7351,5.6964,5.6668,5.6456,5.6111,5.6438,5.6964,5.7315,5.7726,5.818,5.8731,5.8584,5.8731,5.9832,5.9575,0.0,5.9208,0.0,5.8621,5.807,5.7997,5.7997,5.7997,5.7997,0.0,0.0,0.0,0.0,0.0,0.0,0.0,0.0,5.9088,0.0,5.9823,6.1262,6.2005,6.2005,6.2005,6.2005,6.2005,6.2005,6.2005,6.2005,6.2005,6.1895,6.1636,6.1163,6.0711,6.0246,5.9279,5.8772,5.8528,5.8065,5.7881,5.7881,6.4048,6.3825,6.3602,6.3602,6.3602,6.3602,6.3602,6.3602,6.3602,6.3602,6.3602,6.3602,6.3602,6.3602,0.0,6.3602,6.3602,6.3416,6.2896,6.2859,6.2703,6.2472,6.2613,6.2789,6.303,6.3252,0.0,6.2804,6.3088,6.288,6.2254,6.1924,6.1777,6.1777,6.1777,6.1594,6.1337,6.1667,6.1594,6.13,6.13,6.1594,6.2034,6.2034,6.2365,6.2805,6.2805,6.2805,6.2805,6.2805,6.2475,6.1961,6.1484,6.0603,5.9575,5.8364,5.7997,5.7997,5.7997,5.7997,5.7904,5.7546,5.7266,5.7015,5.6704,5.6861,5.7166,5.7401,5.7726,5.8143,5.8657,5.8584,5.8877,6.0199,5.9979,5.9758,6.0052,5.9612,5.9024,5.851,5.818,5.7997,5.7997,5.7997,5.795,0.0,0.0,0.0,0.0,0.0,5.781,5.7904,5.92,5.9925,5.9874,6.1369,6.206,6.2005,6.2005,6.2005,6.2005,6.2005,6.2005,6.2005,6.2005,6.2005,6.195,6.1544,6.1257,6.0927,5.9739,5.9145,5.8841,5.8137,5.7881,5.7881,6.4902,6.4308,6.3788,0.0,6.3788,6.375,6.3713,6.3676,6.3676,6.3602,6.3602,6.3602,6.3602,6.3602,6.3602,6.3602,0.0,0.0,6.3676,6.375,6.4122,6.4865,6.4233,6.4188,6.4874,6.4123,6.4039,6.4683,6.5188,6.5455,6.5301,6.453,6.4163,6.4163,6.4163,6.3723,6.3025,6.3833,6.3723,6.2989,6.2989,6.3025,6.3062,6.3062,6.3099,6.3135,6.3135,6.3135,6.3135,6.3135,6.3099,6.3062,6.2989,6.2952,6.2291,5.9098,5.818,5.8143,5.8033,5.7997,5.7997,5.7997,5.7546,5.7166,5.7166,5.7166,5.7315,5.7867,5.7997,5.7997,5.7997,5.8621,5.9391,6.0199,6.0382,6.0676,6.141,6.0272,5.9355,5.9318,0.0,0.0,5.807,5.8033,5.7997,0.0,0.0,0.0,0.0,0.0,5.8033,5.807,5.9432,6.0176,6.0099,6.1475,6.2168,6.2005,6.2005,6.2005,6.2005,6.2005,6.2005,6.2005,6.2005,6.2005,6.2005,6.2005,6.1636,6.0986,6.0344,5.9644,5.8909,5.8209,5.7954,5.7881,0.0,0.0,6.5534,6.5534,6.5534,6.5274,6.4642,6.4531,6.4308,6.3676,6.3602,6.3602,6.3602,6.3602,6.3602,6.3602,6.4159,6.4531,6.4531,6.5162,6.5608,6.5794,6.6202,6.6537,6.6675,6.7083,6.6987,6.6297,6.5741,6.5455,6.5301,6.5118,6.5007,6.5007,6.5007,6.4897,6.4714,6.4934,6.4897,6.4714,6.4714,6.5081,6.5632,6.5632,6.5999,6.6549,6.6549,6.6549,6.6549,6.6549,6.6109,6.5521,6.4897,6.431,6.3282,6.0603,5.9832,5.9575,5.8327,5.7997,5.7997,5.7997,5.7867,5.7774,5.7774,5.7774,5.7821,5.7997,5.7997,5.7997,5.7997,5.8143,5.8547,5.9355,6.0015,6.0456,6.0676,6.0896,6.0786,0.0,5.9428,5.8914,5.8914,5.8364,5.7997,0.0,0.0,5.7997,5.7997,5.7997,5.829,5.8914,5.9725,6.0432,6.0901,6.1766,6.2168,6.2005,6.2005,6.2005,6.2005,6.2005,6.2005,6.2005,6.2005,6.2005,6.2005,6.2005,6.1895,6.1692,6.1045,6.0344,5.9644,5.8909,5.8317,5.7881,6.6648,6.6351,6.6091,6.6091,6.6091,6.5942,6.5496,6.5385,6.5236,6.4791,6.4419,6.4159,6.4159,6.3825,6.3602,6.3602,6.4345,6.4828,6.4828,6.5645,6.6277,6.6648,6.7094,6.7465,6.7837,6.8283,6.8185,6.7543,6.6948,6.6625,6.647,6.6088,6.5852,6.5852,6.5852,6.5852,6.5888,6.6256,6.6402,6.6402,6.6402,6.6659,6.7026,6.7026,6.732,6.7687,6.7687,6.7687,6.7687,6.7687,6.7393,6.6953,6.6512,6.6109,6.5338,6.3246,6.1851,6.0676,5.9428,5.8841,5.8474,5.8107,5.7997,5.7997,5.7997,5.7997,5.7997,5.7997,5.7997,5.7997,5.7997,5.7997,5.8253,5.9098,5.9905,6.0529,6.0896,6.13,6.1447,6.1006,6.0236,5.9758,5.9758,5.9024,5.8547,5.8547,5.8217,0.0,5.7997,5.7997,5.8364,5.9171,5.9883,6.0591,6.1193,6.1785,6.206,6.2005,6.2005,6.2005,6.2005,6.2005,6.2005,6.2005,6.2005,6.2005,6.2005,6.2005,6.2005,6.195,6.1257,6.059,5.9902,5.9145,5.8458,5.7881,6.7503,6.6945,6.6462,6.6462,6.6462,6.6425,6.6314,6.6277,6.6239,6.6128,6.5459,6.5013,6.5013,6.4419,6.3936,6.3788,6.4531,6.5013,6.5013,6.5794,6.6648,6.7465,6.7503,6.78,6.8506,6.8506,6.8408,6.8309,6.8158,6.8018,6.7863,6.7043,6.6659,6.6659,6.6659,6.6659,6.6733,6.7393,6.7687,6.7687,6.7687,6.7687,6.7687,6.7687,6.7687,6.7687,6.7687,6.7687,6.7687,6.7687,6.7687,6.7687,6.7687,6.7687,6.743,6.6072,6.409,6.2071,6.0896,5.9905,5.9061,5.8364,5.8107,5.7997,5.7997,5.7997,5.7997,5.7997,5.7997,5.7997,5.7997,5.7997,5.8217,5.8914,5.9795,6.0639,6.13,0.0,6.1777,6.1777,6.108,6.0566,6.0566,5.9869,5.9391,5.9391,5.8767,5.8327,5.818,5.818,5.8547,5.9391,6.0052,6.0713,6.1375,6.1805,6.2005,6.2005,6.2005,6.2005,6.2005,6.2005,6.2005,6.2005,6.2005,6.2005,6.2005,6.2005,6.2005,6.195,6.1372,6.0711,6.0093,5.9346,5.8668,5.8027,6.832,6.8208,6.8134,6.8134,6.8134,6.7911,6.7243,6.7131,6.6871,6.6202,6.5979,6.5905,6.5905,6.5794,6.5422,6.4679,6.5422,6.5905,6.5905,6.6685,6.7465,6.8283,6.832,6.8394,6.8506,6.8506,6.8408,6.8309,6.8158,6.8018,6.7863,6.7594,6.7504,6.7504,6.7504,6.7504,6.7504,6.765,6.7687,6.7687,6.7687,6.7687,6.7687,6.7687,6.7687,6.7687,6.7687,6.7687,6.7687,6.7687,6.7687,6.7687,6.7687,6.7687,6.765,6.7393,6.6549,6.5118,6.2181,6.0346,5.9171,5.9061,5.851,5.7997,5.7997,5.7997,5.7997,5.7997,5.7997,5.7997,5.7997,5.7997,5.8033,5.818,5.9428,6.0456,6.0566,0.0,6.2622,6.2622,6.1887,6.141,6.141,6.0676,6.0236,6.0236,6.0089,5.9722,5.9061,5.9024,5.9391,6.0199,6.0346,6.097,6.2214,6.2202,6.2114,6.2005,6.2005,6.2005,6.2005,6.2005,6.2005,6.2005,6.2005,6.2005,6.2005,6.2005,6.2005,6.2005,6.1895,6.143,6.0772,6.0093,5.938,5.8633,6.8506,6.8506,6.8506,6.8506,6.8506,6.8394,6.8023,6.7948,6.7837,6.7465,6.702,6.676,6.676,6.6351,6.5942,6.5534,6.5868,6.6091,6.6091,6.6871,6.7688,6.8468,6.8506,6.8506,6.8506,6.8506,6.8457,6.8408,6.8259,6.8158,6.7967,6.7899,6.7794,6.7687,6.7687,6.7687,6.7687,6.7687,6.7687,6.7687,6.7687,6.7687,6.7687,6.7687,6.7687,6.7687,6.7687,6.7687,6.7687,6.7687,6.7687,6.7687,6.7687,6.7687,6.7687,6.7687,6.6806,6.5338,6.2915,6.141,6.0382,5.9942,5.9245,5.8657,5.8657,5.8327,5.7997,5.7997,5.7997,5.7997,5.7997,5.7997,5.7997,5.7997,5.9355,6.0419,6.0419,6.1814,6.2805,6.2805,6.2475,6.2254,6.2254,6.152,6.1043,6.1043,6.0639,6.0052,5.9245,5.9208,5.9391,5.9758,6.0909,6.1871,6.2397,6.2238,6.2168,6.2005,6.2005,6.2005,6.2005,6.2005,6.2005,6.2005,6.2005,6.2005,6.2005,6.2005,6.2005,6.2005,6.2005,6.1579,6.0927,6.0219,5.9513,5.8841,6.8506,6.8506,6.8506,6.8506,6.8506,6.8506,6.8506,6.8506,6.8506,6.8506,6.7986,6.7577,6.7577,6.7057,6.6574,6.6425,6.6388,6.6388,6.6388,6.6982,6.7577,6.8208,6.8431,6.8506,6.8506,6.8506,6.8506,6.8506,6.8358,6.8259,6.8121,6.8004,6.7899,6.7741,6.7741,6.7741,6.7687,6.7687,6.7687,6.7687,6.7687,6.7687,6.7687,6.7687,6.7687,6.7687,6.7687,6.7687,6.7687,6.7687,6.7687,6.7687,6.7687,6.7687,6.7687,6.7687,6.6843,6.5521,6.3833,6.2658,6.1704,6.0896,6.0089,5.9501,5.9501,5.8877,5.829,5.829,5.8143,5.7997,5.7997,5.7997,5.7997,5.7997,0.0,6.0419,6.0419,6.1814,6.2805,6.2805,6.2805,6.2805,6.2805,6.2254,6.1887,6.1887,6.13,6.0529,5.9538,5.9501,5.9501,5.9501,6.1349,6.226,6.2141,6.2219,6.2168,6.2005,6.2005,6.2005,6.2005,6.2005,6.2005,6.2005,6.2005,6.2005,6.2005,6.2005,6.2005,6.2005,6.2005,6.1692,6.1163,6.0468,5.9774,5.9045,6.8506,6.8506,6.8506,6.8506,6.8506,6.8506,6.8506,6.8506,6.8506,6.8506,6.8468,6.8431,6.8431,6.8357,6.8023,6.728,6.7205,6.7205,6.7205,6.728,6.7354,6.7391,6.8097,6.8506,6.8506,6.8506,6.8506,6.8506,6.8358,6.8309,6.8259,6.8158,6.8018,6.7899,6.7899,6.7847,6.7687,6.7687,6.7687,6.7687,6.7687,6.7687,6.7687,6.7687,6.7687,6.7687,6.7687,6.7687,6.7687,6.7687,6.7687,6.7687,6.7687,6.7687,6.7687,6.7687,6.7614,6.7173,6.5558,6.3943,6.2511,6.1704,6.0896,6.0309,6.0309,5.9685,5.9134,5.9134,5.851,5.7997,5.7997,5.7997,5.7997,5.7997,0.0,0.0,6.0419,6.1814,6.2805,6.2805,6.2805,6.2805,6.2805,6.2768,6.2732,6.2732,6.2658,6.1961,6.0382,6.0309,6.0309,6.0309,6.119,6.1519,6.1303,6.2032,6.2275,6.2005,6.2005,6.2005,6.2005,6.2005,6.2005,6.2005,6.2005,6.2005,6.2005,6.2005,6.2005,6.2005,6.2005,6.195,6.184,6.1163,6.0468,5.9838,6.8506,6.8506,6.8506,6.8506,6.8506,6.8506,6.8506,6.8506,6.8506,6.8506,6.8506,6.8506,6.8506,6.8506,6.8394,6.8097,6.806,6.7837,6.7354,6.78,6.806,6.806,6.8357,6.8506,6.8506,6.8506,6.8506,6.8506,6.8457,6.8358,6.8309,6.8259,6.8107,6.7899,6.7899,6.7847,6.7687,6.7687,6.7687,6.7687,6.7687,6.7687,6.7687,6.7687,6.7687,6.7687,6.7687,6.7687,6.7687,6.7687,6.7687,6.7687,6.7687,6.7687,6.7687,6.7687,6.7687,6.7467,6.6366,6.5228,6.4163,6.3356,6.2144,6.1153,6.1153,6.0529,5.9942,5.9942,5.9318,5.8767,5.8767,5.8327,5.7997,5.7997,0.0,6.0419,6.0419,6.1814,6.2805,6.2805,6.2805,6.2805,6.2805,6.2805,6.2805,6.2805,6.2805,6.2108,6.0493,5.9942,5.9685,5.9685,6.0836,6.1652,6.1959,6.2251,6.2275,6.2005,6.2005,6.2005,6.2005,6.2005,6.2005,6.2005,6.2005,6.2005,6.2005,6.2005,6.2005,6.2005,6.2005,6.2005,6.1895,6.1257,6.059,5.9902,6.8506,6.8506,6.8506,6.8506,6.8506,6.8506,6.8506,6.8506,6.8506,6.8506,6.8506,6.8506,6.8506,6.8506,6.8506,6.8506,6.8506,6.8283,6.7725,6.8208,6.8506,6.8506,6.8506,6.8506,6.8506,6.8506,6.8506,6.8506,6.8506,6.8457,6.8358,6.8358,6.8208,6.7967,6.8004,6.7899,6.7687,6.7741,6.7741,6.7687,6.7687,6.7687,6.7687,6.7687,6.7687,6.7687,6.7687,6.7687,6.7687,6.7687,6.7687,6.7687,6.7687,6.7687,6.7687,6.7687,6.7687,6.7577,6.7026,6.6292,6.5411,6.4347,6.3025,6.1998,6.1998,6.1337,6.0786,6.0786,6.0162,5.9612,5.9612,5.9134,5.8731,5.8731,5.9905,6.0786,6.0786,6.1961,6.2805,6.2805,6.2805,6.2805,6.2805,6.2805,6.2805,6.2805,6.2805,6.2218,6.086,6.0015,5.9637,5.9846,6.0896,6.1697,6.2344,6.2381,6.2222,6.2005,6.2005,6.2005,6.2005,6.2005,6.2005,6.2005,6.2005,6.2005,6.2005,6.2005,6.2005,6.2005,6.2005,6.2005,6.195,6.1487,6.0867,6.0219,6.8506,6.8506,6.8506,6.8506,6.8506,6.8506,6.8506,6.8506,6.8506,6.8506,6.8506,6.8506,6.8506,6.8506,6.8506,6.8506,6.8506,6.8506,6.8506,6.8506,6.8506,6.8506,6.8506,6.8506,6.8506,6.8506,6.8506,6.8506,6.8506,6.8506,6.8506,6.8506,6.8358,6.807,6.8259,6.8055,6.7687,6.7847,6.7847,6.7687,6.7687,6.7687,6.7687,6.7687,6.7687,6.7687,6.7687,6.7687,6.7687,6.7687,6.7687,6.7687,6.7687,6.7687,6.7687,6.7687,6.7687,6.7687,6.7687,6.71,6.6109,6.4494,6.3466,6.2805,6.2805,6.2181,6.1594,6.1594,6.097,6.0419,6.0419,6.0419,6.0419,6.0419,6.108,6.1594,6.1594,6.2291,6.2805,6.2805,6.2805,6.2805,6.2805,6.2805,6.2805,6.2805,6.2805,6.2438,6.163,6.086,6.0738,6.1396,6.1432,6.1646,6.2185,6.2185,6.2168,6.2005,6.2005,6.2005,6.2005,6.2005,6.2005,6.2005,6.2005,6.2005,6.2005,6.2005,6.2005,6.2005,6.2005,6.2005,6.2005,6.2005,6.1579,6.0927,6.8506,6.8506,6.8506,6.8506,6.8506,6.8506,6.8506,6.8506,6.8506,6.8506,6.8506,6.8506,6.8506,6.8506,6.8506,6.8506,6.8506,6.8506,6.8506,6.8506,6.8506,6.8506,6.8506,6.8506,6.8506,6.8506,6.8506,6.8506,6.8506,6.8506,6.8506,6.8506,6.8408,6.8259,6.8259,6.8107,6.7847,6.7899,6.7847,6.7687,6.7687,6.7687,6.7687,6.7687,6.7687,6.7687,6.7687,6.7687,6.7687,6.7687,6.7687,6.7687,6.7687,6.7687,6.7687,6.7687,6.7687,6.7687,6.7687,6.71,6.6256,6.5191,6.431,6.3539,6.2952,6.2622,6.2438,6.2438,6.1814,6.1227,6.1227,6.0786,6.0419,6.0419,6.108,6.1594,6.1594,6.2291,6.2805,6.2805,6.2805,6.2805,6.2805,6.2805,6.2805,6.2805,6.2291,6.1851,6.1594,6.1374,6.1288,6.1396,6.188,6.2126,6.2185,6.2185,6.2168,6.2005,6.2005,6.2005,6.2005,6.2005,6.2005,6.2005,6.2005,6.2005,6.2005,6.2005,6.2005,6.2005,6.2005,6.2005,6.2005,6.2005,6.1579,6.0927,6.8506,6.8506,6.8506,6.8506,6.8506,6.8506,6.8506,6.8506,6.8506,6.8506,6.8506,6.8506,6.8506,6.8506,6.8506,6.8506,6.8506,6.8506,6.8506,6.8506,6.8506,6.8506,6.8506,6.8506,6.8506,6.8506,6.8506,6.8506,6.8506,6.8506,6.8506,6.8506,6.8408,6.8309,6.8358,6.8208,6.7899,6.7952,6.7899,6.7687,6.7687,6.7687,6.7687,6.7687,6.7687,6.7687,6.7687,6.7687,6.7687,6.7687,6.7687,6.7687,6.7687,6.7687,6.7687,6.7687,6.7687,6.7687,6.7687,6.732,6.6769,6.5999,6.4934,6.387,6.3025,6.2805,6.2805,6.2805,6.2401,6.2071,6.2071,6.1704,6.1374,6.1374,6.1777,6.2071,6.2071,6.2511,6.2805,6.2805,6.2805,6.2805,6.2805,6.2805,6.2805,6.2805,6.2365,6.2071,6.2071,6.2022,6.1922,6.1806,6.2178,6.2275,6.2114,6.2114,6.206,6.2005,6.2005,6.2005,6.2005,6.2005,6.2005,6.2005,6.2005,6.2005,6.2005,6.2005,6.2005,6.2005,6.2005,6.2005,6.2005,6.2005,6.1748,6.1315,6.8506,6.8506,6.8506,6.8506,6.8506,6.8506,6.8506,6.8506,6.8506,6.8506,6.8506,6.8506,6.8506,6.8506,6.8506,6.8506,6.8506,6.8506,6.8506,6.8506,6.8506,6.8506,6.8506,6.8506,6.8506,6.8506,6.8506,6.8506,6.8506,6.8506,6.8506,6.8506,6.8408,6.8309,6.8457,6.8309,6.7952,6.8055,6.7952,6.7687,6.7687,6.7687,6.7687,6.7687,6.7687,6.7687,6.7687,6.7687,6.7687,6.7687,6.7687,6.7687,6.7687,6.7687,6.7687,6.7687,6.7687,6.7687,6.7687,6.7687,6.7504,6.6696,6.5338,6.398,6.3135,6.2879,6.2805,6.2805,6.2805,6.2805,6.2805,6.2805,6.2805,6.2805,6.2805,6.2805,6.2805,6.2805,6.2805,6.2805,6.2805,6.2805,6.2805,6.2805,6.2805,6.2805,6.2805,6.2805,6.2805,6.2654,6.2552,6.2397,6.2238,6.2168,6.2005,6.2005,6.2005,6.2005,6.2005,6.2005,6.2005,6.2005,6.2005,6.2005,6.2005,6.2005,6.2005,6.2005,6.2005,6.2005,6.2005,6.2005,6.2005,6.2005,6.2005,6.1895,6.8506,6.8506,6.8506,6.8506,6.8506,6.8506,6.8506,6.8506,6.8506,6.8506,6.8506,6.8506,6.8506,6.8506,6.8506,6.8506,6.8506,6.8506,6.8506,6.8506,6.8506,6.8506,6.8506,6.8506,6.8506,6.8506,6.8506,6.8506,6.8506,6.8506,6.8506,6.8506,6.8457,6.8457,6.8457,6.8358,6.8018,6.807,6.7952,6.7687,6.7687,6.7687,6.7687,6.7687,6.7687,6.7687,6.7687,6.7687,6.7687,6.7687,6.7687,6.7687,6.7687,6.7687,6.7687,6.7687,6.7687,6.7687,6.7687,6.7687,6.7504,6.6696,6.5778,6.4824,6.4016,6.3282,6.2805,6.2805,6.2805,6.2805,6.2805,6.2805,6.2805,6.2805,6.2805,6.2805,6.2805,6.2805,6.2805,6.2805,6.2805,6.2805,6.2805,6.2805,6.2805,6.2805,6.2805,6.2805,6.2805,6.2654,6.2552,6.2397,6.2238,6.2168,6.2005,6.2005,6.2005,6.2005,6.2005,6.2005,6.2005,6.2005,6.2005,6.2005,6.2005,6.2005,6.2005,6.2005,6.2005,6.2005,6.2005,6.2005,6.2005,6.2005,6.2005,6.184,6.8506,6.8506,6.8506,6.8506,6.8506,6.8506,6.8506,6.8506,6.8506,6.8506,6.8506,6.8506,6.8506,6.8506,6.8602,6.8763,6.8952,6.9085,6.9085,6.9085,6.8997,6.8809,6.8809,6.8707,6.8506,6.8506,6.8506,6.8506,6.8506,6.8506,6.8506,6.8506,6.8506,6.8506,6.8506,6.8408,6.8208,6.8158,6.7967,6.7794,6.7741,6.7687,6.7687,6.7687,6.7687,6.7687,6.7687,6.7687,6.7687,6.7687,6.7687,6.7687,6.7687,6.7687,6.7687,6.7687,6.7687,6.7687,6.7687,6.7687,6.7577,6.7173,6.6182,6.5081,6.4273,6.3429,6.2805,6.2805,6.2805,6.2805,6.2805,6.2805,6.2805,6.2805,6.2805,6.2805,6.2805,6.2805,6.2805,6.2805,6.2805,6.2805,6.2805,6.2805,6.2805,6.2805,6.2805,6.2755,6.2705,6.2552,6.2449,6.2291,6.2168,6.206,6.2005,6.2005,6.2005,6.2005,6.2005,6.2005,6.2005,6.2005,6.2005,6.2005,6.2005,6.2005,6.2005,6.2005,6.2005,6.2005,6.2005,6.2005,6.2005,6.2005,6.2005,6.184,6.8506,6.8506,6.8506,6.8506,6.8506,6.8506,6.8506,6.8506,6.8506,6.8506,6.8506,6.8506,6.8565,6.866,6.8855,6.9176,6.9508,6.9702,6.9702,6.9702,6.9548,6.9219,6.9134,6.8952,6.8613,6.8554,6.8506,6.8506,6.8506,6.8506,6.8506,6.8506,6.8506,6.8506,6.8506,6.8408,6.8309,6.8158,6.8018,6.7899,6.7741,6.7687,6.7687,6.7687,6.7687,6.7687,6.7687,6.7741,6.781,6.7915,6.7967,6.7967,6.7967,6.7863,6.781,6.781,6.7794,6.7687,6.7687,6.7687,6.7687,6.7687,6.6476,6.5154,6.4457,6.3539,6.2805,6.2805,6.2805,6.2805,6.2805,6.2805,6.2805,6.2805,6.2805,6.2805,6.2805,6.2805,6.2805,6.2805,6.2805,6.2805,6.2805,6.2805,6.2805,6.2805,6.2805,6.2755,6.2603,6.2449,6.2344,6.2185,6.206,6.2005,6.2005,6.2005,6.2005,6.2005,6.2005,6.2005,6.2005,6.2005,6.2005,6.2005,6.2005,6.2005,6.2005,6.2005,6.2005,6.2005,6.2005,6.2005,6.2005,6.2005,6.2005,6.184,6.8506,6.8506,6.8506,6.8506,6.8506,6.8506,6.8506,6.8506,6.8506,6.8506,6.8506,6.8613,6.8997,6.9344,6.9548,6.9625,6.9664,6.9702,6.9702,6.9702,6.9664,6.9625,6.9303,6.9047,6.9041,6.8707,6.8506,6.8506,6.8506,6.8506,6.8506,6.8506,6.8506,6.8506,6.8506,6.8408,6.8309,6.8158,6.8018,6.7899,6.7741,6.7687,6.7687,6.7687,6.7687,6.7687,6.7687,6.7967,6.8346,6.878,6.8915,6.8915,6.8915,6.8595,6.8297,6.8297,6.7982,6.7687,6.7687,6.7687,6.7687,6.7687,6.6476,6.5264,6.5154,6.3943,6.2805,6.2805,6.2805,6.2805,6.2805,6.2805,6.2805,6.2805,6.2805,6.2805,6.2805,6.2805,6.2805,6.2805,6.2805,6.2805,6.2805,6.2805,6.2805,6.2805,6.2805,6.2755,6.2603,6.2449,6.2344,6.2185,6.206,6.2005,6.2005,6.2005,6.2005,6.2005,6.2005,6.2005,6.2005,6.2005,6.2005,6.2005,6.2005,6.2005,6.2005,6.2005,6.2005,6.2005,6.2005,6.2005,6.2005,6.2005,6.2005,6.1895,6.8617,6.8506,6.8506,6.8506,6.8506,6.8506,6.8506,6.8506,6.8506,6.8506,6.8506,6.866,6.9047,6.9664,7.003,7.003,7.0238,7.0369,7.0369,7.0369,7.0271,7.003,6.9887,6.9548,6.9091,6.8908,6.8717,6.8506,6.8506,6.8506,6.8506,6.8506,6.8506,6.8506,6.8506,6.8457,6.8408,6.8208,6.8107,6.7967,6.7794,6.7863,6.8033,6.7757,6.8033,6.849,6.849,6.8633,6.8825,6.9003,6.9091,6.9091,6.9091,6.8959,6.8734,6.849,6.8247,6.8033,6.7794,6.7687,6.7687,6.7687,6.6476,6.5301,6.5301,6.4016,6.2805,6.2805,6.2805,6.2805,6.2805,6.2805,6.2805,6.2805,6.2805,6.2805,6.2805,6.2805,6.2805,6.2805,6.2805,6.2805,6.2805,6.2805,6.2805,6.2805,6.2705,6.2603,6.25,6.2344,6.2222,6.2114,6.2005,6.2005,6.2005,6.2005,6.2005,6.2005,6.2005,6.2005,6.2005,6.2005,6.2005,6.2005,6.2005,6.2005,6.2005,6.2005,6.2005,6.2005,6.2005,6.2005,6.2005,6.2005,6.2005,6.1895]},{"header":{"parameterUnit":"m.s-1","parameterCategory":1,"la1":30.6,"la2":28.766,"lo1":-90.7593,"lo2":-88.6598,"dy":0.0162,"dx":0.0183,"nx":116,"ny":114,"refTime":"2023-10-10T18:00:00:Z","depth":0,"parameterNumber":3,"parameterNumberName":"V-component_of_WINDS"},"data":[0.0,0.0,0.0,0.0,0.0,0.0,0.0,0.0,0.0,0.0,0.0,0.0,0.0,0.0,0.0,0.0,0.0,0.0,0.0,0.0,0.0,0.0,0.0,0.0,0.0,0.0,0.0,0.0,0.0,0.0,0.0,0.0,0.0,0.0,0.0,0.0,0.0,0.0,0.0,0.0,0.0,0.0,0.0,0.0,0.0,0.0,0.0,0.0,0.0,0.0,0.0,0.0,0.0,0.0,0.0,0.0,0.0,0.0,0.0,0.0,0.0,0.0,0.0,0.0,0.0,0.0,0.0,0.0,0.0,0.0,0.0,0.0,0.0,0.0,0.0,0.0,0.0,0.0,0.0,0.0,0.0,0.0,0.0,0.0,0.0,0.0,0.0,0.0,0.0,0.0,0.0,0.0,0.0,0.0,0.0,0.0,0.0,0.0,0.0,0.0,0.0,0.0,0.0,0.0,0.0,0.0,0.0,0.0,0.0,0.0,0.0,0.0,0.0,0.0,0.0,0.0,0.0,0.0,0.0,0.0,0.0,0.0,0.0,0.0,0.0,0.0,0.0,0.0,0.0,0.0,0.0,0.0,0.0,0.0,0.0,0.0,0.0,0.0,0.0,0.0,0.0,0.0,0.0,0.0,0.0,0.0,0.0,0.0,0.0,0.0,0.0,0.0,0.0,0.0,0.0,0.0,0.0,0.0,0.0,0.0,0.0,0.0,0.0,0.0,0.0,0.0,0.0,0.0,0.0,0.0,0.0,0.0,0.0,0.0,0.0,0.0,0.0,0.0,0.0,0.0,0.0,0.0,0.0,0.0,0.0,0.0,0.0,0.0,0.0,0.0,0.0,0.0,0.0,0.0,0.0,0.0,0.0,0.0,0.0,0.0,0.0,0.0,0.0,0.0,0.0,0.0,0.0,0.0,0.0,0.0,0.0,0.0,0.0,0.0,0.0,0.0,0.0,0.0,0.0,0.0,0.0,0.0,0.0,0.0,0.0,0.0,0.0,0.0,0.0,0.0,0.0,0.0,0.0,0.0,0.0,0.0,0.0,0.0,0.0,0.0,0.0,0.0,0.0,0.0,0.0,0.0,0.0,0.0,0.0,0.0,0.0,0.0,0.0,0.0,0.0,0.0,0.0,0.0,0.0,0.0,0.0,0.0,0.0,0.0,0.0,0.0,0.0,0.0,0.0,0.0,0.0,0.0,0.0,0.0,0.0,0.0,0.0,0.0,0.0,0.0,0.0,0.0,0.0,0.0,0.0,0.0,0.0,0.0,0.0,0.0,0.0,0.0,0.0,0.0,0.0,0.0,0.0,0.0,0.0,0.0,0.0,0.0,0.0,0.0,0.0,0.0,0.0,0.0,0.0,0.0,0.0,0.0,0.0,0.0,0.0,0.0,0.0,0.0,0.0,0.0,0.0,0.0,0.0,0.0,0.0,0.0,0.0,0.0,0.0,0.0,0.0,0.0,0.0,0.0,0.0,0.0,0.0,0.0,0.0,0.0,0.0,0.0,0.0,0.0,0.0,0.0,0.0,0.0,0.0,0.0,0.0,0.0,0.0,0.0,0.0,0.0,0.0,0.0,0.0,0.0,0.0,0.0,0.0,0.0,0.0,0.0,0.0,0.0,0.0,0.0,0.0,0.0,0.0,0.0,0.0,0.0,0.0,0.0,0.0,0.0,0.0,0.0,0.0,0.0,0.0,0.0,0.0,0.0,0.0,0.0,0.0,0.0,0.0,0.0,0.0,0.0,0.0,0.0,0.0,0.0,0.0,0.0,0.0,0.0,0.0,0.0,0.0,0.0,0.0,0.0,0.0,0.0,0.0,0.0,0.0,0.0,0.0,0.0,0.0,0.0,0.0,0.0,0.0,0.0,0.0,0.0,0.0,0.0,0.0,0.0,0.0,0.0,0.0,0.0,0.0,0.0,0.0,0.0,0.0,0.0,0.0,0.0,0.0,0.0,0.0,0.0,0.0,0.0,0.0,0.0,0.0,0.0,0.0,0.0,0.0,0.0,0.0,0.0,0.0,0.0,0.0,0.0,0.0,0.0,0.0,0.0,0.0,0.0,0.0,0.0,0.0,0.0,0.0,0.0,0.0,0.0,0.0,0.0,0.0,0.0,0.0,0.0,0.0,0.0,0.0,0.0,0.0,0.0,0.0,0.0,0.0,0.0,0.0,0.0,0.0,0.0,0.0,0.0,0.0,0.0,0.0,0.0,0.0,0.0,0.0,0.0,0.0,0.0,0.0,0.0,0.0,0.0,0.0,0.0,0.0,0.0,0.0,0.0,0.0,0.0,0.0,0.0,0.0,0.0,0.0,0.0,0.0,0.0,0.0,0.0,0.0,0.0,0.0,0.0,0.0,0.0,0.0,0.0,0.0,0.0,0.0,0.0,0.0,0.0,0.0,0.0,0.0,0.0,0.0,0.0,0.0,0.0,0.0,0.0,0.0,0.0,0.0,0.0,0.0,0.0,0.0,0.0,0.0,0.0,0.0,0.0,0.0,0.0,0.0,0.0,0.0,0.0,0.0,0.0,0.0,0.0,0.0,0.0,0.0,0.0,0.0,0.0,0.0,0.0,0.0,0.0,0.0,0.0,0.0,0.0,0.0,0.0,0.0,0.0,0.0,0.0,0.0,0.0,0.0,0.0,0.0,0.0,0.0,0.0,0.0,0.0,0.0,0.0,0.0,0.0,0.0,0.0,0.0,0.0,0.0,0.0,0.0,0.0,0.0,0.0,0.0,0.0,0.0,0.0,0.0,0.0,0.0,0.0,0.0,0.0,0.0,0.0,0.0,0.0,0.0,0.0,0.0,0.0,0.0,0.0,0.0,0.0,0.0,0.0,0.0,0.0,0.0,0.0,0.0,0.0,0.0,0.0,0.0,0.0,0.0,0.0,0.0,0.0,0.0,0.0,0.0,0.0,0.0,0.0,0.0,0.0,0.0,0.0,0.0,0.0,0.0,0.0,0.0,0.0,0.0,0.0,0.0,0.0,0.0,0.0,0.0,0.0,0.0,0.0,0.0,0.0,0.0,0.0,0.0,0.0,0.0,0.0,0.0,0.0,0.0,0.0,0.0,0.0,0.0,0.0,0.0,0.0,0.0,0.0,0.0,0.0,0.0,0.0,0.0,0.0,0.0,0.0,0.0,0.0,0.0,0.0,0.0,0.0,0.0,0.0,0.0,0.0,0.0,0.0,0.0,0.0,0.0,0.0,0.0,0.0,0.0,0.0,0.0,0.0,0.0,0.0,0.0,0.0,0.0,0.0,0.0,0.0,0.0,0.0,0.0,0.0,0.0,0.0,0.0,0.0,0.0,0.0,0.0,0.0,0.0,0.0,0.0,0.0,0.0,0.0,0.0,0.0,0.0,0.0,0.0,0.0,0.0,0.0,0.0,0.0,0.0,0.0,0.0,0.0,0.0,0.0,0.0,0.0,0.0,0.0,0.0,0.0,0.0,0.0,0.0,0.0,0.0,0.0,0.0,0.0,0.0,0.0,0.0,0.0,0.0,0.0,0.0,0.0,0.0,0.0,0.0,0.0,0.0,0.0,0.0,0.0,0.0,0.0,0.0,0.0,0.0,0.0,0.0,0.0,0.0,0.0,0.0,0.0,0.0,0.0,0.0,0.0,0.0,0.0,0.0,0.0,0.0,0.0,0.0,0.0,0.0,0.0,0.0,0.0,0.0,0.0,0.0,0.0,0.0,0.0,0.0,0.0,0.0,0.0,0.0,0.0,0.0,0.0,0.0,0.0,0.0,0.0,0.0,0.0,0.0,0.0,0.0,0.0,0.0,0.0,0.0,0.0,0.0,0.0,0.0,0.0,0.0,0.0,0.0,0.0,0.0,0.0,0.0,0.0,0.0,0.0,0.0,0.0,0.0,0.0,0.0,0.0,0.0,0.0,0.0,0.0,0.0,0.0,0.0,0.0,0.0,0.0,0.0,0.0,0.0,0.0,0.0,0.0,0.0,0.0,0.0,0.0,0.0,0.0,0.0,0.0,0.0,0.0,0.0,0.0,0.0,0.0,0.0,0.0,0.0,0.0,0.0,0.0,0.0,0.0,0.0,0.0,0.0,0.0,0.0,0.0,0.0,0.0,0.0,0.0,0.0,0.0,0.0,0.0,0.0,0.0,0.0,0.0,0.0,0.0,0.0,0.0,0.0,0.0,0.0,0.0,0.0,0.0,0.0,0.0,0.0,0.0,0.0,0.0,0.0,0.0,0.0,0.0,0.0,0.0,0.0,0.0,0.0,0.0,0.0,0.0,0.0,0.0,0.0,0.0,0.0,0.0,0.0,0.0,0.0,0.0,0.0,0.0,0.0,0.0,0.0,0.0,0.0,0.0,0.0,0.0,0.0,0.0,0.0,0.0,0.0,0.0,0.0,0.0,0.0,0.0,0.0,0.0,0.0,0.0,0.0,0.0,0.0,0.0,0.0,0.0,0.0,0.0,0.0,0.0,0.0,0.0,0.0,0.0,0.0,0.0,0.0,0.0,0.0,0.0,0.0,0.0,0.0,0.0,0.0,0.0,0.0,0.0,0.0,0.0,0.0,0.0,0.0,0.0,0.0,0.0,0.0,0.0,0.0,0.0,0.0,0.0,0.0,0.0,0.0,0.0,0.0,0.0,0.0,0.0,0.0,0.0,0.0,0.0,0.0,0.0,0.0,0.0,0.0,0.0,0.0,0.0,0.0,0.0,0.0,0.0,0.0,0.0,0.0,0.0,0.0,0.0,0.0,0.0,0.0,0.0,0.0,0.0,0.0,0.0,0.0,0.0,0.0,0.0,0.0,0.0,0.0,0.0,0.0,0.0,0.0,0.0,0.0,0.0,0.0,0.0,0.0,0.0,0.0,0.0,0.0,0.0,0.0,0.0,0.0,0.0,0.0,0.0,0.0,0.0,0.0,0.0,0.0,0.0,0.0,0.0,0.0,0.0,0.0,0.0,0.0,0.0,0.0,0.0,0.0,0.0,0.0,0.0,0.0,0.0,0.0,0.0,0.0,0.0,0.0,0.0,0.0,0.0,0.0,0.0,0.0,0.0,0.0,0.0,0.0,0.0,0.0,0.0,0.0,0.0,0.0,0.0,0.0,0.0,0.0,0.0,0.0,0.0,0.0,0.0,0.0,0.0,0.0,0.0,0.0,0.0,0.0,0.0,0.0,0.0,0.0,0.0,0.0,0.0,0.0,0.0,0.0,0.0,0.0,0.0,0.0,0.0,0.0,0.0,0.0,0.0,0.0,0.0,0.0,0.0,0.0,0.0,0.0,0.0,0.0,0.0,0.0,0.0,0.0,0.0,0.0,0.0,0.0,0.0,0.0,0.0,0.0,0.0,0.0,0.0,0.0,0.0,0.0,0.0,0.0,0.0,0.0,0.0,0.0,0.0,0.0,0.0,0.0,0.0,0.0,0.0,0.0,0.0,0.0,0.0,0.0,0.0,0.0,0.0,0.0,0.0,0.0,0.0,0.0,0.0,0.0,0.0,0.0,0.0,0.0,0.0,0.0,0.0,0.0,0.0,0.0,0.0,0.0,0.0,0.0,0.0,0.0,0.0,0.0,0.0,0.0,0.0,0.0,0.0,0.0,0.0,0.0,0.0,0.0,0.0,0.0,0.0,0.0,0.0,0.0,0.0,0.0,0.0,0.0,0.0,0.0,0.0,0.0,0.0,0.0,0.0,0.0,0.0,0.0,0.0,0.0,0.0,0.0,0.0,0.0,0.0,0.0,0.0,0.0,0.0,0.0,0.0,0.0,0.0,0.0,0.0,0.0,0.0,0.0,0.0,0.0,0.0,0.0,0.0,0.0,0.0,0.0,0.0,0.0,0.0,0.0,0.0,0.0,0.0,0.0,0.0,0.0,0.0,0.0,0.0,0.0,0.0,0.0,0.0,0.0,0.0,0.0,0.0,0.0,0.0,0.0,0.0,0.0,0.0,0.0,0.0,0.0,0.0,0.0,0.0,0.0,0.0,0.0,0.0,0.0,0.0,0.0,0.0,0.0,0.0,0.0,0.0,0.0,0.0,0.0,0.0,0.0,0.0,0.0,0.0,0.0,0.0,0.0,0.0,0.0,0.0,0.0,0.0,0.0,0.0,-3.6362,0.0,0.0,0.0,0.0,0.0,0.0,0.0,0.0,0.0,0.0,0.0,0.0,0.0,0.0,0.0,0.0,0.0,0.0,0.0,0.0,0.0,0.0,0.0,0.0,0.0,0.0,0.0,0.0,0.0,0.0,0.0,0.0,0.0,0.0,0.0,0.0,0.0,0.0,0.0,-3.4237,-3.3843,-3.3645,-3.3941,-3.4139,-3.4433,0.0,0.0,0.0,0.0,0.0,0.0,0.0,0.0,0.0,0.0,0.0,0.0,0.0,0.0,0.0,0.0,0.0,0.0,0.0,0.0,0.0,0.0,0.0,0.0,0.0,0.0,0.0,0.0,0.0,0.0,0.0,0.0,0.0,0.0,0.0,0.0,0.0,0.0,0.0,0.0,0.0,0.0,0.0,0.0,0.0,0.0,0.0,0.0,0.0,0.0,0.0,0.0,0.0,0.0,0.0,0.0,0.0,0.0,0.0,0.0,0.0,0.0,0.0,0.0,0.0,0.0,0.0,0.0,0.0,0.0,0.0,-3.7057,0.0,0.0,0.0,0.0,0.0,0.0,0.0,0.0,0.0,0.0,0.0,0.0,0.0,0.0,0.0,0.0,0.0,0.0,0.0,0.0,0.0,0.0,0.0,-3.4823,-3.4823,-3.4823,-3.4823,-3.4823,0.0,0.0,0.0,0.0,0.0,0.0,0.0,-3.4726,-3.4628,-3.4628,-3.404,-3.3446,-3.2946,-3.3047,-3.3346,-3.3744,-3.3843,0.0,0.0,0.0,0.0,0.0,0.0,0.0,0.0,0.0,0.0,0.0,0.0,0.0,0.0,0.0,0.0,0.0,0.0,0.0,0.0,0.0,0.0,0.0,0.0,0.0,0.0,0.0,0.0,0.0,0.0,0.0,0.0,0.0,0.0,0.0,0.0,0.0,0.0,0.0,0.0,0.0,0.0,0.0,0.0,0.0,0.0,0.0,0.0,0.0,0.0,0.0,0.0,0.0,0.0,0.0,0.0,0.0,0.0,0.0,0.0,0.0,0.0,0.0,-3.7453,-3.7821,-3.8395,-3.8395,-3.8756,-3.9203,-3.8004,-3.752,-3.752,-3.752,0.0,0.0,0.0,0.0,0.0,0.0,0.0,0.0,0.0,0.0,0.0,0.0,0.0,0.0,0.0,0.0,0.0,0.0,0.0,0.0,0.0,-3.4823,-3.4823,-3.4823,-3.4823,-3.4823,-3.4823,0.0,0.0,0.0,0.0,0.0,-3.4823,-3.4335,-3.4139,-3.4139,-3.3124,-3.2319,-3.1834,-3.2319,-3.2521,-3.2622,-3.3147,-3.3346,-3.3346,0.0,0.0,0.0,0.0,0.0,0.0,0.0,0.0,0.0,0.0,0.0,0.0,0.0,0.0,0.0,0.0,0.0,0.0,0.0,0.0,0.0,0.0,0.0,0.0,0.0,0.0,0.0,0.0,0.0,0.0,0.0,0.0,0.0,0.0,0.0,0.0,0.0,0.0,0.0,0.0,0.0,-3.4799,-3.4727,0.0,0.0,0.0,0.0,0.0,0.0,0.0,0.0,0.0,0.0,0.0,0.0,0.0,-3.8004,-3.8004,-3.8666,-3.9024,-3.9024,-3.9024,-3.9024,-3.9114,-3.9114,-3.9203,-3.9292,-3.9114,0.0,-3.9024,-3.9024,0.0,0.0,0.0,0.0,0.0,0.0,0.0,0.0,0.0,0.0,0.0,0.0,0.0,0.0,0.0,0.0,0.0,0.0,0.0,0.0,0.0,-3.4531,-3.4335,-3.4335,-3.404,-3.404,-3.4335,-3.4335,0.0,0.0,0.0,-3.4823,-3.4823,-3.4237,-3.372,-3.3124,-3.2622,-3.2117,-3.1629,-3.1812,-3.1913,-3.1913,-3.224,-3.242,-3.2723,-3.2723,0.0,0.0,0.0,0.0,0.0,0.0,0.0,0.0,0.0,0.0,0.0,0.0,0.0,0.0,0.0,0.0,0.0,0.0,0.0,0.0,0.0,0.0,0.0,0.0,0.0,0.0,0.0,0.0,0.0,0.0,0.0,0.0,0.0,0.0,0.0,0.0,0.0,0.0,0.0,-3.4823,-3.4727,-3.4414,-3.3741,-3.3164,0.0,0.0,0.0,0.0,0.0,0.0,0.0,0.0,0.0,-3.773,-3.8459,-3.8845,-3.8845,-3.9114,-3.9292,-3.9292,-3.9292,-3.9292,-3.9292,-3.9292,-3.9292,-3.9292,-3.9292,-3.9292,-3.9292,-3.9292,-3.9292,-3.9292,0.0,0.0,0.0,0.0,-3.9292,-3.9292,0.0,0.0,0.0,0.0,0.0,0.0,0.0,0.0,0.0,0.0,0.0,0.0,-3.4628,-3.4139,-3.3843,-3.3843,-3.3446,-3.3446,-3.3941,-3.404,-3.4237,-3.4726,-3.4823,-3.4726,-3.4628,-3.3941,-3.3124,-3.2218,-3.2218,-3.2015,-3.1629,-3.1629,-3.1629,-3.1629,-3.1629,-3.1812,-3.2218,-3.2218,-3.2319,-3.2521,0.0,0.0,0.0,0.0,0.0,0.0,0.0,0.0,0.0,0.0,0.0,0.0,0.0,0.0,0.0,0.0,0.0,0.0,0.0,0.0,0.0,0.0,0.0,0.0,0.0,0.0,0.0,0.0,0.0,0.0,0.0,0.0,0.0,0.0,0.0,0.0,0.0,-3.4823,-3.4631,-3.4102,-3.3717,-3.3377,0.0,0.0,0.0,0.0,0.0,0.0,-3.7612,-3.8187,-3.8485,-3.8485,-3.9024,-3.9292,-3.9292,-3.9292,-3.9292,-3.9292,-3.9292,-3.9292,-3.9292,-3.9292,-3.9292,-3.9292,-3.9292,-3.9292,-3.9292,-3.9292,-3.9292,-3.9292,-3.9292,-3.9292,-3.9292,-3.9292,-3.9292,-3.9292,0.0,0.0,0.0,0.0,0.0,0.0,0.0,0.0,0.0,0.0,0.0,-3.404,-3.404,-3.3545,-3.3247,-3.3247,-3.3247,-3.3446,-3.3941,-3.404,-3.4237,-3.4726,-3.4823,-3.4531,-3.404,-3.3024,-3.2218,-3.1629,-3.1629,-3.1629,-3.1629,-3.1629,-3.1629,-3.1629,-3.1629,-3.1629,-3.1629,-3.1629,-3.1913,-3.242,-3.242,0.0,0.0,0.0,0.0,0.0,0.0,0.0,0.0,0.0,0.0,0.0,0.0,0.0,0.0,0.0,0.0,0.0,0.0,0.0,0.0,0.0,0.0,0.0,0.0,0.0,0.0,0.0,0.0,0.0,0.0,0.0,0.0,0.0,0.0,0.0,0.0,0.0,0.0,-3.4102,-3.4006,0.0,0.0,0.0,0.0,-3.7174,-3.7899,-3.8519,-3.9176,-3.9203,-3.9203,-3.9203,-3.9292,-3.9292,-3.9292,-3.9292,-3.9292,-3.9292,-3.9292,-3.9292,-3.9292,-3.9292,-3.9292,-3.9292,-3.9292,-3.9292,-3.9292,-3.9292,-3.9292,-3.9292,-3.9292,-3.9292,-3.9292,-3.9292,-3.9292,-3.9292,0.0,0.0,0.0,0.0,0.0,0.0,0.0,0.0,-3.4823,-3.4823,-3.4335,-3.404,-3.404,-3.3224,-3.2723,-3.2723,-3.2319,-3.2443,-3.2924,-3.3346,-3.3744,-3.4237,-3.4335,-3.3843,-3.3024,-3.2622,-3.2117,-3.1629,-3.1629,-3.1629,-3.1629,-3.1629,-3.1629,-3.1629,-3.1629,-3.1629,-3.1629,-3.1629,-3.1732,-3.1913,-3.2218,-3.2622,0.0,0.0,0.0,0.0,0.0,0.0,0.0,0.0,0.0,0.0,0.0,0.0,0.0,0.0,0.0,0.0,0.0,0.0,0.0,0.0,0.0,0.0,0.0,0.0,0.0,0.0,0.0,0.0,0.0,0.0,0.0,0.0,0.0,0.0,0.0,0.0,0.0,-3.474,-3.4785,0.0,-3.5085,-3.5635,-3.6366,-3.7316,-3.7954,-3.8541,-3.9292,-3.9292,-3.9292,-3.9292,-3.9292,-3.9292,-3.9292,-3.9292,-3.9292,-3.9292,-3.9292,-3.9292,-3.9292,-3.9292,-3.9292,-3.9292,-3.9292,-3.9292,-3.9292,-3.9292,-3.9292,-3.9292,-3.9292,-3.9292,-3.9292,-3.9292,-3.9292,-3.9292,0.0,0.0,0.0,0.0,0.0,0.0,0.0,0.0,-3.4726,-3.4531,-3.404,-3.3645,-3.3423,-3.2622,-3.2117,-3.2117,-3.1834,-3.1812,-3.2319,-3.2946,-3.3446,-3.3941,-3.3843,-3.3323,-3.242,-3.2218,-3.1913,-3.1629,-3.1629,-3.1629,-3.1629,-3.1629,-3.1629,-3.1629,-3.1629,-3.1629,-3.1629,-3.1629,-3.1629,-3.1629,-3.2015,-3.2218,-3.2476,0.0,0.0,0.0,0.0,0.0,0.0,0.0,0.0,0.0,0.0,0.0,0.0,0.0,0.0,0.0,0.0,0.0,0.0,0.0,0.0,0.0,0.0,0.0,0.0,0.0,0.0,0.0,0.0,0.0,0.0,0.0,0.0,0.0,0.0,0.0,-3.5304,-3.5579,-3.5772,-3.5923,-3.6082,-3.6638,-3.7246,-3.7989,-3.8362,-3.8756,-3.9292,-3.9292,-3.9292,-3.9292,-3.9292,-3.9292,-3.9292,-3.9292,-3.9292,-3.9292,-3.9292,-3.9292,-3.9292,-3.9292,-3.9292,-3.9292,-3.9292,-3.9292,-3.9292,-3.9292,-3.9292,-3.9292,-3.9292,-3.9292,-3.9292,-3.9292,-3.9292,-3.9292,0.0,0.0,0.0,0.0,0.0,0.0,0.0,-3.4823,-3.4628,-3.404,-3.3545,-3.3047,-3.242,-3.1913,-3.1629,-3.1629,-3.1629,-3.1812,-3.2319,-3.2946,-3.3446,-3.3941,-3.3446,-3.2924,-3.242,-3.1812,-3.1629,-3.1629,-3.1629,-3.1629,-3.1629,-3.1629,-3.1629,-3.1629,-3.1629,-3.1629,-3.1629,-3.1629,-3.1629,-3.1629,-3.1629,-3.1913,-3.242,0.0,0.0,0.0,0.0,0.0,0.0,0.0,0.0,0.0,0.0,0.0,0.0,0.0,0.0,0.0,0.0,0.0,0.0,0.0,0.0,0.0,0.0,0.0,0.0,0.0,0.0,0.0,0.0,0.0,0.0,0.0,0.0,0.0,-3.6048,-3.6048,-3.6132,-3.6314,-3.6816,-3.7221,-3.7421,-3.796,-3.8575,-3.9203,-3.9292,-3.9292,-3.9292,-3.9292,-3.9292,-3.9292,-3.9292,-3.9292,-3.9292,-3.9292,-3.9292,-3.9292,-3.9292,-3.9292,-3.9292,-3.9292,-3.9292,-3.9292,-3.9292,-3.9292,-3.9292,-3.9292,-3.9292,-3.9292,-3.9292,-3.9292,-3.9292,-3.9292,-3.9292,-3.9292,0.0,0.0,0.0,0.0,0.0,0.0,0.0,-3.4823,-3.4628,-3.404,-3.3545,-3.3047,-3.242,-3.1913,-3.1629,-3.1629,-3.1629,-3.1812,-3.2319,-3.2946,-3.3247,-3.3446,-3.2924,-3.2319,-3.1812,-3.1732,-3.1629,-3.1629,-3.1629,-3.1629,-3.1629,-3.1629,-3.1629,-3.1629,-3.1629,-3.1629,-3.1629,-3.1629,-3.1629,-3.1629,-3.1629,-3.1732,-3.1812,0.0,0.0,0.0,0.0,0.0,0.0,0.0,0.0,0.0,0.0,0.0,0.0,0.0,0.0,0.0,0.0,0.0,0.0,0.0,0.0,0.0,0.0,0.0,0.0,0.0,0.0,0.0,0.0,0.0,0.0,0.0,0.0,-3.6777,-3.6777,-3.6777,-3.7006,-3.7612,-3.7834,-3.8134,-3.872,-3.8944,-3.9114,-3.9292,-3.9292,-3.9292,-3.9292,-3.9292,-3.9292,-3.9292,-3.9292,-3.9292,-3.9292,-3.9292,-3.9292,-3.9292,-3.9292,-3.9292,-3.9292,-3.9292,-3.9292,-3.9292,-3.9292,-3.9292,-3.9292,-3.9292,-3.9292,-3.9292,-3.9292,-3.9292,-3.9292,-3.9292,-3.9292,-3.9292,0.0,0.0,0.0,0.0,0.0,0.0,0.0,-3.4628,-3.4139,-3.3323,-3.2723,-3.2117,-3.1607,-3.13,-3.1219,-3.1527,-3.1834,-3.2117,-3.242,-3.2946,-3.3147,-3.2823,-3.2521,-3.2117,-3.1629,-3.1629,-3.1629,-3.1629,-3.1629,-3.1629,-3.1629,-3.1629,-3.1629,-3.1629,-3.1629,-3.1629,-3.1629,-3.1629,-3.1629,-3.1629,-3.1629,-3.1629,-3.1629,-3.1913,-3.2218,-3.242,-3.2723,-3.3047,-3.3247,-3.3545,0.0,0.0,0.0,0.0,0.0,0.0,0.0,0.0,0.0,0.0,0.0,0.0,0.0,0.0,0.0,0.0,0.0,0.0,0.0,0.0,0.0,0.0,0.0,0.0,-3.7268,-3.7638,-3.8004,-3.773,-3.7821,-3.8575,-3.8666,-3.8845,-3.9292,-3.9292,-3.9292,-3.9292,-3.9292,-3.9292,-3.9292,-3.9292,-3.9292,-3.9292,-3.9292,-3.9292,-3.9292,-3.9292,-3.9292,-3.9292,-3.9292,-3.9292,-3.9292,-3.9292,-3.9292,-3.9292,-3.9292,-3.9292,-3.9292,-3.9292,-3.9292,0.0,0.0,0.0,0.0,0.0,-3.9292,-3.9292,0.0,0.0,0.0,0.0,0.0,0.0,0.0,-3.4335,-3.3522,-3.2174,-3.1586,-3.0991,-3.0287,-3.0391,-3.0703,-3.1424,-3.2015,-3.242,-3.2521,-3.2823,-3.2946,-3.242,-3.2319,-3.2117,-3.1629,-3.1629,-3.1629,-3.1629,-3.1629,-3.1629,-3.1629,-3.1629,-3.1629,-3.1629,-3.1629,-3.1629,-3.1629,-3.1629,-3.1629,-3.1629,-3.1629,-3.1629,-3.1629,-3.1629,-3.1913,-3.2319,-3.2319,-3.2622,-3.3147,-3.3147,0.0,0.0,0.0,0.0,0.0,0.0,0.0,0.0,0.0,0.0,0.0,0.0,0.0,0.0,0.0,0.0,0.0,0.0,0.0,0.0,0.0,0.0,0.0,0.0,-3.8304,-3.8575,-3.9203,-3.8756,-3.8575,-3.9203,-3.9292,-3.9292,-3.9292,-3.9292,-3.9292,-3.9292,-3.9292,-3.9292,-3.9292,0.0,0.0,0.0,0.0,-3.9292,-3.9292,-3.9292,-3.9292,-3.9292,-3.9292,-3.9292,-3.9292,-3.9292,-3.9292,-3.9292,-3.9292,-3.9292,-3.9292,-3.9292,-3.9292,-3.9292,-3.9292,-3.9292,-3.9292,-3.9292,-3.9292,-3.9292,0.0,0.0,0.0,0.0,0.0,0.0,0.0,-3.4335,-3.3522,-3.2174,-3.1586,-3.0764,-2.9513,-2.9953,-3.0495,-3.0599,-3.171,-3.2622,-3.3047,-3.2723,-3.2521,-3.242,-3.2015,-3.1732,-3.1629,-3.1629,-3.1629,-3.1629,-3.1629,-3.1629,-3.1629,-3.1629,-3.1629,-3.1629,-3.1629,-3.1629,-3.1629,-3.1629,-3.1629,-3.1629,-3.1629,-3.1629,-3.1629,-3.1629,-3.1629,-3.171,-3.171,-3.2117,-3.2622,-3.3047,-3.3446,-3.3941,-3.4433,-3.4628,0.0,0.0,0.0,0.0,0.0,0.0,0.0,0.0,0.0,0.0,0.0,0.0,0.0,0.0,0.0,0.0,0.0,0.0,0.0,-3.8304,-3.8666,-3.9114,-3.9292,-3.9203,-3.9114,-3.9292,-3.9292,-3.9292,-3.9292,-3.9292,-3.9292,-3.9292,-3.9292,-3.9292,-3.9292,-3.9292,-3.9292,-3.9292,-3.9292,-3.9292,-3.9292,-3.9292,-3.9292,-3.9292,0.0,0.0,-3.9292,-3.9292,-3.9292,-3.9292,-3.9292,-3.9292,-3.9292,-3.9292,-3.9292,-3.9292,-3.9292,-3.9292,-3.9292,-3.9292,-3.9292,-3.9292,0.0,0.0,0.0,0.0,0.0,0.0,0.0,-3.3941,-3.3224,-3.2174,-3.1586,-3.0867,-2.9848,-3.037,-3.0991,-3.1403,-3.2218,-3.2946,-3.3147,-3.2723,-3.2319,-3.2015,-3.171,-3.1629,-3.1629,-3.1629,-3.1629,-3.1629,-3.1629,-3.1629,-3.1629,-3.1629,-3.1629,-3.1629,-3.1629,-3.1629,-3.1629,-3.1629,-3.1629,-3.1629,-3.1629,-3.1629,-3.1629,-3.1629,-3.1732,-3.2015,-3.2015,-3.2319,-3.2823,-3.3147,-3.3346,-3.3645,-3.4237,-3.4433,-3.4433,0.0,0.0,0.0,0.0,0.0,0.0,0.0,0.0,0.0,0.0,0.0,0.0,0.0,0.0,-3.8666,0.0,0.0,-3.9203,-3.8845,-3.9024,-3.9292,-3.9292,-3.9292,-3.9292,-3.9292,-3.9292,-3.9292,-3.9292,-3.9292,-3.9292,-3.9292,-3.9292,-3.9292,-3.9292,-3.9292,-3.9292,-3.9292,-3.9292,-3.9292,-3.9292,-3.9292,-3.9292,-3.9292,-3.9292,-3.9292,-3.9319,-3.9617,-3.9753,-3.9753,-4.0078,-4.0214,-4.0214,-4.0214,-4.0214,-4.0187,-3.9861,-3.9563,-3.9292,-3.9292,-3.9292,-3.9292,0.0,0.0,0.0,0.0,0.0,0.0,0.0,-3.3346,-3.2823,-3.1971,-3.1483,-3.097,-3.037,-3.0888,-3.1586,-3.2521,-3.2846,-3.3047,-3.3147,-3.2622,-3.2015,-3.1629,-3.1629,-3.1629,-3.1629,-3.1629,-3.1629,-3.1629,-3.1629,-3.1629,-3.1629,-3.1629,-3.1629,-3.1629,-3.1629,-3.1629,-3.1629,-3.1629,-3.1629,-3.1629,-3.1629,-3.1629,-3.171,-3.171,-3.1913,-3.2218,-3.2319,-3.2723,-3.3247,-3.3346,-3.3446,-3.3545,-3.404,-3.4139,-3.4237,-3.4823,-3.5017,0.0,0.0,0.0,0.0,0.0,0.0,0.0,0.0,0.0,-3.8395,-3.8395,-3.8845,-3.9292,-3.9292,-3.9292,-3.9292,-3.9292,-3.9292,-3.9292,-3.9292,-3.9292,-3.9292,-3.9292,-3.9292,-3.9292,-3.9292,-3.9292,-3.9292,-3.9292,-3.9292,-3.9292,-3.9292,-3.94,-3.9481,-3.9481,-3.959,-3.9644,-3.9644,-3.9644,-3.9644,-3.9644,-3.9644,-3.9644,-3.9671,-4.016,-4.035,-4.0404,-4.0892,-4.111,-4.111,-4.111,-4.111,-4.1082,-4.0567,-4.0078,-3.9617,-3.94,-3.9292,-3.9292,0.0,0.0,0.0,0.0,0.0,0.0,0.0,0.0,-3.2745,-3.1483,-3.1278,-3.0867,-3.0037,-3.066,-3.1688,-3.3047,-3.2723,-3.2723,-3.3147,-3.224,-3.1629,-3.1629,-3.1629,-3.1629,-3.1629,-3.1629,-3.1629,-3.1629,-3.1629,-3.1629,-3.1629,-3.1629,-3.1629,-3.1629,-3.1629,-3.1629,-3.1629,-3.1629,-3.1629,-3.1629,-3.1629,-3.1913,-3.2319,-3.2319,-3.2015,-3.1732,-3.2218,-3.2723,-3.3247,-3.3744,-3.4237,-3.4628,-3.4726,-3.4726,-3.4823,-3.5692,-3.5883,-3.6143,-3.7546,-3.8485,-3.8756,-3.8213,-3.8575,-3.8845,0.0,0.0,-3.9203,-3.9203,-3.9203,-3.9292,-3.9292,-3.9292,-3.9292,-3.9292,-3.9292,-3.9292,-3.9292,-3.9292,-3.9292,-3.9292,-3.9292,-3.9292,-3.9292,-3.9292,-3.9292,-3.9292,-3.9292,-3.9292,-3.9292,-3.9807,-4.0078,-4.0078,-4.0621,-4.092,-4.092,-4.092,-4.092,-4.092,-4.092,-4.092,-4.092,-4.0974,-4.1028,-4.1028,-4.1082,-4.111,-4.111,-4.111,-4.111,-4.111,-4.1055,-4.0974,-4.0784,-3.9699,-3.9292,-3.9292,0.0,0.0,0.0,0.0,0.0,0.0,0.0,0.0,0.0,-3.1278,-3.0867,-3.0453,-2.9723,-3.0474,-3.1403,-3.2622,-3.2218,-3.2319,-3.3147,-3.224,-3.1629,-3.1629,-3.1629,-3.1629,-3.1629,-3.1629,-3.1629,-3.1629,-3.1629,-3.1629,-3.1629,-3.1629,-3.1629,-3.1629,-3.1629,-3.1629,-3.1629,-3.1629,-3.1629,-3.1629,-3.1629,-3.1913,-3.242,-3.242,-3.242,-3.2645,-3.3124,-3.3645,0.0,-3.4433,-3.4628,-3.4823,-3.4823,-3.4823,-3.492,-3.5787,-3.5953,-3.6332,-3.7821,-3.8756,-3.9203,0.0,-3.9384,-3.9636,-3.9016,-3.9384,-3.9726,-3.9373,-3.9292,-3.9292,-3.9292,-3.9292,-3.9292,0.0,-3.9292,-3.9292,-3.9292,-3.9292,-3.9292,-3.9292,-3.9292,-3.9292,-3.9292,-3.9292,-3.9292,-3.9292,-3.9617,-3.9807,-3.9807,-4.0404,-4.073,-4.073,-4.0974,-4.111,-4.111,-4.111,-4.111,-4.111,-4.111,-4.111,-4.1137,-4.1462,-4.1815,-4.2141,-4.2141,-4.2141,-4.2141,-4.2141,-4.2141,-4.2114,-4.1761,-4.1625,-4.1544,-4.0675,-4.0133,-3.9807,0.0,0.0,0.0,0.0,0.0,0.0,0.0,0.0,0.0,0.0,-3.0432,-3.0224,-2.9932,-3.0453,-3.1176,-3.1913,-3.1812,-3.2015,-3.2745,-3.2139,-3.171,-3.1629,-3.1629,-3.1629,-3.1629,-3.1629,-3.1629,-3.1629,-3.1629,-3.1629,-3.1629,-3.1629,-3.1629,-3.1629,-3.1629,-3.1629,-3.1629,-3.1629,-3.1629,-3.1629,-3.1629,-3.2015,-3.2622,-3.2622,-3.3024,-3.3645,-3.3941,-3.4237,-3.4628,-3.4726,-3.4823,-3.4823,-3.5017,-3.5114,-3.5307,-3.6332,-3.6709,-3.7176,-3.8187,-3.8935,0.0,-3.9509,-3.9861,-4.0078,-3.9644,-3.9888,-4.0024,-3.9427,-3.9292,-3.9292,-3.9292,-3.9292,-3.9292,-3.9292,-3.9292,-3.9292,-3.9292,-3.9292,-3.9292,-3.9292,-3.9454,-3.9536,-3.9536,-3.9536,-3.9536,-3.9536,-4.0106,-4.0458,-4.0458,-4.1028,-4.1354,-4.1354,-4.1517,-4.1598,-4.1598,-4.1598,-4.1598,-4.1598,-4.1598,-4.1598,-4.1625,-4.2059,-4.2493,-4.29,-4.29,-4.29,-4.29,-4.29,-4.29,-4.2846,-4.2412,-4.2249,-4.2195,-4.1761,-4.111,-4.0458,0.0,0.0,0.0,0.0,0.0,0.0,0.0,0.0,0.0,0.0,0.0,0.0,0.0,-3.0949,-3.103,-3.0888,-3.1586,-3.1891,-3.1629,-3.2117,-3.2117,-3.1629,-3.1629,-3.1629,-3.1629,-3.1629,-3.1629,-3.1629,-3.1629,-3.1629,-3.1629,-3.1629,-3.1629,-3.1629,-3.1629,-3.1629,-3.1629,-3.1629,-3.1629,-3.1629,-3.1629,-3.224,-3.3147,-3.3147,-3.3843,-3.4726,-3.4139,-3.404,-3.4139,-3.4628,-3.4823,-3.492,-3.5692,-3.5953,-3.6238,-3.773,-3.8666,-3.9203,-3.9203,-3.9292,-3.9427,-4.0024,-4.0187,-4.0187,-4.016,-4.0187,-4.0024,-3.9427,-3.9292,-3.9292,-3.9292,-3.9292,-3.9292,-3.9292,-3.9292,-3.9292,-3.9292,-3.9292,-3.9292,-3.9292,-3.9807,-4.016,0.0,-4.016,-4.016,-4.016,-4.073,-4.1082,-4.1082,-4.1652,-4.1978,-4.1978,-4.2548,-4.2846,-4.2846,-4.2846,-4.2846,-4.2846,-4.2846,-4.2846,-4.2846,-4.2846,-4.2873,-4.29,-4.29,-4.29,-4.29,-4.29,-4.29,-4.29,-4.2873,-4.2846,-4.2846,-4.2846,-4.2086,-4.1082,0.0,0.0,0.0,0.0,0.0,0.0,0.0,0.0,0.0,0.0,0.0,0.0,0.0,0.0,0.0,0.0,-3.0037,-3.0557,-3.179,-3.097,-3.0764,-3.13,-3.0991,-3.0806,-3.0806,-3.1322,-3.1629,-3.1629,-3.1629,-3.1629,-3.1629,-3.1629,-3.1629,-3.1629,-3.1629,-3.1629,-3.1629,-3.1629,-3.1629,-3.1629,-3.1629,-3.224,-3.3247,-3.3247,-3.4053,-3.5352,0.0,-3.4817,-3.4531,-3.4726,-3.4823,-3.4823,-3.5114,-3.5596,-3.6238,-3.773,-3.8756,-3.9292,-3.9292,-3.9292,-3.9427,-4.0051,-4.0187,-4.0187,-4.0187,-4.0187,-4.0024,-3.9427,-3.9292,-3.9292,-3.9292,-3.9292,-3.9292,-3.9292,-3.9292,-3.9292,-3.9292,-3.9292,-3.9454,-3.9834,-4.0078,0.0,0.0,0.0,0.0,-4.0811,-4.1354,-4.1707,-4.1707,-4.2276,-4.2602,-4.2602,-4.2792,-4.29,-4.29,-4.29,-4.29,-4.29,-4.29,-4.29,-4.29,-4.29,-4.29,-4.29,-4.29,-4.29,-4.29,-4.29,-4.29,-4.29,-4.29,-4.29,-4.29,-4.29,-4.2629,-4.2249,0.0,0.0,0.0,0.0,0.0,0.0,0.0,0.0,0.0,0.0,0.0,0.0,0.0,0.0,0.0,0.0,0.0,-2.9932,-3.1483,-3.097,-3.097,-3.1913,-3.1782,-3.1663,-3.1663,-3.2355,-3.2752,-3.2752,-3.2369,-3.2178,-3.2178,-3.1797,-3.1629,-3.1629,-3.1629,-3.1629,-3.1629,-3.1629,-3.1819,-3.2178,-3.2178,-3.2903,-3.4078,-3.4078,-3.4792,0.0,-3.5905,-3.5689,-3.5352,-3.5184,-3.4992,-3.492,-3.55,-3.6332,-3.7361,-3.8004,-3.8756,-3.9292,-3.9292,-3.9292,-3.9427,-4.0051,-4.0187,-4.0187,-4.0187,-4.0187,-4.0024,-3.9427,-3.9292,-3.9292,-3.9292,-3.9292,-3.9292,-3.9292,-3.9292,-3.9292,-3.9292,-3.9292,-3.9509,-4.0106,-4.0377,-4.0757,0.0,0.0,0.0,-4.1462,-4.1978,-4.2331,-4.2331,-4.2683,-4.29,-4.29,-4.29,-4.29,-4.29,-4.29,-4.29,-4.29,-4.29,-4.29,-4.29,-4.29,-4.29,-4.29,-4.29,-4.29,-4.29,-4.29,-4.29,-4.29,-4.29,-4.29,-4.29,-4.29,-4.29,-4.2819,0.0,0.0,0.0,0.0,0.0,0.0,0.0,0.0,0.0,0.0,0.0,0.0,0.0,0.0,0.0,0.0,0.0,0.0,-3.0681,-3.171,-3.2521,-3.3069,-3.3627,-3.3902,-3.3925,-3.4509,-3.4762,-3.4762,-3.374,-3.3286,-3.3286,-3.2222,-3.1797,-3.1797,-3.1797,-3.1797,-3.1797,-3.1797,-3.2369,-3.3286,-3.3286,-3.42,-3.5568,-3.5568,-3.59,-3.6435,-3.6435,-3.6435,-3.6362,-3.5833,-3.5328,-3.509,-3.6622,-3.8083,-3.9051,-3.8421,-3.8692,-3.9203,-3.9292,-3.9292,-3.9427,-4.0051,-4.016,-4.016,-4.0187,-4.016,-3.997,-3.9427,-3.9292,-3.9292,0.0,0.0,-3.9292,-3.9292,-3.9292,-3.9292,-3.9292,-3.9292,-3.9536,0.0,0.0,0.0,0.0,0.0,0.0,-4.2086,0.0,-4.29,-4.29,-4.29,-4.29,-4.29,-4.29,-4.29,-4.29,-4.29,-4.29,-4.29,-4.29,-4.29,-4.29,-4.29,-4.29,-4.29,-4.29,-4.29,-4.29,-4.29,-4.29,-4.29,-4.29,-4.29,-4.29,-4.29,-4.29,-4.29,0.0,0.0,0.0,0.0,0.0,0.0,0.0,0.0,0.0,0.0,0.0,0.0,0.0,0.0,0.0,0.0,0.0,0.0,-2.9513,-3.0016,-3.0787,-3.1858,-3.2738,-3.3294,-3.3675,-3.4462,-3.4762,-3.4762,-3.452,-3.4347,-3.4347,-3.4107,-3.3957,-3.3957,-3.3957,-3.3957,-3.3957,-3.3957,-3.4129,-3.4347,-3.4347,-3.4832,-3.5568,-3.5568,-3.6137,-3.6988,-3.6988,-3.6988,-3.6916,-3.6386,0.0,0.0,-3.7047,-3.7333,-3.7577,-3.8542,-3.8648,-3.8575,-3.9114,-3.9292,-3.9427,-4.0051,-3.9861,-3.9644,-4.0078,-3.9834,-3.9481,-3.9319,-3.9292,-3.9292,0.0,0.0,0.0,-3.9292,-3.9292,0.0,-3.9292,-3.9292,0.0,-4.0757,0.0,-4.1517,-4.2575,-4.2792,0.0,0.0,-4.2792,-4.29,-4.29,-4.29,-4.29,-4.29,-4.29,-4.29,-4.29,-4.29,-4.29,-4.29,-4.29,-4.29,-4.29,-4.29,-4.29,-4.29,-4.29,-4.29,-4.29,-4.29,-4.29,-4.29,-4.29,-4.29,-4.29,-4.29,-4.29,-4.29,0.0,0.0,0.0,0.0,0.0,0.0,0.0,0.0,0.0,0.0,0.0,0.0,0.0,0.0,0.0,0.0,0.0,0.0,0.0,-2.9493,-3.0223,-3.1612,-3.2481,-3.3337,-3.4358,-3.5055,-3.5723,-3.6145,-3.5701,-3.5503,-3.5503,-3.5063,-3.4762,-3.4762,-3.4762,-3.4762,-3.4762,-3.4762,-3.5086,0.0,0.0,-3.5957,-3.6668,-3.6668,-3.7068,-3.7541,-3.7541,-3.7541,-3.7493,0.0,0.0,-3.6892,-3.6969,-3.7271,-3.7707,-3.8165,0.0,-3.8674,-3.9039,-3.9213,-3.9373,-3.9726,-3.9536,-3.94,-3.9726,-3.9536,-3.9292,-3.9292,-3.9292,0.0,-3.9292,-3.9292,0.0,0.0,0.0,0.0,-3.9292,-3.9536,-4.0051,0.0,-4.1354,0.0,-4.2792,-4.29,-4.29,0.0,-4.29,-4.29,-4.29,-4.29,-4.29,-4.29,-4.29,-4.29,-4.29,-4.29,-4.29,-4.29,-4.29,-4.29,-4.29,-4.29,-4.29,-4.29,0.0,-4.29,-4.29,-4.29,-4.29,-4.29,-4.29,-4.29,-4.29,-4.29,-4.29,-4.29,0.0,0.0,0.0,0.0,0.0,0.0,0.0,0.0,0.0,0.0,0.0,0.0,0.0,0.0,0.0,0.0,0.0,0.0,0.0,0.0,-3.0349,-3.1508,-3.2447,-3.3675,-3.5199,-3.5894,-3.6665,-3.7761,-3.6991,-3.6672,-3.6543,-3.5678,-3.526,-3.526,-3.526,-3.526,-3.526,-3.526,-3.5725,-3.6672,-3.6672,-3.7144,-3.7974,0.0,-3.7974,-3.7974,-3.7974,-3.7974,-3.7974,-3.7974,-3.7764,-3.7491,-3.6807,-3.7466,-3.8386,-3.7767,-3.8151,-3.8789,-3.8804,-3.9082,-3.9222,-3.9141,-3.9203,-3.9292,-3.9292,-3.9292,-3.9292,-3.9292,-3.9292,-3.9292,-3.9292,-3.9292,-3.9292,-3.9292,0.0,-3.9292,-3.9292,-3.9753,-4.0323,-4.1028,-4.1571,-4.2141,-4.2819,-4.29,-4.29,-4.29,-4.29,-4.29,-4.29,-4.29,-4.29,-4.29,-4.29,-4.29,-4.29,-4.29,-4.29,-4.29,-4.29,-4.29,-4.29,-4.29,-4.29,-4.29,-4.29,-4.29,-4.29,-4.29,-4.29,-4.29,-4.29,-4.29,-4.29,-4.29,-4.29,-4.29,0.0,0.0,0.0,0.0,0.0,0.0,0.0,0.0,0.0,0.0,-2.6591,-2.6591,0.0,0.0,0.0,0.0,0.0,0.0,0.0,0.0,0.0,-3.0348,-3.1867,-3.3182,-3.4272,-3.5508,-3.634,-3.6557,-3.7346,-3.7748,-3.7748,-3.7546,-3.7498,-3.7498,-3.7498,-3.7498,-3.7498,-3.7498,-3.7546,-3.7748,-3.7748,-3.7796,-3.7974,-3.7974,0.0,0.0,-3.7974,-3.7974,-3.7974,-3.7974,-3.7959,-3.7919,-3.7814,-3.7605,-3.7551,-3.8061,-3.7967,-3.7811,-3.8056,-3.8538,-3.9004,-3.8501,-3.8845,-3.9292,-3.9292,-3.9292,0.0,0.0,-3.9292,-3.9292,-3.9292,-3.9292,-3.9292,-3.9292,0.0,0.0,0.0,0.0,-3.9861,0.0,0.0,0.0,0.0,0.0,0.0,0.0,-4.29,-4.29,-4.29,-4.29,-4.29,-4.29,-4.29,-4.29,-4.29,-4.29,-4.29,-4.29,-4.29,-4.29,-4.29,-4.29,-4.29,-4.29,-4.29,0.0,-4.29,-4.29,-4.29,-4.29,-4.29,-4.29,-4.29,-4.29,-4.29,-4.29,0.0,0.0,0.0,0.0,0.0,0.0,0.0,-2.6591,-2.6591,-2.6591,-2.6591,-2.6591,-2.6591,-2.6591,-2.67,0.0,0.0,0.0,0.0,0.0,0.0,0.0,-3.0067,-3.1359,-3.3056,-3.3754,-3.4536,-3.5223,0.0,-3.61,-3.61,-3.6773,-3.7096,-3.712,-3.7761,-3.7974,-3.7974,-3.7974,-3.7974,-3.7974,-3.7974,-3.7974,-3.7974,0.0,0.0,0.0,0.0,-3.7974,-3.7974,-3.7974,-3.7974,-3.7974,-3.7974,-3.7805,-3.7718,-3.8007,-3.803,-3.7941,-3.809,-3.8293,-3.835,-3.8065,-3.8424,-3.8756,-3.8756,0.0,0.0,0.0,-3.9292,-3.9292,-3.9292,-3.9292,0.0,-3.9292,0.0,0.0,0.0,0.0,0.0,0.0,0.0,0.0,0.0,0.0,0.0,0.0,-4.2289,-4.2484,-4.29,-4.29,-4.29,-4.29,-4.2484,-4.2484,-4.29,-4.2484,-4.2289,-4.2289,-4.2289,-4.2289,-4.2289,-4.1769,-4.1868,-4.2289,-4.1769,-4.1868,-4.2289,-4.2289,-4.2289,-4.2289,-4.2289,-4.2289,-4.2289,-4.2289,-4.2289,-4.2289,0.0,0.0,0.0,0.0,0.0,0.0,0.0,-2.6591,-2.6591,-2.6591,-2.6591,-2.6591,-2.6591,-2.6591,-2.6591,0.0,0.0,0.0,0.0,0.0,0.0,0.0,0.0,0.0,0.0,0.0,0.0,-3.3888,-3.4224,0.0,0.0,0.0,0.0,0.0,-3.7334,-3.7868,-3.7655,-3.7868,-3.7974,0.0,0.0,-3.7974,0.0,0.0,0.0,0.0,0.0,-3.7974,-3.7974,-3.7974,-3.7974,-3.7974,-3.7974,-3.7974,-3.7974,-3.7974,-3.8105,-3.8255,-3.8132,-3.7992,-3.7947,-3.7718,-3.7877,-3.8096,-3.7939,-3.8575,0.0,-3.9024,-3.9203,-3.9292,-3.9292,-3.9292,-3.9292,0.0,-3.9292,-3.9292,0.0,0.0,0.0,0.0,0.0,0.0,0.0,0.0,0.0,0.0,-4.1498,-4.167,-4.236,-4.236,-4.236,-4.236,-4.1769,-4.1769,-4.236,-4.1769,-4.1372,-4.1372,-4.1372,-4.1372,-4.1372,-4.0743,-4.0743,-4.1372,-4.0743,-4.0844,-4.1372,-4.1372,-4.1372,-4.1372,-4.1372,-4.1372,-4.1372,-4.1372,-4.1372,-4.1372,0.0,0.0,0.0,0.0,0.0,0.0,0.0,-2.6591,-2.6591,-2.6591,-2.6591,-2.6591,-2.6591,-2.6591,-2.6591,0.0,0.0,0.0,0.0,0.0,0.0,0.0,0.0,0.0,0.0,0.0,0.0,-3.2416,-3.3776,0.0,0.0,0.0,0.0,0.0,0.0,-3.7441,-3.6449,-3.7548,0.0,0.0,0.0,0.0,0.0,0.0,0.0,0.0,0.0,-3.7974,-3.7974,0.0,0.0,-3.7974,-3.7974,-3.7974,-3.7974,-3.7974,0.0,0.0,-3.7429,-3.7726,-3.8016,-3.7095,-3.74,-3.7818,-3.7278,0.0,-3.8304,-3.8304,-3.8845,-3.9292,-3.9292,-3.9292,-3.9292,-3.9292,-3.9292,-3.9292,0.0,0.0,0.0,0.0,0.0,0.0,0.0,0.0,0.0,-4.1696,-4.0945,-4.0516,-4.0617,-4.0617,-4.0617,-4.0617,-4.0516,-4.0516,-4.0617,-4.0516,-4.0516,-4.0516,-4.0516,-4.0516,-4.0516,-4.0414,-4.0414,-4.0516,-4.0414,-4.0414,0.0,-4.0516,-4.0516,-4.0516,-4.0516,-4.0516,-4.0516,-4.0516,-4.0516,-4.0516,0.0,0.0,0.0,0.0,0.0,0.0,-2.6591,-2.6591,-2.6591,-2.6591,-2.6591,-2.6591,-2.6591,-2.6591,-2.6591,-2.6591,0.0,0.0,0.0,0.0,0.0,0.0,0.0,0.0,0.0,0.0,0.0,-3.1169,-3.1747,0.0,0.0,0.0,0.0,0.0,0.0,0.0,-3.6231,-3.6665,0.0,0.0,0.0,0.0,0.0,0.0,0.0,0.0,0.0,0.0,-3.7974,0.0,0.0,0.0,-3.7974,-3.7974,0.0,0.0,-3.7974,-3.7926,-3.7733,-3.7629,-3.7497,-3.7059,-3.7048,-3.7086,-3.6956,0.0,-3.7638,-3.8096,-3.8395,-3.8756,-3.9203,-3.8935,-3.8666,-3.8666,-3.8503,-3.8463,-3.8463,0.0,0.0,0.0,0.0,0.0,0.0,0.0,0.0,-4.0262,-3.9415,-3.9,-3.9,-3.9905,-4.0414,-4.0414,-3.9905,-3.9905,-4.0414,-3.9905,-3.9725,-3.9725,-3.9725,-3.9725,-3.9622,-3.9208,-3.9208,-3.9622,-3.9208,-3.9208,0.0,-3.9725,-3.9725,-3.9725,-3.9725,-3.9725,-3.9725,-3.9725,-3.9725,-3.9725,0.0,0.0,0.0,0.0,0.0,-2.6591,-2.6591,-2.6591,-2.6591,-2.6591,-2.6591,-2.6591,-2.6591,-2.6591,-2.6591,-2.6591,-2.6591,0.0,0.0,0.0,0.0,0.0,0.0,0.0,0.0,0.0,-2.9085,-2.9966,-3.0083,-3.0276,0.0,0.0,0.0,0.0,0.0,0.0,0.0,0.0,0.0,0.0,0.0,0.0,0.0,0.0,0.0,0.0,0.0,0.0,0.0,0.0,0.0,0.0,0.0,0.0,-3.7974,0.0,-3.7974,-3.7974,-3.7974,-3.7709,-3.7397,-3.7228,-3.6889,-3.6555,0.0,0.0,-3.6896,-3.7453,-3.773,-3.8004,-3.8549,-3.8345,-3.8083,-3.8083,-3.811,-3.8114,-3.8114,-3.8447,0.0,0.0,0.0,0.0,0.0,0.0,0.0,0.0,-3.8291,-3.7974,-3.7974,-3.9104,-3.9699,-3.9699,-3.9104,-3.9104,-3.9699,-3.9104,-3.8816,-3.8816,-3.8816,-3.8816,-3.8816,-3.8291,-3.8291,-3.8816,-3.8291,-3.8291,0.0,-3.8816,-3.8816,-3.8816,-3.8816,-3.8816,-3.8816,-3.8816,-3.8816,-3.8816,0.0,0.0,0.0,0.0,0.0,0.0,-2.6591,-2.6591,-2.6591,-2.6591,-2.6591,-2.6591,-2.6591,-2.6591,-2.6591,-2.6591,-2.6591,0.0,0.0,0.0,0.0,0.0,0.0,0.0,0.0,0.0,-2.8424,-2.8834,-2.9163,-2.9737,-3.0392,-3.1612,-3.1747,-3.0995,0.0,0.0,0.0,0.0,0.0,0.0,0.0,0.0,0.0,0.0,0.0,0.0,0.0,0.0,0.0,0.0,0.0,0.0,0.0,-3.7974,-3.7974,-3.7974,-3.7974,-3.7974,-3.7974,-3.7974,-3.7853,-3.7324,-3.6795,-3.6266,0.0,-3.577,-3.5953,-3.6048,-3.6615,-3.715,-3.715,-3.7544,-3.7928,-3.7928,-3.8319,-3.8677,-3.8677,-3.8702,0.0,0.0,0.0,0.0,0.0,0.0,0.0,-3.808,-3.7974,0.0,-3.7974,-3.7974,-3.7974,-3.7974,-3.7974,-3.7974,-3.7974,-3.7974,-3.7974,-3.7974,-3.7974,-3.7974,-3.7974,-3.7974,-3.7974,-3.7974,-3.7974,-3.7974,0.0,-3.7974,-3.7974,-3.7974,-3.7974,-3.7974,-3.7974,-3.7974,-3.7974,-3.7974,0.0,0.0,0.0,0.0,0.0,0.0,0.0,-2.6591,-2.6591,-2.6591,-2.6591,-2.6591,-2.6591,-2.6591,-2.6591,-2.6591,-2.6591,0.0,0.0,0.0,0.0,0.0,0.0,0.0,0.0,0.0,-2.7789,-2.8424,-2.8801,-2.9238,-2.9718,-3.0587,-3.084,-3.0626,-3.1536,0.0,0.0,0.0,0.0,0.0,0.0,0.0,0.0,0.0,0.0,0.0,0.0,0.0,0.0,0.0,0.0,0.0,0.0,0.0,0.0,-3.7974,-3.7974,0.0,-3.7974,-3.7974,-3.795,-3.7781,-3.706,-3.6362,-3.6194,-3.567,-3.5307,-3.5858,-3.6143,-3.6647,-3.7501,-3.7324,-3.7165,-3.754,-3.7692,-3.7657,-3.7657,0.0,0.0,0.0,0.0,0.0,0.0,0.0,0.0,-3.7974,-3.7974,-3.7974,-3.7974,-3.7974,-3.7974,-3.7974,-3.7974,-3.7974,-3.7974,-3.7974,-3.7974,-3.7974,-3.7974,-3.7974,-3.7974,-3.7974,-3.7974,-3.7974,-3.7974,-3.7974,-3.7974,-3.7974,-3.7974,-3.7974,-3.7974,-3.7974,-3.7974,-3.7974,-3.7974,-3.7974,0.0,0.0,0.0,0.0,0.0,0.0,0.0,-2.6591,-2.6591,-2.6591,-2.6591,-2.6591,-2.6591,-2.6591,-2.6591,-2.6591,-2.6591,0.0,0.0,0.0,0.0,0.0,0.0,0.0,0.0,-2.6958,-2.7271,-2.777,-2.8011,-2.8518,-2.9163,-2.9562,-2.9887,-3.0274,-3.0411,0.0,0.0,0.0,0.0,0.0,0.0,0.0,-3.7974,0.0,0.0,0.0,0.0,0.0,0.0,0.0,0.0,0.0,0.0,0.0,0.0,0.0,-3.7974,-3.7974,-3.7974,-3.7974,-3.7974,-3.7974,-3.7348,0.0,-3.6699,-3.605,-3.5523,-3.5991,-3.6186,-3.6382,-3.7217,-3.7048,-3.6995,-3.7314,-3.7442,-3.7493,-3.7493,0.0,0.0,0.0,0.0,0.0,0.0,0.0,0.0,-3.7974,-3.7974,-3.7974,-3.7974,-3.7974,-3.7974,-3.7974,-3.7974,-3.7974,-3.7974,-3.7974,-3.7974,-3.7974,-3.7974,-3.7974,-3.7974,-3.7974,-3.7974,-3.7974,-3.7974,-3.7974,0.0,-3.7974,-3.7974,-3.7974,-3.7974,-3.7974,-3.7974,-3.7974,-3.7974,-3.7974,0.0,0.0,0.0,0.0,0.0,0.0,0.0,-2.6591,-2.6591,-2.6591,-2.6591,-2.6591,-2.6591,-2.6591,-2.6591,-2.6591,0.0,0.0,0.0,0.0,0.0,0.0,0.0,0.0,0.0,-2.6591,-2.6774,-2.7141,-2.716,-2.7676,-2.8779,-2.8816,-2.9156,-2.9922,-2.9922,-2.9922,0.0,0.0,0.0,0.0,0.0,0.0,0.0,0.0,0.0,0.0,0.0,0.0,0.0,0.0,0.0,0.0,0.0,0.0,0.0,0.0,0.0,0.0,0.0,-3.7974,-3.7974,-3.7974,-3.7589,-3.7204,-3.7204,-3.6795,0.0,-3.6411,-3.6411,-3.6411,-3.6459,-3.6867,-3.7204,-3.7252,-3.7661,-3.7974,-3.7974,-3.7974,0.0,0.0,0.0,0.0,0.0,0.0,0.0,-3.7974,-3.7974,-3.7974,-3.7974,-3.7974,-3.7974,-3.7974,-3.7974,-3.7974,-3.7974,-3.7974,-3.7974,-3.7974,-3.7974,-3.7974,-3.7974,-3.7974,-3.7974,0.0,-3.7974,-3.7974,-3.7974,-3.7974,-3.7974,-3.7974,-3.7974,-3.7974,-3.7974,-3.7974,-3.7974,-3.7974,0.0,0.0,0.0,0.0,0.0,0.0,0.0,0.0,0.0,0.0,-2.6591,-2.6591,-2.6591,-2.6591,-2.6591,0.0,0.0,0.0,0.0,0.0,0.0,0.0,0.0,0.0,-2.6591,-2.6591,-2.6628,-2.6719,-2.7031,-2.7547,-2.8026,-2.857,-2.904,-2.9568,-3.0039,-3.084,0.0,0.0,0.0,0.0,0.0,0.0,0.0,0.0,0.0,0.0,-3.7974,-3.7974,0.0,0.0,0.0,0.0,0.0,0.0,0.0,0.0,-3.7974,-3.7974,-3.7974,0.0,-3.7974,-3.7974,-3.7589,-3.7204,0.0,-3.6795,-3.6411,-3.6411,0.0,-3.6531,-3.694,-3.7108,-3.7324,-3.7733,-3.7902,-3.7974,-3.7974,0.0,0.0,0.0,0.0,0.0,0.0,0.0,-3.7974,-3.7974,-3.7974,-3.7974,-3.7974,-3.7974,-3.7974,-3.7974,-3.7974,-3.7974,-3.7974,-3.7974,-3.7974,-3.7974,-3.7974,-3.7974,-3.7974,-3.7974,-3.7974,-3.7974,-3.7974,-3.7974,-3.7974,-3.7974,-3.7974,-3.7974,-3.7974,-3.7974,-3.7974,-3.7974,-3.7974,-3.7974,0.0,0.0,0.0,0.0,0.0,0.0,0.0,0.0,0.0,0.0,0.0,0.0,0.0,0.0,0.0,0.0,0.0,0.0,0.0,0.0,0.0,0.0,0.0,-2.6591,-2.6591,-2.6591,-2.6591,-2.6591,-2.6811,-2.7105,-2.7508,-2.8122,-2.8547,-2.9071,-2.9493,-3.0255,0.0,0.0,0.0,0.0,-3.3304,0.0,0.0,0.0,0.0,0.0,-3.7761,-3.7974,0.0,-3.7974,-3.7974,-3.7974,0.0,0.0,0.0,0.0,-3.7974,-3.7974,-3.7974,-3.7974,-3.7974,-3.7974,-3.7757,-3.7565,-3.7565,-3.7324,0.0,0.0,0.0,0.0,0.0,0.0,-3.7637,-3.7926,-3.7974,-3.7974,0.0,0.0,0.0,0.0,0.0,0.0,0.0,0.0,-3.7974,-3.7974,-3.7974,-3.7974,-3.7974,-3.7974,-3.7974,-3.7974,-3.7974,-3.7974,-3.7974,-3.7974,-3.7974,-3.7974,-3.7974,-3.7974,-3.7974,-3.7974,-3.7974,-3.7974,-3.7974,-3.7974,-3.7974,-3.7974,-3.7974,-3.7974,-3.7974,-3.7974,-3.7974,-3.7974,-3.7974,-3.7974,0.0,0.0,0.0,0.0,0.0,0.0,0.0,0.0,0.0,0.0,0.0,0.0,0.0,0.0,0.0,0.0,0.0,0.0,0.0,0.0,0.0,0.0,0.0,-2.6591,-2.6591,-2.6591,-2.6591,-2.6591,-2.6591,-2.6793,-2.7196,-2.7581,-2.8022,-2.8615,-2.8947,-2.9331,0.0,0.0,0.0,0.0,-3.1842,0.0,0.0,0.0,0.0,0.0,0.0,0.0,0.0,-3.7761,-3.7868,-3.7974,-3.7974,0.0,0.0,0.0,0.0,0.0,-3.7974,-3.7974,-3.7974,-3.7974,-3.7974,-3.7974,-3.7974,0.0,0.0,0.0,0.0,0.0,0.0,0.0,0.0,0.0,0.0,0.0,0.0,0.0,0.0,0.0,0.0,0.0,0.0,-3.7974,-3.7974,-3.7974,-3.7974,-3.7974,-3.7974,-3.7974,-3.7974,-3.7974,-3.7974,-3.7974,-3.7974,-3.7974,-3.7974,-3.7974,-3.7974,-3.7974,-3.7974,-3.7974,-3.7974,-3.7974,0.0,0.0,-3.7974,-3.7974,-3.7974,-3.7974,-3.7974,-3.7974,-3.7974,-3.7974,-3.7974,-3.7974,0.0,0.0,0.0,0.0,0.0,0.0,0.0,0.0,0.0,0.0,0.0,0.0,0.0,0.0,0.0,0.0,0.0,0.0,0.0,0.0,0.0,-2.6591,-2.6591,-2.6591,-2.6591,-2.6591,-2.6591,-2.6591,-2.6591,-2.6793,-2.7196,-2.7581,-2.8399,-2.9356,-2.9431,-2.945,-2.9568,-2.9804,-3.0039,-3.0255,-3.0606,0.0,0.0,0.0,0.0,0.0,0.0,0.0,0.0,-3.6773,-3.712,-3.7974,-3.7974,0.0,0.0,0.0,0.0,0.0,-3.7974,-3.7974,-3.7974,-3.7974,-3.7974,-3.7974,-3.7974,0.0,0.0,0.0,0.0,0.0,0.0,0.0,0.0,0.0,0.0,0.0,0.0,0.0,0.0,0.0,0.0,0.0,-3.7974,-3.7974,-3.7974,-3.7974,-3.7974,-3.7974,-3.7974,-3.7974,-3.7974,-3.7974,-3.7974,-3.7974,-3.7974,-3.7974,-3.7974,-3.7974,-3.7974,-3.7974,-3.7974,-3.7974,-3.7974,-3.7974,0.0,-3.7974,-3.7974,-3.7974,-3.7974,-3.7974,-3.7974,-3.7974,-3.7974,-3.7974,-3.7974,-3.7974,0.0,0.0,0.0,0.0,0.0,0.0,0.0,0.0,0.0,0.0,0.0,0.0,0.0,0.0,0.0,0.0,0.0,0.0,0.0,0.0,0.0,-2.6591,-2.6591,-2.6591,-2.6591,-2.6591,-2.6591,-2.6591,-2.6591,-2.6683,-2.6866,-2.749,-2.8192,-2.8898,-2.912,-2.9213,-2.9213,-2.9331,-2.9568,-2.9686,0.0,0.0,0.0,0.0,0.0,0.0,0.0,0.0,0.0,0.0,-3.6557,-3.712,-3.7761,0.0,0.0,0.0,0.0,0.0,-3.7974,-3.7974,-3.7974,-3.7974,-3.7974,-3.7974,-3.7974,0.0,0.0,0.0,0.0,0.0,0.0,0.0,0.0,0.0,0.0,0.0,0.0,0.0,0.0,0.0,0.0,-3.7974,-3.7974,-3.7974,-3.7974,-3.7974,-3.7974,-3.7974,-3.7974,-3.7974,-3.7974,-3.7974,-3.7974,-3.7974,-3.7974,-3.7974,-3.7974,-3.7974,-3.7974,-3.7974,-3.7974,-3.7974,-3.7974,-3.7974,0.0,-3.7974,-3.7974,-3.7974,-3.7974,-3.7974,-3.7974,-3.7974,-3.7974,-3.7974,-3.7974,-3.8022,0.0,0.0,0.0,0.0,0.0,0.0,0.0,0.0,0.0,0.0,0.0,0.0,0.0,0.0,0.0,0.0,0.0,0.0,0.0,0.0,-2.6591,-2.6591,-2.6591,-2.6591,-2.6591,-2.6591,-2.6591,-2.6591,-2.6591,-2.6628,-2.6738,-2.7343,-2.7893,-2.8407,-2.8718,-2.8902,-2.8975,-2.8975,-2.9213,-2.9568,0.0,0.0,0.0,0.0,0.0,0.0,0.0,0.0,0.0,0.0,0.0,0.0,0.0,0.0,0.0,-3.7655,-3.7761,-3.7974,-3.7974,-3.7974,-3.7974,-3.7974,-3.7974,-3.7974,-3.7974,0.0,0.0,0.0,0.0,0.0,0.0,0.0,0.0,0.0,0.0,0.0,0.0,0.0,0.0,0.0,0.0,-3.7974,-3.7974,-3.7974,-3.7974,-3.7974,-3.7974,-3.7974,-3.7974,-3.7974,-3.7974,-3.7974,-3.7974,-3.7974,-3.7974,-3.7974,-3.7974,-3.7974,-3.7974,-3.7974,-3.7974,-3.7974,-3.7974,-3.7974,-3.7974,-3.7974,-3.7974,-3.7974,-3.7974,-3.7974,-3.7974,-3.7974,-3.7998,-3.8118,-3.819,-3.8262,0.0,0.0,0.0,0.0,0.0,0.0,0.0,0.0,0.0,0.0,0.0,0.0,0.0,0.0,0.0,0.0,0.0,0.0,0.0,0.0,-2.6591,-2.6591,-2.6591,-2.6591,-2.6591,-2.6591,-2.6591,-2.6591,-2.6591,-2.6774,-2.7141,-2.7196,-2.7636,-2.8388,-2.8425,-2.8645,-2.8975,-2.8975,-2.9331,-2.9922,-2.9922,0.0,0.0,0.0,0.0,0.0,0.0,0.0,0.0,0.0,0.0,0.0,0.0,0.0,-3.7761,-3.6665,-3.7096,-3.7974,-3.7974,-3.7974,-3.7974,-3.7974,-3.7974,0.0,-3.7974,-3.7974,0.0,0.0,0.0,0.0,0.0,0.0,0.0,0.0,0.0,0.0,0.0,0.0,0.0,-3.7974,-3.7974,-3.7974,-3.7974,-3.7974,-3.7974,-3.7974,-3.7974,-3.7974,-3.7974,-3.7974,-3.7974,-3.7974,-3.7974,-3.7974,-3.7974,-3.7974,-3.7974,-3.7974,-3.7974,-3.7974,-3.7974,-3.7974,-3.7974,-3.7974,-3.7974,-3.7974,-3.7974,-3.7974,-3.7974,-3.7974,-3.7974,-3.7974,-3.8046,-3.8575,-3.8767,-3.8839,0.0,0.0,0.0,0.0,0.0,0.0,0.0,0.0,0.0,0.0,0.0,0.0,0.0,0.0,0.0,0.0,0.0,0.0,0.0,-2.6591,-2.6591,-2.6591,-2.6591,-2.6591,-2.6591,-2.6591,-2.6591,-2.6591,-2.6591,-2.6664,-2.6811,-2.7068,-2.7343,-2.7655,-2.8168,-2.848,-2.8627,-2.8883,-2.9094,-2.9331,-2.9568,-2.9804,0.0,0.0,0.0,0.0,0.0,0.0,0.0,0.0,-3.4112,-3.5113,-3.5113,-3.5904,-3.6665,-3.5443,-3.5443,-3.5772,-3.553,-3.553,-3.553,-3.553,0.0,0.0,0.0,0.0,0.0,0.0,0.0,0.0,0.0,0.0,0.0,0.0,0.0,0.0,0.0,0.0,-3.7974,-3.7974,-3.7974,-3.7974,-3.7974,-3.7974,-3.7974,-3.7974,-3.7974,-3.7974,-3.7974,-3.7974,-3.7974,-3.7974,-3.7974,-3.7974,-3.7974,-3.7974,-3.7974,-3.7974,-3.7974,-3.7974,-3.7974,-3.7974,-3.7974,-3.7974,-3.7974,-3.7974,-3.7974,-3.7974,-3.7974,-3.7974,-3.7974,-3.819,-3.8527,-3.8743,-3.9032,-3.9393,0.0,0.0,0.0,0.0,0.0,0.0,0.0,0.0,0.0,0.0,0.0,0.0,0.0,0.0,0.0,0.0,0.0,0.0,-2.6591,-2.6591,-2.6591,-2.6591,-2.6591,-2.6591,-2.6591,-2.6591,-2.6591,-2.6591,-2.6591,-2.6591,-2.6591,-2.6866,-2.7068,-2.7196,-2.7765,-2.815,-2.8407,-2.8682,-2.8983,-2.9213,-2.945,-2.9568,0.0,0.0,0.0,0.0,0.0,0.0,0.0,0.0,-3.3098,-3.3663,-3.3663,-3.4536,-3.5333,-3.4224,-3.4112,-3.4202,-3.409,-3.3957,-3.3845,0.0,0.0,0.0,0.0,0.0,0.0,0.0,0.0,0.0,0.0,0.0,0.0,0.0,0.0,0.0,0.0,-3.7096,-3.6989,-3.7441,-3.7441,-3.7548,-3.7974,-3.7974,-3.7868,-3.7441,-3.7441,-3.7441,-3.7441,-3.7096,-3.6989,-3.7441,-3.7096,-3.7096,-3.7441,-3.7441,-3.7441,-3.7441,-3.7441,-3.7655,-3.7974,-3.7974,-3.7974,-3.7974,-3.7974,-3.7974,-3.7974,-3.7974,-3.7974,-3.7998,-3.819,-3.8479,-3.8864,-3.92,-3.9537,-3.9922,0.0,0.0,0.0,0.0,0.0,0.0,0.0,0.0,0.0,0.0,0.0,0.0,0.0,0.0,0.0,0.0,0.0,0.0,-2.6591,-2.6591,-2.6591,-2.6591,-2.6591,-2.6591,-2.6591,-2.6591,-2.6591,-2.6591,-2.6591,-2.6591,-2.6591,-2.6591,-2.6793,-2.7178,-2.7178,-2.7618,-2.8388,-2.8388,-2.8843,-2.945,-2.945,-2.9686,-2.9922,0.0,0.0,0.0,0.0,0.0,0.0,0.0,-3.2187,-3.2187,-3.2187,-3.2964,-3.3754,-3.2892,-3.3325,-3.3979,-3.3979,-3.3733,0.0,0.0,0.0,0.0,0.0,0.0,0.0,0.0,0.0,0.0,0.0,0.0,0.0,0.0,0.0,0.0,-3.6231,-3.5113,-3.4891,-3.6013,-3.6231,-3.6665,-3.7868,-3.7974,-3.7441,-3.6231,-3.6231,-3.6231,-3.6231,-3.5002,-3.5002,-3.6122,-3.5002,-3.5002,-3.6122,-3.6231,-3.6231,-3.6231,-3.6231,-3.6773,-3.7974,-3.7974,-3.7974,-3.7974,-3.7974,-3.7974,-3.7974,-3.7998,-3.7998,-3.8046,-3.8599,-3.8839,-3.896,-4.0018,-4.0403,-4.0475,0.0,0.0,0.0,0.0,0.0,0.0,0.0,0.0,0.0,0.0,0.0,0.0,0.0,0.0,0.0,0.0,0.0,0.0,-2.6591,-2.6591,-2.6591,-2.6591,-2.6591,-2.6591,-2.6591,-2.6591,-2.6591,-2.6591,-2.6591,-2.6591,-2.6591,-2.6591,-2.6646,-2.6774,-2.705,-2.7471,-2.7967,-2.826,-2.8744,-2.9094,-2.9094,-2.9213,-2.9213,0.0,0.0,0.0,0.0,0.0,0.0,0.0,0.0,0.0,-3.1169,-3.1612,-3.2166,-3.1285,-3.1053,-3.1053,-3.0917,-3.0801,0.0,0.0,0.0,0.0,0.0,0.0,0.0,0.0,0.0,0.0,0.0,0.0,0.0,0.0,0.0,-3.4891,-3.4891,-3.467,-3.4558,-3.4891,-3.4891,-3.5113,-3.5443,-3.5443,-3.5333,-3.5002,-3.4891,-3.4891,-3.4891,-3.4558,-3.4558,-3.4891,-3.4558,-3.4558,-3.4891,-3.4891,-3.4891,-3.4891,-3.4891,-3.5113,-3.5443,-3.5443,-3.5881,-3.6773,-3.6773,-3.7227,-3.8022,-3.7387,-3.7769,-3.8515,-3.8137,-3.8783,-3.997,-4.0282,-4.0643,-4.098,0.0,0.0,0.0,0.0,0.0,0.0,0.0,0.0,0.0,0.0,0.0,0.0,0.0,0.0,0.0,0.0,0.0,0.0,0.0,-2.6591,-2.6591,-2.6591,-2.6591,-2.6591,-2.6591,-2.6591,-2.6591,-2.6591,-2.6591,-2.6591,-2.6591,-2.6591,-2.6591,-2.6591,-2.683,-2.716,-2.7563,-2.7967,-2.837,-2.8773,-2.892,-2.8975,-2.8975,0.0,0.0,0.0,0.0,0.0,0.0,0.0,0.0,0.0,-3.0255,-3.0372,-3.0704,-3.0255,-3.0039,-2.9686,-2.9568,0.0,0.0,0.0,0.0,0.0,0.0,0.0,0.0,0.0,0.0,0.0,0.0,0.0,0.0,0.0,-3.3685,-3.3685,-3.3685,-3.3346,-3.3233,-3.3685,-3.3685,-3.3888,-3.4336,-3.4447,-3.4224,-3.3776,-3.3685,-3.3685,-3.3685,-3.3233,-3.3233,-3.3685,-3.3233,-3.3233,-3.3685,-3.3685,-3.3685,-3.3685,-3.3685,-3.3459,-3.3006,-3.4,-3.4781,-3.5443,-3.5443,-3.5995,-3.6772,-3.6407,-3.6769,-3.7557,-3.7268,-3.7884,-3.8874,-3.9082,-3.9337,-3.9592,0.0,0.0,0.0,0.0,0.0,0.0,0.0,0.0,0.0,0.0,0.0,0.0,0.0,0.0,0.0,0.0,0.0,0.0,0.0,0.0,-2.6591,-2.6591,-2.6591,-2.6591,-2.6591,-2.6591,-2.6591,-2.6591,-2.6591,-2.6591,-2.6591,-2.6591,-2.6591,-2.6591,-2.6591,-2.6811,-2.7196,-2.7563,-2.7967,-2.8425,-2.8792,-2.8957,-2.8975,-2.8975,0.0,0.0,0.0,0.0,0.0,0.0,0.0,0.0,-2.945,-2.945,-2.9568,-2.9804,-2.9686,-2.945,-2.945,0.0,0.0,0.0,0.0,0.0,0.0,0.0,0.0,0.0,0.0,0.0,0.0,0.0,0.0,-3.2571,-3.2571,-3.2571,-3.2571,-3.1556,-3.1344,-3.2457,-3.2571,-3.2892,-3.4,-3.4112,-3.3663,-3.2571,-3.2571,-3.2571,-3.2571,-3.146,-3.146,-3.2457,-3.146,-3.146,-3.2571,-3.2571,-3.2571,-3.2571,-3.2571,-3.2018,-3.0995,-3.3119,-3.4112,-3.4224,-3.4379,-3.4775,-3.5076,-3.5049,-3.5331,-3.5743,-3.6242,-3.6416,-3.6578,-3.7134,-3.7309,-3.7309,0.0,0.0,0.0,0.0,0.0,0.0,0.0,0.0,0.0,0.0,0.0,0.0,0.0,0.0,0.0,0.0,0.0,0.0,0.0,0.0,-2.6591,-2.6591,-2.6591,-2.6591,-2.6591,-2.6591,-2.6591,-2.6591,-2.6591,-2.6591,-2.6591,-2.6591,-2.6591,-2.6591,-2.6591,-2.6811,-2.7178,-2.727,-2.7728,-2.8407,-2.848,-2.87,-2.8975,-2.8975,-2.8975,0.0,0.0,0.0,0.0,0.0,0.0,0.0,-2.945,-2.9331,-2.9213,-2.945,-2.9331,-2.9094,0.0,-2.9094,0.0,0.0,0.0,0.0,0.0,0.0,0.0,0.0,0.0,0.0,0.0,0.0,-3.1344,-3.1344,-3.1344,-3.1344,-3.1344,-3.1112,-3.1015,-3.1228,-3.1344,-3.1344,-3.1672,-3.1672,-3.1556,-3.1344,-3.1344,-3.1344,-3.1344,-3.0995,-3.0995,-3.1228,-3.0995,-3.0995,-3.1228,-3.1344,-3.1344,-3.1344,-3.1344,-3.1112,-3.0898,-3.1441,-3.2113,-3.314,-3.441,-3.4967,-3.5119,-3.4825,-3.5401,-3.6242,-3.5776,-3.6189,-3.7156,-3.7265,-3.7309,-3.7309,0.0,0.0,0.0,0.0,0.0,0.0,0.0,0.0,0.0,0.0,0.0,0.0,0.0,0.0,0.0,0.0,0.0,0.0,0.0,0.0,-2.6591,-2.6591,-2.6591,-2.6591,-2.6591,-2.6591,-2.6591,-2.6591,-2.6591,-2.6591,-2.6591,-2.6591,-2.6591,-2.6591,-2.6591,-2.6701,-2.6903,-2.7105,-2.7526,-2.8113,-2.8315,-2.8627,-2.8975,-2.8975,-2.8975,-2.8975,-2.8975,0.0,0.0,0.0,0.0,0.0,0.0,0.0,-2.8975,-2.9213,-2.9094,-2.8975,0.0,0.0,0.0,0.0,0.0,0.0,0.0,0.0,0.0,0.0,0.0,0.0,0.0,-3.0762,-3.0898,-3.0898,-3.0898,-3.0898,-3.0898,-3.0898,-3.0898,-3.0898,-3.0898,-3.0898,-3.0898,-3.0898,-3.0898,-3.0898,-3.0898,-3.0898,-3.0898,-3.0898,-3.0898,-3.0898,-3.0898,-3.0898,-3.0898,-3.0898,-3.0898,-3.0898,-3.0898,-3.0996,-3.1191,-3.1191,-3.1525,-3.2246,-3.3258,-3.3803,-3.4031,-3.3801,-3.4228,-3.5024,-3.4551,-3.4881,-3.5479,-3.5479,-3.5479,-3.5479,0.0,0.0,0.0,0.0,0.0,0.0,0.0,0.0,0.0,0.0,0.0,0.0,0.0,0.0,0.0,0.0,0.0,0.0,0.0,0.0,0.0,-2.6591,-2.6591,-2.6591,-2.6591,-2.6591,-2.6591,-2.6591,-2.6591,-2.6591,-2.6591,-2.6591,-2.6591,-2.6591,-2.6591,-2.6591,-2.6609,-2.694,-2.7343,-2.7801,-2.815,-2.8572,-2.8975,-2.8975,-2.8975,-2.8975,-2.8975,-2.8975,-2.8975,-2.8975,0.0,0.0,0.0,0.0,-2.8975,-2.8975,-2.8975,-2.8975,0.0,0.0,0.0,0.0,0.0,0.0,0.0,0.0,0.0,0.0,0.0,0.0,-3.0509,-3.0762,-3.0898,-3.0898,-3.0898,-3.0898,-3.0898,-3.0898,-3.0898,-3.0898,-3.0898,-3.0898,-3.0898,-3.0898,-3.0898,-3.0898,-3.0898,-3.0898,-3.0898,-3.0898,-3.0898,-3.0898,-3.0898,-3.0898,-3.0898,-3.0898,-3.0898,-3.0898,-3.0957,-3.1191,-3.1523,-3.168,-3.1699,-3.166,-3.209,-3.248,-3.2793,-3.2871,-3.3105,-3.3418,-3.3418,-3.3418,-3.3418,-3.3418,-3.3418,-3.3418,0.0,0.0,0.0,0.0,0.0,0.0,0.0,0.0,0.0,0.0,0.0,0.0,0.0,0.0,0.0,0.0,0.0,0.0,-2.6591,0.0,0.0,-2.6591,-2.6591,-2.6591,-2.6591,-2.6591,-2.6591,-2.6591,-2.6591,-2.6591,0.0,0.0,-2.6591,-2.6591,-2.6591,-2.6591,-2.6591,-2.6646,-2.7086,-2.7765,-2.782,-2.8297,-2.8975,-2.8975,-2.8975,-2.8975,-2.8975,-2.8975,-2.8975,-2.8975,-2.8975,0.0,0.0,0.0,-2.8975,-2.8975,-2.8975,-2.8975,0.0,0.0,0.0,0.0,0.0,0.0,0.0,0.0,0.0,0.0,0.0,-3.0509,-3.0762,-3.0879,-3.0898,-3.0898,-3.0898,-3.0898,-3.0898,-3.0898,-3.0898,-3.0898,-3.0898,-3.0898,-3.0898,-3.0898,-3.0898,-3.0898,-3.0898,-3.0898,-3.0898,-3.0898,-3.0898,-3.0898,-3.0898,-3.0898,-3.0898,-3.0898,-3.0898,-3.0898,-3.1269,-3.1465,-3.1543,-3.2285,-3.2422,-3.2109,-3.2519,-3.2734,-3.2832,-3.3184,-3.3379,-3.3418,-3.3418,-3.3418,-3.3418,-3.3418,-3.3418,-3.3418,0.0,0.0,0.0,0.0,0.0,0.0,0.0,0.0,0.0,0.0,0.0,0.0,0.0,0.0,0.0,-2.6591,-2.6591,-2.6591,-2.6591,-2.6591,-2.6591,-2.6591,-2.6591,-2.6591,-2.6591,-2.6591,-2.6591,-2.6591,-2.6591,0.0,0.0,-2.6591,-2.6591,0.0,-2.6591,-2.6591,-2.6591,-2.6591,-2.705,-2.7765,-2.7765,-2.826,-2.8975,-2.8975,-2.8975,-2.8975,-2.8975,-2.8975,-2.8975,-2.8975,-2.8975,-2.8975,-2.8975,0.0,0.0,0.0,-2.8975,0.0,0.0,0.0,0.0,0.0,0.0,0.0,0.0,0.0,0.0,0.0,-2.9804,-3.0039,-3.0274,-3.0645,-3.0898,-3.0898,-3.0898,-3.0898,-3.0898,-3.0898,-3.0898,-3.0898,-3.0898,-3.0898,-3.0898,-3.0898,-3.0898,-3.0898,-3.0898,-3.0898,-3.0898,-3.0898,-3.0898,-3.0898,-3.0898,-3.0898,-3.0898,-3.0898,-3.1016,-3.125,-3.1426,-3.1777,-3.2246,-3.2617,-3.2695,-3.2539,-3.2969,-3.3144,-3.3164,-3.334,-3.3418,-3.3418,-3.3418,-3.3418,-3.3418,-3.3418,-3.3418,-3.3418,0.0,0.0,0.0,0.0,0.0,0.0,0.0,0.0,0.0,0.0,0.0,0.0,0.0,0.0,0.0,0.0,-2.6591,-2.6591,-2.6591,-2.6591,-2.6591,-2.6591,-2.6591,-2.6591,-2.6591,-2.6591,-2.6591,-2.6591,0.0,0.0,-2.6591,-2.6591,-2.6591,0.0,-2.6591,-2.6591,-2.6591,0.0,-2.705,-2.7765,-2.7765,-2.826,-2.8975,-2.8975,-2.8975,-2.8975,-2.8975,0.0,0.0,0.0,0.0,-2.8975,-2.8975,-2.8975,0.0,0.0,0.0,0.0,0.0,0.0,0.0,0.0,0.0,0.0,0.0,0.0,0.0,0.0,-2.9568,-2.9568,-2.9804,-3.0411,-3.0762,-3.0898,-3.0898,-3.0898,-3.0898,-3.0898,-3.0898,-3.0898,-3.0898,-3.0898,-3.0898,-3.0898,-3.0898,-3.0898,-3.0898,-3.0898,-3.0898,-3.0898,-3.0898,-3.0898,-3.0898,-3.0898,-3.0898,-3.0996,-3.1211,-3.1523,-3.1738,-3.2187,-3.2793,-3.291,-3.2949,-3.2969,-3.3281,-3.3418,-3.3418,-3.3418,-3.3418,-3.3418,-3.3418,-3.3418,-3.3418,-3.3418,-3.3418,-3.3418,0.0,0.0,0.0,0.0,0.0,0.0,0.0,0.0,0.0,0.0,0.0,0.0,-2.6591,-2.6591,-2.6591,-2.6591,-2.6591,-2.6591,-2.6591,-2.6591,-2.6591,-2.6591,-2.6591,0.0,-2.6591,-2.6591,-2.6591,-2.6591,0.0,0.0,-2.6591,-2.6591,-2.6591,-2.6591,-2.6591,-2.6591,-2.6591,0.0,0.0,-2.7765,-2.7765,-2.826,-2.8975,-2.8975,-2.8975,-2.8975,-2.8975,0.0,0.0,0.0,0.0,0.0,0.0,-2.8975,-2.8975,0.0,0.0,0.0,0.0,0.0,0.0,0.0,0.0,0.0,0.0,0.0,0.0,0.0,-2.9331,-2.9568,-2.9804,-3.0157,-3.0509,-3.0879,-3.0898,-3.0898,-3.0898,-3.0898,-3.0898,-3.0898,-3.0898,-3.0898,-3.0898,-3.0898,-3.0898,-3.0898,-3.0898,-3.0898,-3.0898,-3.0898,-3.0898,-3.0898,-3.0898,-3.0898,-3.0898,-3.1289,-3.1504,-3.1523,-3.2344,-3.2754,-3.2812,-3.3203,-3.3379,-3.3379,-3.3418,-3.3418,-3.3418,-3.3418,-3.3418,-3.3418,-3.3418,-3.3418,-3.3418,-3.3418,-3.3418,-3.3418,0.0,0.0,0.0,0.0,0.0,0.0,0.0,0.0,0.0,0.0,0.0,0.0,0.0,-2.6591,-2.6591,-2.6591,-2.6591,-2.6591,-2.6591,-2.6591,-2.6591,-2.6591,-2.6591,-2.6591,-2.6591,-2.6591,-2.6591,0.0,0.0,-2.6591,-2.6591,-2.6591,-2.6591,-2.6591,-2.6591,-2.6591,-2.6591,-2.6591,0.0,0.0,0.0,-2.826,-2.8975,-2.8975,0.0,0.0,0.0,0.0,0.0,0.0,0.0,0.0,0.0,0.0,0.0,0.0,0.0,0.0,0.0,0.0,0.0,0.0,0.0,0.0,0.0,-2.8975,-2.8975,-2.8975,-2.9094,-2.9331,-2.9804,-3.0157,-3.0509,-3.0879,-3.0898,-3.0898,-3.0898,-3.0898,-3.0898,-3.0898,-3.0898,-3.0898,-3.0898,-3.0898,-3.0898,-3.0898,-3.0898,-3.0898,-3.0898,-3.0898,-3.0898,-3.0898,-3.0898,-3.1016,-3.1289,-3.1445,-3.1797,-3.2344,-3.2656,-3.293,-3.3203,-3.3359,-3.3418,-3.3418,-3.3418,-3.3418,-3.3418,-3.3418,-3.3418,-3.3418,-3.3418,-3.3418,-3.3418,-3.3418,-3.3418,-3.3418,0.0,0.0,0.0,0.0,0.0,0.0,0.0,0.0,0.0,-2.6591,0.0,0.0,0.0,0.0,-2.6591,-2.6591,-2.6591,-2.6591,-2.6591,-2.6591,-2.6591,-2.6591,-2.6591,-2.6591,-2.6591,-2.6719,-2.6719,-2.6591,-2.6719,-2.6719,0.0,-2.6591,-2.6591,-2.6591,-2.6591,-2.6591,0.0,0.0,0.0,-2.7765,0.0,0.0,-2.8975,0.0,0.0,0.0,0.0,0.0,0.0,0.0,0.0,0.0,0.0,0.0,0.0,0.0,0.0,0.0,-2.8975,0.0,0.0,0.0,0.0,-2.8975,-2.8975,0.0,-2.8975,-2.8975,-2.8975,-2.9213,-2.9804,-3.0039,-3.0392,-3.0645,-3.0762,-3.0762,-3.0762,-3.0879,-3.0898,-3.0898,-3.0898,-3.0898,-3.0898,-3.0898,-3.0898,-3.0898,-3.0898,0.0,-3.0898,-3.0898,-3.0898,-3.0898,-3.0898,-3.1094,-3.1504,-3.166,-3.209,-3.2793,-3.293,-3.3144,-3.3418,-3.3418,-3.3418,-3.3418,-3.3418,-3.3418,-3.3418,-3.3418,-3.3418,-3.3418,-3.3418,-3.3418,-3.3418,-3.3418,-3.3418,-3.3418,0.0,0.0,0.0,0.0,0.0,0.0,0.0,0.0,-2.6591,-2.6591,0.0,0.0,0.0,0.0,0.0,-2.6591,-2.6591,-2.6591,-2.6591,-2.6591,-2.6591,-2.6591,-2.6591,-2.6591,-2.6591,-2.6958,-2.6976,-2.6591,-2.6976,-2.6958,-2.6591,-2.6591,-2.6591,-2.6591,-2.6591,-2.6591,-2.6591,0.0,-2.705,-2.7765,0.0,-2.826,-2.8975,0.0,0.0,0.0,-2.8975,-2.8975,0.0,0.0,0.0,0.0,0.0,0.0,0.0,0.0,0.0,0.0,0.0,0.0,0.0,0.0,0.0,0.0,-2.8975,0.0,-2.8975,-2.8975,-2.8975,-2.9213,-2.9804,-2.9922,-3.0039,-3.0392,-3.0392,-3.0392,-3.0392,-3.0645,-3.0898,-3.0898,-3.0898,-3.0898,-3.0898,-3.0898,-3.0898,-3.0898,-3.0898,-3.0898,-3.0898,-3.0898,-3.0898,-3.0898,-3.0898,-3.1113,-3.1543,-3.1973,-3.2402,-3.2812,-3.3223,-3.3418,-3.3418,-3.3418,-3.3418,-3.3418,-3.3418,-3.3418,-3.3418,-3.3418,-3.3418,-3.3418,-3.3418,-3.3418,-3.3418,-3.3418,-3.3418,-3.3418,0.0,0.0,0.0,0.0,0.0,-2.6591,-2.6591,-2.6591,-2.6591,0.0,0.0,0.0,-2.6591,-2.6591,-2.6591,-2.6591,-2.6591,-2.6591,-2.6591,-2.6591,-2.6591,-2.6591,-2.6591,-2.6591,-2.6591,-2.6701,-2.6701,-2.6591,-2.6701,-2.6701,-2.6591,-2.6591,-2.6591,-2.6591,-2.6591,-2.6591,-2.6591,-2.6591,0.0,0.0,-2.7765,-2.826,0.0,0.0,0.0,0.0,0.0,-2.8975,-2.8975,0.0,-2.8975,-2.8975,0.0,0.0,0.0,0.0,0.0,0.0,-2.8975,0.0,0.0,0.0,0.0,0.0,0.0,0.0,-2.8975,-2.8975,-2.8975,-2.9094,-2.9568,-2.9568,-2.9686,-3.0039,-3.0411,-3.0762,-3.0762,-3.0879,-3.0898,-3.0898,-3.0898,-3.0898,-3.0898,-3.0898,-3.0898,0.0,-3.0898,-3.0898,-3.0898,-3.0898,-3.0898,-3.0898,-3.1191,-3.1543,-3.1992,-3.2402,-3.2832,-3.3242,-3.3359,-3.3418,-3.3418,-3.3418,-3.3418,-3.3418,-3.3418,-3.3418,-3.3418,-3.3418,-3.3418,-3.3418,-3.3418,-3.3418,-3.3418,-3.3418,-3.3418,-3.3418,0.0,0.0,0.0,0.0,0.0,-2.6591,-2.6591,-2.6591,-2.6591,0.0,0.0,0.0,-2.6591,-2.6591,-2.6591,-2.6591,-2.6591,-2.6591,-2.6591,-2.6591,-2.6591,-2.6591,-2.6591,-2.6591,-2.6591,-2.6756,-2.6756,-2.6591,-2.6756,-2.6756,-2.6591,-2.6591,-2.6591,-2.6591,-2.6591,0.0,0.0,0.0,0.0,0.0,-2.7765,0.0,0.0,-2.8975,-2.8975,0.0,0.0,0.0,-2.8975,-2.8975,-2.8975,0.0,0.0,0.0,0.0,0.0,0.0,0.0,0.0,0.0,0.0,0.0,0.0,0.0,-2.8975,-2.8975,-2.8975,0.0,-2.8975,-2.9094,-2.945,-2.945,-2.9686,-3.0039,-3.0392,-3.0645,-3.0645,-3.0762,-3.0898,-3.0898,-3.0898,-3.0898,-3.0898,-3.0898,-3.0898,-3.0898,-3.0898,-3.0898,-3.0898,-3.0898,-3.0898,-3.0898,-3.1309,-3.1719,-3.2168,-3.2578,-3.3008,-3.3418,-3.3418,-3.3418,-3.3418,-3.3418,-3.3418,-3.3418,-3.3418,-3.3418,-3.3418,-3.3418,-3.3418,-3.3418,-3.3418,-3.3418,-3.3418,-3.3418,-3.3418,-3.3418,0.0,0.0,-2.4889,-2.6026,-2.6245,-2.6245,-2.6245,-2.6245,-2.6245,0.0,-2.6482,-2.6591,-2.6591,-2.6591,-2.6591,-2.6591,-2.6591,-2.6591,-2.6591,-2.6591,-2.6591,-2.6591,-2.6591,-2.6591,-2.6591,-2.694,-2.694,-2.6373,-2.694,-2.6921,-2.6373,-2.6591,-2.6591,-2.6591,0.0,0.0,0.0,0.0,0.0,-2.771,-2.7746,-2.8223,0.0,0.0,-2.8975,0.0,-2.8975,-2.8975,-2.8975,-2.8975,-2.8975,0.0,0.0,0.0,0.0,0.0,-2.8975,0.0,0.0,0.0,0.0,0.0,0.0,0.0,-2.8975,-2.8975,-2.8975,0.0,-2.8975,-2.9094,-2.9194,-2.9194,-2.9431,-2.9903,-3.002,-3.0274,-3.0392,-3.0762,-3.0898,-3.0898,-3.0898,-3.0898,-3.0898,-3.0898,-3.0898,-3.0898,-3.0898,-3.0898,-3.0898,-3.0898,-3.0918,-3.0957,-3.1367,-3.1797,-3.2226,-3.2656,-3.3047,-3.3418,-3.3418,-3.3418,-3.3418,-3.3418,-3.3418,-3.3418,-3.3418,-3.3418,-3.3418,-3.3418,-3.3418,-3.3418,-3.3418,-3.3418,-3.3418,-3.3418,-3.3418,-3.3418,0.0,-2.3311,-2.3424,-2.3648,-2.3648,-2.3648,-2.3648,-2.3648,-2.4094,-2.5,-2.6026,-2.6591,-2.6591,-2.6591,-2.6591,-2.6591,-2.6591,-2.6591,-2.6591,-2.6591,-2.6591,-2.6591,-2.6591,-2.6591,-2.6591,-2.6664,-2.6208,-2.511,-2.6208,-2.6208,-2.511,-2.6136,-2.6591,-2.6591,-2.6591,0.0,0.0,0.0,0.0,-2.7325,-2.7636,0.0,-2.8535,-2.8865,-2.8975,-2.8975,-2.8975,-2.8975,-2.8975,-2.8975,-2.8975,-2.8975,0.0,0.0,0.0,0.0,0.0,0.0,0.0,0.0,0.0,0.0,0.0,0.0,-2.8975,-2.8975,-2.8975,0.0,-2.8975,-2.8737,-2.7624,-2.7727,-2.7607,-2.6987,-2.7727,-2.9057,-3.0528,-3.0898,-3.0898,-3.0898,-3.0898,-3.0898,-3.0898,-3.0898,-3.0898,-3.0898,-3.0898,-3.0898,-3.0898,-3.0898,-3.1055,-3.1387,-3.1816,-3.2246,-3.2676,-3.3086,-3.334,-3.3418,-3.3418,-3.3418,-3.3418,-3.3418,-3.3418,-3.3418,-3.3418,-3.3418,-3.3418,-3.3418,-3.3418,-3.3418,-3.3418,-3.3418,-3.3418,-3.3418,-3.3418,-3.3418,-2.1957,-2.207,-2.2297,-2.2862,-2.2974,-2.3199,-2.376,-2.3424,-2.3648,-2.5459,-2.6245,-2.6591,-2.6591,-2.6591,-2.6591,-2.6591,-2.6591,-2.6591,-2.6591,-2.6591,-2.6591,-2.6591,-2.6591,-2.6591,-2.6591,-2.6026,-2.5679,-2.5679,-2.5679,-2.5679,-2.5679,-2.6354,-2.6245,-2.5679,-2.6354,-2.6245,0.0,0.0,-2.6701,-2.6921,-2.7306,0.0,-2.8407,-2.8608,-2.881,-2.8975,-2.8975,-2.8975,-2.8975,-2.8975,-2.8975,0.0,0.0,-2.8975,-2.8975,0.0,-2.8975,-2.8975,0.0,0.0,0.0,-2.8975,0.0,0.0,0.0,-2.8975,-2.8975,-2.8975,-2.8975,-2.8737,-2.8122,-2.7624,-2.7246,-2.7004,-2.7366,-2.7966,-2.8838,-2.9922,-3.0762,-3.0898,-3.0898,-3.0898,-3.0898,-3.0898,-3.0898,-3.0898,-3.0898,-3.0898,-3.0898,-3.0898,-3.1074,-3.1504,-3.1953,-3.2363,-3.2793,-3.3203,-3.3418,-3.3418,-3.3418,-3.3418,-3.3418,-3.3418,-3.3418,-3.3418,-3.3418,-3.3418,-3.3418,-3.3418,-3.3418,-3.3418,-3.3418,-3.3418,-3.3418,-3.3418,-3.3418,-3.3418,-2.0615,-2.0831,-2.1174,-2.2184,-2.2297,-2.2636,-2.3648,-2.3087,-2.3424,-2.5569,-2.5916,-2.5916,-2.5916,-2.5916,-2.5916,-2.5916,-2.5916,-2.5916,-2.5916,-2.5916,-2.6026,-2.6245,-2.6026,-2.6026,-2.6245,-2.511,-2.4889,-2.5916,-2.5128,-2.5348,-2.6245,-2.6245,-2.5679,-2.4778,-2.5569,-2.5348,0.0,0.0,0.0,-2.5934,0.0,-2.7151,-2.8187,-2.8333,-2.859,-2.8883,-2.8957,-2.8975,-2.8975,-2.8975,-2.8975,-2.8975,-2.8975,-2.8975,0.0,0.0,0.0,0.0,0.0,0.0,0.0,0.0,0.0,-2.8865,0.0,0.0,0.0,-2.8975,0.0,0.0,0.0,0.0,0.0,-2.6762,0.0,0.0,0.0,-2.8325,0.0,-3.0157,-3.0645,-3.0762,-3.0528,-3.0762,-3.0898,-3.0898,-3.0898,-3.0898,-3.0898,-3.0898,-3.1113,-3.1621,-3.1992,-3.2402,-3.291,-3.3242,-3.3418,-3.3418,-3.3418,-3.3418,-3.3418,-3.3418,-3.3418,-3.3418,-3.3418,-3.3418,-3.3418,-3.3418,-3.3418,-3.3418,-3.3418,-3.3418,-3.3418,-3.3418,-3.3418,-3.3418,-1.9591,-1.9591,-1.9591,-1.9822,-1.9822,-1.9822,-1.9938,-2.0845,-2.1843,-2.3199,-2.3424,-2.3424,0.0,0.0,0.0,0.0,0.0,0.0,-2.3424,0.0,-2.3888,-2.5,-2.3983,-2.3888,-2.5,-2.376,-2.3311,-2.3424,-2.4334,-2.4889,-2.5,-2.5,-2.4889,-2.4778,-2.3871,0.0,0.0,0.0,-2.3424,0.0,-2.3472,-2.4974,0.0,-2.8113,-2.8425,-2.8498,-2.8865,-2.8975,-2.8975,0.0,-2.8975,-2.8975,0.0,-2.8975,-2.8975,-2.8975,0.0,0.0,0.0,0.0,0.0,0.0,-2.8187,0.0,0.0,0.0,-2.8975,-2.8975,0.0,0.0,0.0,0.0,0.0,0.0,0.0,0.0,-2.4687,-2.5774,-2.6745,-2.7383,-2.9431,-3.0392,-2.9294,-3.0157,-3.0898,-3.0898,-3.0898,-3.0898,-3.0898,-3.0898,-3.1269,-3.207,-3.2148,-3.2559,-3.334,-3.3398,-3.3418,-3.3418,-3.3418,-3.3418,-3.3418,-3.3418,-3.3418,-3.3418,-3.3418,-3.3418,-3.3418,-3.3418,-3.3418,-3.3418,-3.3418,-3.3418,-3.3418,-3.3418,-3.3418,-3.3418,-1.9372,-1.9372,-1.9372,-1.9372,-1.9372,-1.9591,-2.0385,-2.1517,-2.2184,-2.1957,-2.2523,-2.2974,0.0,0.0,0.0,0.0,0.0,-2.2974,0.0,0.0,-2.3199,-2.376,-2.3983,-2.4334,-2.4778,-2.4334,-2.4445,-2.511,-2.4889,-2.4778,-2.4778,-2.4778,-2.4094,-2.2749,-2.2862,0.0,-2.1957,0.0,-2.2974,0.0,0.0,0.0,0.0,-2.6504,-2.7714,-2.8755,-2.892,-2.8975,-2.8975,0.0,-2.8975,0.0,0.0,0.0,0.0,0.0,0.0,0.0,0.0,0.0,0.0,0.0,0.0,0.0,-2.8095,0.0,-2.8278,0.0,0.0,0.0,0.0,0.0,0.0,0.0,-2.2952,0.0,0.0,0.0,-2.6261,-2.69,0.0,0.0,-2.892,-3.0138,-3.0898,-3.0898,-3.0898,-3.0898,-3.0898,-3.0898,-3.1289,-3.2148,-3.2168,-3.2578,-3.3418,-3.3418,-3.3418,-3.3418,-3.3418,-3.3418,-3.3418,-3.3418,-3.3418,-3.3418,-3.3418,-3.3418,-3.3418,-3.3418,-3.3418,-3.3418,-3.3418,-3.3418,-3.3418,-3.3418,-3.3418,-3.3418,-1.9372,0.0,0.0,-1.9372,-1.9372,-1.9822,-2.106,-2.1631,-2.1858,0.0,0.0,0.0,-2.1957,-2.1957,0.0,0.0,0.0,-2.1957,0.0,0.0,-2.2523,0.0,0.0,0.0,0.0,-2.4334,-2.4889,-2.6136,-2.4889,-2.4445,-2.4778,-2.4111,-2.2862,-2.1174,0.0,-2.1517,-2.0716,0.0,0.0,-2.2124,-2.2351,-2.2681,-2.3333,-2.4977,-2.6793,-2.8361,-2.8002,-2.8361,-2.8975,-2.8618,-2.8737,0.0,-2.8975,0.0,0.0,0.0,0.0,0.0,-2.8498,0.0,0.0,0.0,0.0,0.0,0.0,0.0,0.0,0.0,0.0,0.0,0.0,0.0,-2.2462,-2.2835,0.0,-2.2466,0.0,-2.3698,0.0,0.0,0.0,0.0,0.0,-2.9313,-3.0039,-3.0274,-3.0392,-3.0567,-3.1055,-3.0957,-3.1328,-3.2305,-3.2226,-3.2578,-3.3418,-3.3418,-3.3418,-3.3418,-3.3418,-3.3418,-3.3418,-3.3418,-3.3418,-3.3418,-3.3418,-3.3418,-3.3418,-3.3418,-3.3418,-3.3418,-3.3418,-3.3418,-3.3418,-3.3418,-3.3418,-3.3418,-1.9372,-1.9372,0.0,0.0,0.0,-1.9822,-2.106,-2.027,0.0,0.0,0.0,0.0,0.0,0.0,0.0,0.0,0.0,-1.9488,-1.9488,0.0,-2.1288,0.0,0.0,-2.3087,0.0,0.0,-2.3648,-2.4889,-2.3648,-2.3648,-2.4778,-2.241,-2.1288,-2.1174,-2.004,-1.9475,-1.9475,-1.9488,-1.965,-1.9905,-1.9918,-2.0948,-2.2793,0.0,-2.5567,-2.69,-2.5546,0.0,0.0,-2.7504,-2.7882,0.0,0.0,0.0,0.0,0.0,0.0,0.0,0.0,0.0,0.0,-2.7306,0.0,0.0,0.0,0.0,-2.7765,0.0,0.0,0.0,0.0,0.0,-2.0819,-2.0805,-2.1047,0.0,0.0,0.0,0.0,0.0,0.0,0.0,0.0,-2.7142,-2.7607,-2.892,-2.892,-2.9699,-3.1346,-3.1113,-3.1465,-3.2734,-3.2383,-3.2578,-3.3418,-3.3418,-3.3418,-3.3418,-3.3418,-3.3418,-3.3418,-3.3418,-3.3418,-3.3418,-3.3418,-3.3418,-3.3418,-3.3418,-3.3418,-3.3418,-3.3418,-3.3418,-3.3418,-3.3418,-3.3418,-3.3418,0.0,0.0,0.0,0.0,0.0,0.0,0.0,-1.9707,0.0,0.0,0.0,0.0,0.0,0.0,-1.9127,0.0,0.0,-1.9372,-1.9372,-1.9822,0.0,0.0,0.0,-2.1858,0.0,0.0,0.0,0.0,-2.3999,-2.3536,-2.241,-2.1631,-2.0716,-1.9938,0.0,-1.9479,0.0,0.0,0.0,0.0,0.0,-2.0848,-2.1673,0.0,-2.4252,-2.5668,-2.5178,-2.5546,0.0,-2.69,-2.7263,-2.7882,-2.8737,-2.8975,-2.8975,-2.8975,-2.8975,-2.8902,0.0,0.0,-2.8352,-2.7416,0.0,0.0,0.0,0.0,0.0,0.0,0.0,0.0,0.0,0.0,-2.0388,-2.0388,-2.0628,-2.094,0.0,-2.1853,-2.248,0.0,0.0,0.0,0.0,0.0,-2.7142,-2.7607,-2.7607,-2.8277,-2.9736,-2.9987,-3.0381,-3.0953,-3.1102,-3.1421,-3.1963,-3.1963,-3.2492,-3.3418,-3.3418,-3.3418,-3.3418,-3.3418,-3.3418,-3.3418,-3.3418,-3.3418,-3.3418,-3.3418,-3.3418,-3.3418,-3.3418,-3.3418,-3.3418,-3.3418,-3.3418,-3.3418,-1.9386,0.0,0.0,0.0,0.0,0.0,0.0,0.0,0.0,0.0,-1.8765,0.0,-1.8907,0.0,-1.9037,0.0,-1.9426,-1.9372,-1.9372,-1.9822,0.0,-1.9372,-2.0945,0.0,0.0,0.0,0.0,0.0,0.0,-2.2749,-2.1174,-2.073,-2.0211,-1.9519,0.0,-1.9679,-1.996,0.0,-2.012,0.0,0.0,-2.0949,0.0,0.0,-2.3024,-2.4317,0.0,-2.4193,-2.5056,-2.5423,-2.6277,-2.7142,-2.8002,-2.8618,-2.8975,-2.8975,-2.8975,-2.892,-2.8663,-2.8682,0.0,-2.7801,-2.7691,0.0,-2.694,0.0,-2.6646,0.0,0.0,0.0,0.0,0.0,-2.008,-2.008,-2.0414,-2.0832,0.0,-2.1867,0.0,0.0,0.0,0.0,0.0,-2.5194,-2.579,-2.6294,-2.6294,-2.6935,-2.8402,-2.8648,-2.9026,-2.9583,-2.9708,-3.0012,-3.0531,-3.0531,-3.1065,-3.1854,-3.2365,-3.2638,-3.2638,-3.3165,-3.3418,-3.3418,-3.3418,-3.3418,-3.3418,-3.3418,-3.3418,-3.3418,-3.3418,-3.3418,-3.3418,-3.3418,-3.3418,-3.3418,0.0,0.0,0.0,0.0,-1.9372,0.0,0.0,0.0,-1.8881,0.0,-1.8557,-1.8542,-1.8822,-1.8854,-1.9037,-1.9324,-1.9338,0.0,-1.9412,-2.0529,0.0,0.0,-2.1631,-2.2297,-2.1174,0.0,0.0,0.0,0.0,0.0,-2.1103,-1.9965,-1.9546,-1.9826,-1.9826,0.0,-2.0254,-2.0254,-2.0428,-2.0722,-2.1002,-2.1109,-2.1109,-2.1109,-2.1839,-2.2827,-2.1601,-2.2716,-2.4687,-2.345,-2.4794,-2.6762,-2.7021,-2.7882,-2.8856,-2.8975,-2.8975,-2.8975,-2.8975,-2.8718,-2.8425,-2.8407,-2.8095,0.0,0.0,0.0,-2.6752,0.0,0.0,0.0,0.0,0.0,-1.9786,-1.98,-2.0294,-2.0775,-2.1069,-2.1727,-2.2104,0.0,0.0,0.0,0.0,-2.3106,-2.3604,-2.4949,-2.4949,-2.5708,0.0,-2.7105,-2.7429,-2.8648,-2.8213,-2.8384,-2.9117,-2.9117,-2.9117,-2.9248,-3.0549,-3.1176,-3.1176,-3.2638,-3.3292,-3.3292,-3.3418,-3.3418,-3.3418,-3.3418,-3.3418,-3.3418,-3.3418,-3.3418,-3.3418,-3.3418,-3.3418,-3.3418,-2.0027,-2.0013,-1.9947,0.0,-1.9506,-1.9372,0.0,0.0,0.0,0.0,-1.8614,-1.8489,-1.8751,-1.8955,-1.9318,-1.9516,-1.9813,0.0,0.0,0.0,0.0,-1.9693,-2.0048,-2.0155,-1.9822,-2.1292,0.0,-2.0606,0.0,0.0,-2.0479,-1.9905,-1.984,-2.012,-2.012,-2.0281,-2.0561,-2.0561,-2.0735,-2.1002,-2.1082,-2.1109,-2.1109,0.0,-2.1348,-2.1601,-2.1235,-2.1475,-2.2215,-2.2827,-2.3574,-2.4425,-2.6399,-2.7263,-2.7744,-2.8737,-2.8975,-2.8975,-2.8975,-2.8902,-2.8755,-2.8462,-2.8315,-2.8132,0.0,0.0,0.0,0.0,0.0,0.0,0.0,0.0,0.0,-1.976,-2.0294,-2.0899,0.0,0.0,0.0,-2.248,0.0,-2.3106,-2.3106,-2.3106,-2.323,-2.3604,-2.3604,-2.4255,-2.5691,-2.5977,-2.6194,-2.6744,-2.6923,-2.723,-2.7668,-2.7668,-2.8196,-2.9248,-2.9509,-2.977,-2.977,-3.1194,-3.1835,-3.1835,-3.2892,-3.3418,-3.3418,-3.3418,-3.3418,-3.3418,-3.3418,-3.3418,-3.3418,-3.3418,-3.3418,-3.3418,-1.9768,0.0,0.0,-1.9533,0.0,0.0,-1.9351,0.0,0.0,-1.9,-1.8784,0.0,-1.8914,-1.8963,-1.9183,-1.9432,-1.9685,0.0,0.0,0.0,0.0,-1.9987,-1.9826,-1.9746,-1.9746,-2.0607,0.0,-1.9987,0.0,0.0,-2.0227,-2.0067,-2.0147,-2.0428,-2.0428,-2.0588,-2.0869,-2.0869,-2.0962,-2.1109,-2.1109,-2.1109,0.0,-2.1109,-2.1109,-2.1109,-2.1109,-2.1109,-2.1235,-2.1964,-2.2591,-2.3325,-2.4794,-2.6034,-2.7142,-2.7882,-2.8498,-2.8975,-2.8975,-2.8975,-2.8938,-2.87,-2.8645,-2.8553,-2.8132,-2.7561,-2.6725,0.0,-2.3821,-2.2493,0.0,0.0,0.0,0.0,0.0,0.0,0.0,0.0,0.0,0.0,-2.2731,-2.2981,-2.3106,-2.3106,-2.3106,-2.3106,-2.3106,-2.3479,-2.4209,-2.4393,-2.4653,-2.4991,-2.5329,-2.5666,-2.6004,-2.6157,-2.6635,-2.7419,-2.7932,-2.8328,-2.8328,-2.9752,-3.066,-3.1322,-3.211,-3.2892,-3.3418,-3.3418,-3.3418,-3.3418,-3.3418,-3.3418,-3.3418,-3.3418,-3.3418,-3.3418,0.0,0.0,0.0,0.0,0.0,0.0,0.0,-1.9248,0.0,-1.9305,0.0,-1.8927,-1.9199,-1.9013,-1.8964,-1.9199,0.0,-1.9479,-1.9736,-1.9711,-1.9929,-2.0172,-2.0254,-2.0227,-2.0227,-2.0267,0.0,0.0,0.0,0.0,-2.0347,-2.0307,-2.0454,-2.0735,-2.0735,0.0,0.0,-2.1109,-2.1109,-2.1109,-2.1109,-2.1109,-2.1109,-2.1109,-2.1109,-2.1109,-2.1109,-2.1109,-2.1109,-2.1109,-2.1839,-2.2827,-2.3076,-2.4671,-2.652,-2.69,-2.7882,-2.8737,-2.8975,-2.8975,-2.8975,-2.8975,-2.8975,-2.8902,-2.8553,-2.7488,-2.6033,-2.437,-2.3004,-2.1689,-2.047,0.0,0.0,0.0,0.0,0.0,0.0,0.0,0.0,0.0,0.0,0.0,-2.2981,-2.3106,-2.3106,-2.3106,-2.3106,-2.3106,-2.3106,0.0,-2.3252,-2.3588,-2.391,-2.4247,-2.4569,-2.4891,-2.5052,-2.5052,-2.6234,-2.6886,-2.6886,-2.8328,-2.9639,-3.0789,-3.1176,-3.1963,-3.3165,-3.3292,-3.3418,-3.3418,-3.3418,-3.3418,-3.3418,-3.3418,-3.3418,-3.3418,0.0,0.0,0.0,0.0,0.0,-1.9474,-1.9187,-1.9,-1.884,-1.9063,-1.8851,-1.8836,-1.9103,-1.9345,-1.946,-1.9497,-1.9726,0.0,0.0,0.0,0.0,-2.023,-2.0239,-2.0227,-2.0227,-2.0468,-2.0601,0.0,0.0,-2.0722,-2.0949,-2.0708,-2.0748,-2.1029,0.0,0.0,-2.1109,-2.1109,0.0,-2.1109,-2.1109,-2.1109,-2.1109,-2.1109,-2.1109,-2.1109,-2.1109,-2.1109,-2.1109,-2.1109,-2.1235,-2.1601,-2.2702,-2.345,-2.4178,-2.6399,-2.7142,-2.7624,-2.8737,-2.8975,-2.8975,-2.8975,-2.8975,-2.8975,-2.8902,-2.7896,-2.6439,-2.4875,-2.3474,-2.2069,-2.051,0.0,0.0,0.0,0.0,0.0,0.0,0.0,0.0,0.0,0.0,-2.2606,-2.2731,-2.2981,-2.3106,-2.3106,-2.3106,-2.3106,-2.3106,0.0,-2.3252,0.0,-2.391,-2.4247,0.0,0.0,-2.5052,-2.5052,-2.5322,-2.5442,-2.5442,-2.6886,-2.7535,-2.7932,-3.0272,-3.1451,-3.1707,-3.2892,-3.3418,-3.3418,-3.3418,-3.3418,-3.3418,-3.3418,-3.3418,-3.3418,0.0,0.0,0.0,0.0,0.0,0.0,0.0,-1.9352,0.0,-1.9398,-1.9259,-1.9181,-1.9316,-1.9328,-1.9328,-1.9328,-1.9456,-1.9724,-1.9839,-1.9979,-2.0281,-2.0407,-2.0513,0.0,-2.0681,-2.0828,-2.0895,-2.0895,0.0,-2.0975,-2.1109,-2.0962,-2.0975,-2.1109,0.0,-2.1109,0.0,0.0,0.0,-2.1109,-2.1109,-2.1109,-2.1109,-2.1109,-2.1109,-2.1109,-2.1109,-2.1109,-2.1109,-2.1109,-2.1109,-2.1235,-2.1853,-2.2577,-2.345,-2.5423,-2.6399,-2.7263,-2.8618,-2.8975,-2.8975,-2.8975,-2.8975,-2.8975,-2.8975,-2.7383,-2.5741,-2.4971,-2.3212,-2.1576,-2.0832,-2.0802,0.0,0.0,0.0,0.0,0.0,0.0,-2.1362,0.0,0.0,0.0,0.0,-2.248,0.0,0.0,0.0,-2.3106,-2.3106,0.0,-2.3179,0.0,0.0,0.0,-2.432,0.0,-2.5052,-2.5052,-2.5052,-2.5052,-2.5052,-2.5712,-2.6501,-2.7153,-2.8575,-3.0012,-3.1451,-3.2765,-3.3418,-3.3418,-3.3418,-3.3418,-3.3418,-3.3418,-3.3418,-3.3418,0.0,-1.9463,0.0,0.0,-1.9683,0.0,-1.9686,-1.9748,-1.9868,-1.969,-1.9628,-1.9628,-1.9628,-1.937,-1.9229,-1.9169,-1.9157,-1.9261,-1.9456,-1.9839,-2.0234,-2.0488,-2.0856,-2.1109,-2.1109,-2.1109,-2.1109,0.0,0.0,0.0,-2.1109,-2.1109,-2.1109,-2.1109,0.0,0.0,0.0,0.0,-2.1109,-2.1109,-2.1109,-2.1109,-2.1109,-2.1109,-2.1109,-2.1109,-2.1109,-2.1109,-2.1109,-2.1109,-2.1109,-2.1109,-2.1109,-2.1839,-2.2952,-2.4193,-2.5546,-2.69,-2.8241,-2.8737,-2.8975,-2.8975,-2.8975,-2.8975,-2.8975,-2.69,-2.5056,-2.5056,-2.2966,-2.1109,-2.1109,-2.1109,0.0,0.0,0.0,0.0,0.0,0.0,0.0,0.0,0.0,0.0,-2.1978,-2.2104,0.0,0.0,0.0,0.0,-2.3106,0.0,0.0,0.0,0.0,-2.4086,-2.4086,0.0,-2.5052,-2.5052,-2.5052,-2.5052,-2.5052,-2.5052,-2.5712,-2.6753,-2.702,-2.8706,-3.1451,-3.2492,-3.3165,-3.3418,-3.3418,-3.3418,-3.3418,-3.3418,-3.3418,-3.3418,0.0,0.0,0.0,0.0,0.0,0.0,-1.9845,-1.9869,-1.9869,-1.982,-1.9808,-1.9808,-1.9808,-1.9808,-1.9712,-1.9458,-1.9434,-1.9326,-1.9212,-1.9724,-2.0106,-2.0106,-2.0729,-2.1109,-2.1109,-2.1109,-2.1109,0.0,0.0,-2.1109,-2.1109,-2.1109,-2.1109,-2.1109,0.0,0.0,0.0,-2.1109,-2.1109,-2.1109,-2.1109,-2.1109,-2.1109,-2.1109,-2.1109,-2.1109,-2.1109,-2.1109,-2.1109,-2.1109,-2.1109,-2.1109,-2.1109,-2.1235,-2.1601,-2.2827,-2.4193,-2.5423,-2.6779,-2.8122,-2.8975,-2.8975,-2.8975,-2.8975,-2.8975,-2.69,-2.5056,-2.5056,-2.2966,-2.1109,-2.1109,-2.1109,-2.1109,0.0,0.0,0.0,0.0,0.0,-2.1109,-2.1109,0.0,0.0,-2.1614,-2.1853,0.0,0.0,-2.2606,0.0,0.0,0.0,0.0,-2.3106,-2.3735,-2.4086,-2.4086,-2.473,-2.5052,-2.5052,-2.5052,-2.5052,-2.5052,-2.5052,-2.5187,-2.5322,-2.662,-2.8706,-3.1322,-3.1451,-3.2237,-3.3418,-3.3418,-3.3418,-3.3418,-3.3418,-3.3418,-3.3418,0.0,0.0,0.0,0.0,0.0,0.0,0.0,-2.0255,-2.0352,-2.0352,-2.0086,-1.9881,-1.9881,-1.9881,-1.9845,-1.9724,-1.9724,-1.9603,-1.9326,-1.9844,-2.0027,-2.0119,-2.0615,-2.0856,-2.1109,-2.1109,-2.1109,0.0,0.0,0.0,0.0,-2.1109,-2.1109,-2.1109,0.0,-2.1109,-2.1109,-2.1109,-2.1109,-2.1109,-2.1109,-2.1109,-2.1109,-2.1109,-2.1109,-2.1109,-2.1109,-2.1109,-2.1109,-2.1109,-2.1109,-2.1109,-2.1109,-2.1109,-2.1348,-2.2702,-2.345,-2.4193,-2.5423,-2.6156,-2.6762,-2.7624,-2.7762,-2.8002,-2.8856,-2.7504,-2.5912,-2.5178,-2.2966,-2.1162,-2.1336,-2.1229,-2.1162,-2.1349,0.0,0.0,0.0,0.0,0.0,-2.1109,0.0,-2.1362,-2.1362,-2.1362,-2.174,0.0,0.0,0.0,0.0,0.0,0.0,-2.2856,0.0,-2.4086,-2.4086,-2.473,-2.5052,-2.5052,-2.5052,-2.5052,-2.5052,-2.5052,-2.5052,-2.5187,-2.6501,-2.78,-2.8969,-3.066,-3.1579,-3.2237,-3.3038,-3.3418,-3.3418,-3.3418,-3.3418,-3.3418,-2.0002,0.0,-2.0122,0.0,-2.0267,-2.0388,-2.0388,-2.0545,-2.0665,-2.0665,-2.0352,-2.0122,-2.0122,-2.0122,-2.0086,-2.0002,-2.0002,-1.9881,-1.9603,-1.9985,-2.0173,-2.0232,-2.04,0.0,-2.1115,-2.1022,-2.1022,-2.1243,-2.1243,0.0,0.0,0.0,0.0,0.0,-2.1363,-2.1323,-2.1243,-2.1243,-2.1189,-2.1109,-2.1109,-2.1109,-2.1109,-2.1109,-2.1109,-2.1109,-2.1109,-2.1109,-2.1109,-2.1109,-2.1109,-2.1109,-2.1109,-2.1109,-2.1235,-2.2215,-2.2827,-2.3325,-2.4193,-2.4687,-2.5178,-2.6156,-2.6762,-2.7263,-2.8241,-2.7383,-2.5912,-2.4193,-2.2341,-2.1176,-2.139,-2.1323,-2.1309,-2.1523,0.0,0.0,0.0,-2.1162,0.0,-2.1109,-2.1109,-2.1109,-2.1109,-2.1109,0.0,0.0,0.0,0.0,0.0,0.0,0.0,0.0,0.0,0.0,-2.3956,-2.473,-2.5052,-2.5052,-2.5052,-2.5052,-2.5052,-2.5052,-2.5052,-2.5187,-2.61,-2.6753,-2.727,-2.923,-3.0531,-3.1451,-3.2365,-3.3019,-3.3418,-3.3418,-3.3418,-3.3418,-2.0279,-2.0484,-2.0653,-2.0653,-2.0665,-2.0665,-2.0665,-2.0665,-2.0665,-2.0665,-2.0665,-2.0653,-2.0653,-2.0653,-2.0557,-2.0291,-2.0279,-2.0158,-1.9905,-2.0281,-2.0402,0.0,0.0,-2.0643,-2.1032,-2.0746,-2.0873,-2.155,0.0,0.0,-2.1977,0.0,-2.1977,-2.1977,-2.1977,-2.1817,-2.155,-2.155,-2.1376,-2.1109,-2.1109,-2.1109,-2.1109,-2.1109,-2.1109,-2.1109,-2.1109,-2.1109,-2.1109,-2.1109,-2.1109,-2.1109,-2.1109,-2.1109,-2.1109,-2.1109,-2.209,-2.3076,-2.3076,-2.407,-2.5056,-2.5056,-2.6034,-2.7021,-2.7021,-2.6034,-2.4317,-2.1727,-2.1109,-2.1109,-2.1109,-2.1349,-2.155,-2.155,0.0,0.0,0.0,-2.1296,0.0,-2.1109,-2.1109,-2.1109,-2.1109,-2.1109,0.0,0.0,0.0,0.0,0.0,0.0,0.0,-2.2104,-2.3107,0.0,-2.3565,-2.4596,-2.5052,-2.5052,-2.5052,-2.5052,-2.5052,-2.5052,-2.5052,-2.5052,-2.5052,-2.5846,-2.7153,-2.7153,-2.8838,-3.1322,-3.1322,-3.2237,-3.3418,-3.3418,-3.3418,-3.3418,-2.0545,-2.0605,-2.0665,-2.0665,-2.0665,-2.0665,-2.0665,-2.0665,-2.0665,-2.0665,-2.0665,-2.0665,-2.0665,-2.0665,-2.0641,0.0,-2.0545,-2.0436,0.0,-2.0282,-2.0331,-2.0414,-2.0634,-2.0818,-2.1219,-2.1322,-2.1456,-2.1739,0.0,0.0,0.0,-2.1991,-2.1991,-2.1991,-2.1991,-2.1937,-2.1844,-2.1844,-2.179,-2.171,-2.171,-2.1817,-2.2004,-2.2004,-2.2124,-2.2298,-2.2298,-2.2298,-2.2298,-2.2298,-2.2164,-2.1964,-2.1764,-2.143,-2.1109,-2.1109,-2.1348,-2.1727,-2.1727,-2.1964,-2.2591,-2.345,-2.4054,-2.4548,-2.5423,-2.4687,-2.345,-2.2577,-2.1727,-2.1176,-2.1376,-2.1323,-2.1376,-2.1777,-2.1683,0.0,-2.155,0.0,-2.1336,-2.1136,-2.1109,-2.1109,-2.1109,-2.1109,0.0,0.0,0.0,0.0,0.0,0.0,0.0,0.0,-2.2978,0.0,-2.3565,-2.4596,-2.5052,-2.5052,-2.5052,-2.5052,-2.5052,-2.5052,-2.5052,-2.5052,-2.5052,-2.5322,-2.5846,-2.6753,-2.7668,-2.8575,-3.0531,-3.1579,-3.211,-3.3019,-3.3418,-3.3418,-2.081,-2.0738,-2.0665,-2.0665,-2.0665,-2.0665,-2.0665,-2.0665,-2.0665,-2.0665,-2.0665,-2.0665,-2.0665,-2.0665,0.0,-2.0665,-2.0665,-2.0605,-2.0436,-2.0424,-2.0525,-2.06,-2.0798,-2.1009,-2.1396,-2.1471,0.0,-2.1932,-2.2186,-2.2421,-2.2659,-2.2539,-2.2485,-2.2485,-2.2485,-2.2418,-2.2325,-2.2445,-2.2418,-2.2311,-2.2311,-2.2418,-2.2579,-2.2579,-2.2699,-2.2859,-2.2859,-2.2859,-2.2859,-2.2859,-2.2739,-2.2552,-2.2378,-2.2058,-2.1683,-2.1243,-2.1109,-2.1109,-2.1109,-2.1109,-2.1362,-2.209,-2.2702,-2.3325,-2.407,-2.3698,-2.2952,-2.2466,-2.1727,-2.1162,-2.1349,-2.1323,-2.143,-2.1911,-2.183,-2.175,-2.1857,-2.1697,-2.1483,-2.1296,-2.1176,-2.1109,-2.1109,-2.1109,-2.1235,0.0,0.0,0.0,0.0,0.0,-2.1614,-2.1362,-2.2577,-2.3304,-2.3434,-2.4329,-2.4916,-2.5052,-2.5052,-2.5052,-2.5052,-2.5052,-2.5052,-2.5052,-2.5052,-2.5052,-2.5187,-2.5965,-2.6635,-2.7286,-2.9622,-3.0789,-3.1451,-3.2892,-3.3418,-3.3418,-2.1088,-2.0895,-2.0726,0.0,-2.0726,-2.0714,-2.0702,-2.069,-2.069,-2.0665,-2.0665,-2.0665,-2.0665,-2.0665,-2.0665,-2.0665,0.0,0.0,-2.069,-2.0714,-2.0834,-2.1076,-2.0871,-2.1011,-2.1549,-2.1455,-2.1583,-2.2115,-2.2924,-2.334,-2.3768,-2.3487,-2.3354,-2.3354,-2.3354,-2.3193,-2.2939,-2.3233,-2.3193,-2.2926,-2.2926,-2.2939,-2.2953,-2.2953,-2.2966,-2.2979,-2.2979,-2.2979,-2.2979,-2.2979,-2.2966,-2.2953,-2.2926,-2.2913,-2.2672,-2.151,-2.1176,-2.1162,-2.1122,-2.1109,-2.1109,-2.1109,-2.209,-2.2952,-2.2952,-2.2952,-2.2577,-2.1348,-2.1109,-2.1109,-2.1109,-2.1336,-2.1617,-2.1911,-2.1977,-2.2084,-2.2352,-2.1937,-2.1603,-2.159,0.0,0.0,-2.1136,-2.1122,-2.1109,0.0,0.0,0.0,0.0,0.0,-2.1122,-2.1136,-2.2073,-2.2649,-2.307,-2.4061,-2.4645,-2.5052,-2.5052,-2.5052,-2.5052,-2.5052,-2.5052,-2.5052,-2.5052,-2.5052,-2.5052,-2.5052,-2.5846,-2.7153,-2.846,-2.99,-3.1322,-3.2765,-3.3292,-3.3418,0.0,0.0,-2.1293,-2.1293,-2.1293,-2.1209,-2.1003,-2.0967,-2.0895,-2.069,-2.0665,-2.0665,-2.0665,-2.0665,-2.0665,-2.0665,-2.0847,-2.0967,-2.0967,-2.1172,-2.1317,-2.1378,-2.151,-2.1619,-2.1825,-2.1959,-2.2251,-2.2828,-2.3119,-2.334,-2.3768,-2.3701,-2.3661,-2.3661,-2.3661,-2.3621,-2.3554,-2.3634,-2.3621,-2.3554,-2.3554,-2.3688,-2.3888,-2.3888,-2.4022,-2.4222,-2.4222,-2.4222,-2.4222,-2.4222,-2.4062,-2.3848,-2.3621,-2.3407,-2.3033,-2.2058,-2.1777,-2.1683,-2.1229,-2.1109,-2.1109,-2.1109,-2.1348,-2.1601,-2.1601,-2.1601,-2.1475,-2.1109,-2.1109,-2.1109,-2.1109,-2.1162,-2.1309,-2.1603,-2.1844,-2.2004,-2.2084,-2.2164,-2.2124,0.0,-2.163,-2.1443,-2.1443,-2.1243,-2.1109,0.0,0.0,-2.1109,-2.1109,-2.1109,-2.1216,-2.1443,-2.2182,-2.2745,-2.3378,-2.4175,-2.4645,-2.5052,-2.5052,-2.5052,-2.5052,-2.5052,-2.5052,-2.5052,-2.5052,-2.5052,-2.5052,-2.5052,-2.5322,-2.5712,-2.702,-2.846,-2.99,-3.1322,-3.2492,-3.3418,-2.1655,-2.1559,-2.1474,-2.1474,-2.1474,-2.1426,-2.1281,-2.1245,-2.1197,-2.1052,-2.0931,-2.0847,-2.0847,-2.0738,-2.0665,-2.0665,-2.0907,-2.1064,-2.1064,-2.1329,-2.1535,-2.1655,-2.18,-2.1921,-2.2042,-2.2186,-2.2484,-2.2928,-2.3216,-2.343,-2.3865,-2.3891,-2.3968,-2.3968,-2.3968,-2.3968,-2.3981,-2.4115,-2.4168,-2.4168,-2.4168,-2.4262,-2.4396,-2.4396,-2.4502,-2.4636,-2.4636,-2.4636,-2.4636,-2.4636,-2.4529,-2.4369,-2.4209,-2.4062,-2.3781,-2.302,-2.2512,-2.2084,-2.163,-2.1416,-2.1283,-2.1149,-2.1109,-2.1109,-2.1109,-2.1109,-2.1109,-2.1109,-2.1109,-2.1109,-2.1109,-2.1109,-2.1203,-2.151,-2.1804,-2.2031,-2.2164,-2.2311,-2.2365,-2.2205,-2.1924,-2.175,-2.175,-2.1483,-2.1309,-2.1309,-2.1189,0.0,-2.1109,-2.1109,-2.1243,-2.1537,-2.2092,-2.2654,-2.349,-2.4338,-2.4916,-2.5052,-2.5052,-2.5052,-2.5052,-2.5052,-2.5052,-2.5052,-2.5052,-2.5052,-2.5052,-2.5052,-2.5052,-2.5187,-2.6635,-2.7932,-2.9378,-3.0789,-3.2237,-3.3418,-2.1933,-2.1752,-2.1595,-2.1595,-2.1595,-2.1583,-2.1547,-2.1535,-2.1523,-2.1486,-2.1269,-2.1124,-2.1124,-2.0931,-2.0774,-2.0726,-2.0967,-2.1124,-2.1124,-2.1378,-2.1655,-2.1921,-2.1933,-2.2029,-2.2259,-2.2259,-2.2558,-2.2856,-2.3302,-2.3587,-2.4031,-2.4236,-2.4262,-2.4262,-2.4262,-2.4262,-2.4289,-2.4529,-2.4636,-2.4636,-2.4636,-2.4636,-2.4636,-2.4636,-2.4636,-2.4636,-2.4636,-2.4636,-2.4636,-2.4636,-2.4636,-2.4636,-2.4636,-2.4636,-2.4543,-2.4048,-2.3327,-2.2592,-2.2164,-2.1804,-2.1496,-2.1243,-2.1149,-2.1109,-2.1109,-2.1109,-2.1109,-2.1109,-2.1109,-2.1109,-2.1109,-2.1109,-2.1189,-2.1443,-2.1764,-2.2071,-2.2311,0.0,-2.2485,-2.2485,-2.2231,-2.2044,-2.2044,-2.179,-2.1617,-2.1617,-2.139,-2.1229,-2.1176,-2.1176,-2.1309,-2.1617,-2.1857,-2.2549,-2.356,-2.4501,-2.5052,-2.5052,-2.5052,-2.5052,-2.5052,-2.5052,-2.5052,-2.5052,-2.5052,-2.5052,-2.5052,-2.5052,-2.5052,-2.5187,-2.6368,-2.7668,-2.8986,-3.0401,-3.1854,-3.3165,-2.2198,-2.2162,-2.2138,-2.2138,-2.2138,-2.2066,-2.1848,-2.1812,-2.1728,-2.151,-2.1438,-2.1414,-2.1414,-2.1378,-2.1257,-2.1016,-2.1257,-2.1414,-2.1414,-2.1667,-2.1921,-2.2186,-2.2198,-2.2223,-2.2259,-2.2259,-2.2558,-2.2856,-2.3302,-2.3587,-2.4031,-2.4435,-2.4569,-2.4569,-2.4569,-2.4569,-2.4569,-2.4623,-2.4636,-2.4636,-2.4636,-2.4636,-2.4636,-2.4636,-2.4636,-2.4636,-2.4636,-2.4636,-2.4636,-2.4636,-2.4636,-2.4636,-2.4636,-2.4636,-2.4623,-2.4529,-2.4222,-2.3701,-2.2632,-2.1964,-2.1537,-2.1496,-2.1296,-2.1109,-2.1109,-2.1109,-2.1109,-2.1109,-2.1109,-2.1109,-2.1109,-2.1109,-2.1122,-2.1176,-2.163,-2.2004,-2.2044,0.0,-2.2792,-2.2792,-2.2525,-2.2352,-2.2352,-2.2084,-2.1924,-2.1924,-2.1871,-2.1737,-2.1496,-2.1483,-2.1617,-2.1911,-2.1964,-2.2644,-2.3882,-2.4345,-2.4781,-2.5052,-2.5052,-2.5052,-2.5052,-2.5052,-2.5052,-2.5052,-2.5052,-2.5052,-2.5052,-2.5052,-2.5052,-2.5052,-2.5322,-2.6234,-2.7535,-2.8986,-3.0419,-3.1835,-2.2259,-2.2259,-2.2259,-2.2259,-2.2259,-2.2223,-2.2102,-2.2078,-2.2042,-2.1921,-2.1776,-2.1691,-2.1691,-2.1559,-2.1426,-2.1293,-2.1402,-2.1474,-2.1474,-2.1728,-2.1993,-2.2247,-2.2259,-2.2259,-2.2259,-2.2259,-2.2408,-2.2558,-2.3005,-2.3302,-2.3735,-2.4044,-2.4341,-2.4636,-2.4636,-2.4636,-2.4636,-2.4636,-2.4636,-2.4636,-2.4636,-2.4636,-2.4636,-2.4636,-2.4636,-2.4636,-2.4636,-2.4636,-2.4636,-2.4636,-2.4636,-2.4636,-2.4636,-2.4636,-2.4636,-2.4636,-2.4315,-2.3781,-2.2899,-2.2352,-2.1977,-2.1817,-2.1563,-2.1349,-2.1349,-2.1229,-2.1109,-2.1109,-2.1109,-2.1109,-2.1109,-2.1109,-2.1109,-2.1109,-2.1603,-2.1991,-2.1991,-2.2498,-2.2859,-2.2859,-2.2739,-2.2659,-2.2659,-2.2392,-2.2218,-2.2218,-2.2071,-2.1857,-2.1563,-2.155,-2.1617,-2.175,-2.2471,-2.3133,-2.3952,-2.436,-2.4645,-2.5052,-2.5052,-2.5052,-2.5052,-2.5052,-2.5052,-2.5052,-2.5052,-2.5052,-2.5052,-2.5052,-2.5052,-2.5052,-2.5052,-2.5981,-2.7286,-2.8723,-3.016,-3.1451,-2.2259,-2.2259,-2.2259,-2.2259,-2.2259,-2.2259,-2.2259,-2.2259,-2.2259,-2.2259,-2.209,-2.1957,-2.1957,-2.1788,-2.1631,-2.1583,-2.1571,-2.1571,-2.1571,-2.1764,-2.1957,-2.2162,-2.2235,-2.2259,-2.2259,-2.2259,-2.2259,-2.2259,-2.2707,-2.3005,-2.329,-2.3748,-2.4044,-2.4488,-2.4488,-2.4488,-2.4636,-2.4636,-2.4636,-2.4636,-2.4636,-2.4636,-2.4636,-2.4636,-2.4636,-2.4636,-2.4636,-2.4636,-2.4636,-2.4636,-2.4636,-2.4636,-2.4636,-2.4636,-2.4636,-2.4636,-2.4329,-2.3848,-2.3233,-2.2806,-2.2458,-2.2164,-2.1871,-2.1657,-2.1657,-2.143,-2.1216,-2.1216,-2.1162,-2.1109,-2.1109,-2.1109,-2.1109,-2.1109,0.0,-2.1991,-2.1991,-2.2498,-2.2859,-2.2859,-2.2859,-2.2859,-2.2859,-2.2659,-2.2525,-2.2525,-2.2311,-2.2031,-2.167,-2.1657,-2.1657,-2.1657,-2.2633,-2.3433,-2.3854,-2.4196,-2.4645,-2.5052,-2.5052,-2.5052,-2.5052,-2.5052,-2.5052,-2.5052,-2.5052,-2.5052,-2.5052,-2.5052,-2.5052,-2.5052,-2.5052,-2.5712,-2.6753,-2.8196,-2.9639,-3.1065,-2.2259,-2.2259,-2.2259,-2.2259,-2.2259,-2.2259,-2.2259,-2.2259,-2.2259,-2.2259,-2.2247,-2.2235,-2.2235,-2.2211,-2.2102,-2.186,-2.1836,-2.1836,-2.1836,-2.186,-2.1885,-2.1897,-2.2126,-2.2259,-2.2259,-2.2259,-2.2259,-2.2259,-2.2707,-2.2856,-2.3005,-2.3302,-2.3587,-2.4044,-2.4044,-2.4193,-2.4636,-2.4636,-2.4636,-2.4636,-2.4636,-2.4636,-2.4636,-2.4636,-2.4636,-2.4636,-2.4636,-2.4636,-2.4636,-2.4636,-2.4636,-2.4636,-2.4636,-2.4636,-2.4636,-2.4636,-2.4609,-2.4449,-2.3861,-2.3273,-2.2752,-2.2458,-2.2164,-2.1951,-2.1951,-2.1724,-2.1523,-2.1523,-2.1296,-2.1109,-2.1109,-2.1109,-2.1109,-2.1109,0.0,0.0,-2.1991,-2.2498,-2.2859,-2.2859,-2.2859,-2.2859,-2.2859,-2.2846,-2.2832,-2.2832,-2.2806,-2.2552,-2.1977,-2.1951,-2.1951,-2.1951,-2.2271,-2.2848,-2.3532,-2.3812,-2.4374,-2.5052,-2.5052,-2.5052,-2.5052,-2.5052,-2.5052,-2.5052,-2.5052,-2.5052,-2.5052,-2.5052,-2.5052,-2.5052,-2.5052,-2.5187,-2.5457,-2.6753,-2.8196,-2.9509,-2.2259,-2.2259,-2.2259,-2.2259,-2.2259,-2.2259,-2.2259,-2.2259,-2.2259,-2.2259,-2.2259,-2.2259,-2.2259,-2.2259,-2.2223,-2.2126,-2.2114,-2.2042,-2.1885,-2.2029,-2.2114,-2.2114,-2.2211,-2.2259,-2.2259,-2.2259,-2.2259,-2.2259,-2.2408,-2.2707,-2.2856,-2.3005,-2.3451,-2.4044,-2.4044,-2.4193,-2.4636,-2.4636,-2.4636,-2.4636,-2.4636,-2.4636,-2.4636,-2.4636,-2.4636,-2.4636,-2.4636,-2.4636,-2.4636,-2.4636,-2.4636,-2.4636,-2.4636,-2.4636,-2.4636,-2.4636,-2.4636,-2.4556,-2.4155,-2.3741,-2.3354,-2.306,-2.2619,-2.2258,-2.2258,-2.2031,-2.1817,-2.1817,-2.159,-2.139,-2.139,-2.1229,-2.1109,-2.1109,0.0,-2.1991,-2.1991,-2.2498,-2.2859,-2.2859,-2.2859,-2.2859,-2.2859,-2.2859,-2.2859,-2.2859,-2.2859,-2.2605,-2.2017,-2.1817,-2.1724,-2.1724,-2.2443,-2.3051,-2.3784,-2.3896,-2.4374,-2.5052,-2.5052,-2.5052,-2.5052,-2.5052,-2.5052,-2.5052,-2.5052,-2.5052,-2.5052,-2.5052,-2.5052,-2.5052,-2.5052,-2.5052,-2.5322,-2.6635,-2.7932,-2.9378,-2.2259,-2.2259,-2.2259,-2.2259,-2.2259,-2.2259,-2.2259,-2.2259,-2.2259,-2.2259,-2.2259,-2.2259,-2.2259,-2.2259,-2.2259,-2.2259,-2.2259,-2.2186,-2.2005,-2.2162,-2.2259,-2.2259,-2.2259,-2.2259,-2.2259,-2.2259,-2.2259,-2.2259,-2.2259,-2.2408,-2.2707,-2.2707,-2.3154,-2.3735,-2.3748,-2.4044,-2.4636,-2.4488,-2.4488,-2.4636,-2.4636,-2.4636,-2.4636,-2.4636,-2.4636,-2.4636,-2.4636,-2.4636,-2.4636,-2.4636,-2.4636,-2.4636,-2.4636,-2.4636,-2.4636,-2.4636,-2.4636,-2.4596,-2.4396,-2.4128,-2.3808,-2.342,-2.2939,-2.2565,-2.2565,-2.2325,-2.2124,-2.2124,-2.1897,-2.1697,-2.1697,-2.1523,-2.1376,-2.1376,-2.1804,-2.2124,-2.2124,-2.2552,-2.2859,-2.2859,-2.2859,-2.2859,-2.2859,-2.2859,-2.2859,-2.2859,-2.2859,-2.2645,-2.2151,-2.1844,-2.1854,-2.2078,-2.2617,-2.3375,-2.4088,-2.4102,-2.451,-2.5052,-2.5052,-2.5052,-2.5052,-2.5052,-2.5052,-2.5052,-2.5052,-2.5052,-2.5052,-2.5052,-2.5052,-2.5052,-2.5052,-2.5052,-2.5187,-2.61,-2.7419,-2.8723,-2.2259,-2.2259,-2.2259,-2.2259,-2.2259,-2.2259,-2.2259,-2.2259,-2.2259,-2.2259,-2.2259,-2.2259,-2.2259,-2.2259,-2.2259,-2.2259,-2.2259,-2.2259,-2.2259,-2.2259,-2.2259,-2.2259,-2.2259,-2.2259,-2.2259,-2.2259,-2.2259,-2.2259,-2.2259,-2.2259,-2.2259,-2.2259,-2.2707,-2.3438,-2.3005,-2.36,-2.4636,-2.4193,-2.4193,-2.4636,-2.4636,-2.4636,-2.4636,-2.4636,-2.4636,-2.4636,-2.4636,-2.4636,-2.4636,-2.4636,-2.4636,-2.4636,-2.4636,-2.4636,-2.4636,-2.4636,-2.4636,-2.4636,-2.4636,-2.4422,-2.4062,-2.3474,-2.31,-2.2859,-2.2859,-2.2632,-2.2418,-2.2418,-2.2191,-2.1991,-2.1991,-2.1991,-2.1991,-2.1991,-2.2231,-2.2418,-2.2418,-2.2672,-2.2859,-2.2859,-2.2859,-2.2859,-2.2859,-2.2859,-2.2859,-2.2859,-2.2859,-2.2726,-2.2432,-2.2151,-2.2257,-2.2955,-2.2969,-2.3509,-2.4495,-2.4495,-2.4645,-2.5052,-2.5052,-2.5052,-2.5052,-2.5052,-2.5052,-2.5052,-2.5052,-2.5052,-2.5052,-2.5052,-2.5052,-2.5052,-2.5052,-2.5052,-2.5052,-2.5052,-2.5981,-2.7286,-2.2259,-2.2259,-2.2259,-2.2259,-2.2259,-2.2259,-2.2259,-2.2259,-2.2259,-2.2259,-2.2259,-2.2259,-2.2259,-2.2259,-2.2259,-2.2259,-2.2259,-2.2259,-2.2259,-2.2259,-2.2259,-2.2259,-2.2259,-2.2259,-2.2259,-2.2259,-2.2259,-2.2259,-2.2259,-2.2259,-2.2259,-2.2259,-2.2558,-2.3005,-2.3005,-2.3451,-2.4193,-2.4044,-2.4193,-2.4636,-2.4636,-2.4636,-2.4636,-2.4636,-2.4636,-2.4636,-2.4636,-2.4636,-2.4636,-2.4636,-2.4636,-2.4636,-2.4636,-2.4636,-2.4636,-2.4636,-2.4636,-2.4636,-2.4636,-2.4422,-2.4115,-2.3728,-2.3407,-2.3126,-2.2913,-2.2792,-2.2726,-2.2726,-2.2498,-2.2285,-2.2285,-2.2124,-2.1991,-2.1991,-2.2231,-2.2418,-2.2418,-2.2672,-2.2859,-2.2859,-2.2859,-2.2859,-2.2859,-2.2859,-2.2859,-2.2859,-2.2672,-2.2512,-2.2418,-2.2338,-2.2459,-2.2955,-2.3444,-2.4003,-2.4495,-2.4495,-2.4645,-2.5052,-2.5052,-2.5052,-2.5052,-2.5052,-2.5052,-2.5052,-2.5052,-2.5052,-2.5052,-2.5052,-2.5052,-2.5052,-2.5052,-2.5052,-2.5052,-2.5052,-2.5981,-2.7286,-2.2259,-2.2259,-2.2259,-2.2259,-2.2259,-2.2259,-2.2259,-2.2259,-2.2259,-2.2259,-2.2259,-2.2259,-2.2259,-2.2259,-2.2259,-2.2259,-2.2259,-2.2259,-2.2259,-2.2259,-2.2259,-2.2259,-2.2259,-2.2259,-2.2259,-2.2259,-2.2259,-2.2259,-2.2259,-2.2259,-2.2259,-2.2259,-2.2558,-2.2856,-2.2707,-2.3154,-2.4044,-2.3896,-2.4044,-2.4636,-2.4636,-2.4636,-2.4636,-2.4636,-2.4636,-2.4636,-2.4636,-2.4636,-2.4636,-2.4636,-2.4636,-2.4636,-2.4636,-2.4636,-2.4636,-2.4636,-2.4636,-2.4636,-2.4636,-2.4502,-2.4302,-2.4022,-2.3634,-2.3247,-2.2939,-2.2859,-2.2859,-2.2859,-2.2712,-2.2592,-2.2592,-2.2458,-2.2338,-2.2338,-2.2485,-2.2592,-2.2592,-2.2752,-2.2859,-2.2859,-2.2859,-2.2859,-2.2859,-2.2859,-2.2859,-2.2859,-2.2699,-2.2592,-2.2592,-2.2727,-2.2998,-2.3416,-2.3868,-2.4374,-2.4781,-2.4781,-2.4916,-2.5052,-2.5052,-2.5052,-2.5052,-2.5052,-2.5052,-2.5052,-2.5052,-2.5052,-2.5052,-2.5052,-2.5052,-2.5052,-2.5052,-2.5052,-2.5052,-2.5052,-2.5577,-2.6501,-2.2259,-2.2259,-2.2259,-2.2259,-2.2259,-2.2259,-2.2259,-2.2259,-2.2259,-2.2259,-2.2259,-2.2259,-2.2259,-2.2259,-2.2259,-2.2259,-2.2259,-2.2259,-2.2259,-2.2259,-2.2259,-2.2259,-2.2259,-2.2259,-2.2259,-2.2259,-2.2259,-2.2259,-2.2259,-2.2259,-2.2259,-2.2259,-2.2558,-2.2856,-2.2408,-2.2856,-2.3896,-2.36,-2.3896,-2.4636,-2.4636,-2.4636,-2.4636,-2.4636,-2.4636,-2.4636,-2.4636,-2.4636,-2.4636,-2.4636,-2.4636,-2.4636,-2.4636,-2.4636,-2.4636,-2.4636,-2.4636,-2.4636,-2.4636,-2.4636,-2.4569,-2.4275,-2.3781,-2.3287,-2.2979,-2.2886,-2.2859,-2.2859,-2.2859,-2.2859,-2.2859,-2.2859,-2.2859,-2.2859,-2.2859,-2.2859,-2.2859,-2.2859,-2.2859,-2.2859,-2.2859,-2.2859,-2.2859,-2.2859,-2.2859,-2.2859,-2.2859,-2.2859,-2.2859,-2.327,-2.3543,-2.3952,-2.436,-2.4645,-2.5052,-2.5052,-2.5052,-2.5052,-2.5052,-2.5052,-2.5052,-2.5052,-2.5052,-2.5052,-2.5052,-2.5052,-2.5052,-2.5052,-2.5052,-2.5052,-2.5052,-2.5052,-2.5052,-2.5052,-2.5052,-2.5322,-2.2259,-2.2259,-2.2259,-2.2259,-2.2259,-2.2259,-2.2259,-2.2259,-2.2259,-2.2259,-2.2259,-2.2259,-2.2259,-2.2259,-2.2259,-2.2259,-2.2259,-2.2259,-2.2259,-2.2259,-2.2259,-2.2259,-2.2259,-2.2259,-2.2259,-2.2259,-2.2259,-2.2259,-2.2259,-2.2259,-2.2259,-2.2259,-2.2408,-2.2408,-2.2408,-2.2707,-2.3587,-2.3438,-2.3896,-2.4636,-2.4636,-2.4636,-2.4636,-2.4636,-2.4636,-2.4636,-2.4636,-2.4636,-2.4636,-2.4636,-2.4636,-2.4636,-2.4636,-2.4636,-2.4636,-2.4636,-2.4636,-2.4636,-2.4636,-2.4636,-2.4569,-2.4275,-2.3941,-2.3594,-2.33,-2.3033,-2.2859,-2.2859,-2.2859,-2.2859,-2.2859,-2.2859,-2.2859,-2.2859,-2.2859,-2.2859,-2.2859,-2.2859,-2.2859,-2.2859,-2.2859,-2.2859,-2.2859,-2.2859,-2.2859,-2.2859,-2.2859,-2.2859,-2.2859,-2.327,-2.3543,-2.3952,-2.436,-2.4645,-2.5052,-2.5052,-2.5052,-2.5052,-2.5052,-2.5052,-2.5052,-2.5052,-2.5052,-2.5052,-2.5052,-2.5052,-2.5052,-2.5052,-2.5052,-2.5052,-2.5052,-2.5052,-2.5052,-2.5052,-2.5052,-2.5457,-2.2259,-2.2259,-2.2259,-2.2259,-2.2259,-2.2259,-2.2259,-2.2259,-2.2259,-2.2259,-2.2259,-2.2259,-2.2259,-2.2259,-2.196,-2.1187,-2.0425,-1.9973,-1.9973,-1.9973,-2.0274,-2.1037,-2.1037,-2.1499,-2.2259,-2.2259,-2.2259,-2.2259,-2.2259,-2.2259,-2.2259,-2.2259,-2.2259,-2.2259,-2.2259,-2.2558,-2.3154,-2.3302,-2.3735,-2.4341,-2.4488,-2.4636,-2.4636,-2.4636,-2.4636,-2.4636,-2.4636,-2.4636,-2.4636,-2.4636,-2.4636,-2.4636,-2.4636,-2.4636,-2.4636,-2.4636,-2.4636,-2.4636,-2.4636,-2.4636,-2.4596,-2.4449,-2.4088,-2.3688,-2.3394,-2.3086,-2.2859,-2.2859,-2.2859,-2.2859,-2.2859,-2.2859,-2.2859,-2.2859,-2.2859,-2.2859,-2.2859,-2.2859,-2.2859,-2.2859,-2.2859,-2.2859,-2.2859,-2.2859,-2.2859,-2.2859,-2.2859,-2.2996,-2.3133,-2.3543,-2.3816,-2.4224,-2.4645,-2.4916,-2.5052,-2.5052,-2.5052,-2.5052,-2.5052,-2.5052,-2.5052,-2.5052,-2.5052,-2.5052,-2.5052,-2.5052,-2.5052,-2.5052,-2.5052,-2.5052,-2.5052,-2.5052,-2.5052,-2.5052,-2.5052,-2.5457,-2.2259,-2.2259,-2.2259,-2.2259,-2.2259,-2.2259,-2.2259,-2.2259,-2.2259,-2.2259,-2.2259,-2.2259,-2.1948,-2.1648,-2.0887,-1.951,-1.8138,-1.7379,-1.7379,-1.7379,-1.7986,-1.9359,-1.9661,-2.0425,-2.1798,-2.2109,-2.2259,-2.2259,-2.2259,-2.2259,-2.2259,-2.2259,-2.2259,-2.2259,-2.2259,-2.2558,-2.2856,-2.3302,-2.3587,-2.4044,-2.4488,-2.4636,-2.4636,-2.4636,-2.4636,-2.4636,-2.4636,-2.4488,-2.4179,-2.3883,-2.3735,-2.3735,-2.3735,-2.4031,-2.4179,-2.4179,-2.4341,-2.4636,-2.4636,-2.4636,-2.4636,-2.4636,-2.4195,-2.3714,-2.346,-2.3126,-2.2859,-2.2859,-2.2859,-2.2859,-2.2859,-2.2859,-2.2859,-2.2859,-2.2859,-2.2859,-2.2859,-2.2859,-2.2859,-2.2859,-2.2859,-2.2859,-2.2859,-2.2859,-2.2859,-2.2859,-2.2859,-2.2996,-2.3406,-2.3816,-2.4088,-2.4495,-2.4916,-2.5052,-2.5052,-2.5052,-2.5052,-2.5052,-2.5052,-2.5052,-2.5052,-2.5052,-2.5052,-2.5052,-2.5052,-2.5052,-2.5052,-2.5052,-2.5052,-2.5052,-2.5052,-2.5052,-2.5052,-2.5052,-2.5052,-2.5457,-2.2259,-2.2259,-2.2259,-2.2259,-2.2259,-2.2259,-2.2259,-2.2259,-2.2259,-2.2259,-2.2259,-2.1798,-2.0274,-1.8905,-1.7986,-1.7683,-1.7531,-1.7379,-1.7379,-1.7379,-1.7531,-1.7683,-1.9057,-1.9962,-2.0124,-2.1499,-2.2259,-2.2259,-2.2259,-2.2259,-2.2259,-2.2259,-2.2259,-2.2259,-2.2259,-2.2558,-2.2856,-2.3302,-2.3587,-2.4044,-2.4488,-2.4636,-2.4636,-2.4636,-2.4636,-2.4636,-2.4636,-2.3735,-2.2372,-2.0864,-2.0414,-2.0414,-2.0414,-2.1464,-2.2521,-2.2521,-2.3574,-2.4636,-2.4636,-2.4636,-2.4636,-2.4636,-2.4195,-2.3754,-2.3714,-2.3273,-2.2859,-2.2859,-2.2859,-2.2859,-2.2859,-2.2859,-2.2859,-2.2859,-2.2859,-2.2859,-2.2859,-2.2859,-2.2859,-2.2859,-2.2859,-2.2859,-2.2859,-2.2859,-2.2859,-2.2859,-2.2859,-2.2996,-2.3406,-2.3816,-2.4088,-2.4495,-2.4916,-2.5052,-2.5052,-2.5052,-2.5052,-2.5052,-2.5052,-2.5052,-2.5052,-2.5052,-2.5052,-2.5052,-2.5052,-2.5052,-2.5052,-2.5052,-2.5052,-2.5052,-2.5052,-2.5052,-2.5052,-2.5052,-2.5052,-2.5322,-2.2295,-2.2259,-2.2259,-2.2259,-2.2259,-2.2259,-2.2259,-2.2259,-2.2259,-2.2259,-2.2259,-2.1648,-1.9962,-1.7531,-1.6007,-1.6007,-1.525,-1.4637,-1.4637,-1.4637,-1.5097,-1.6007,-1.6617,-1.7986,-1.9811,-2.0575,-2.1337,-2.2259,-2.2259,-2.2259,-2.2259,-2.2259,-2.2259,-2.2259,-2.2259,-2.2408,-2.2558,-2.3154,-2.3451,-2.3735,-2.4341,-2.4031,-2.3426,-2.4327,-2.3426,-2.1924,-2.1924,-2.1475,-2.0714,-2.0113,-1.9811,-1.9811,-1.9811,-2.0263,-2.1014,-2.1924,-2.267,-2.3426,-2.4341,-2.4636,-2.4636,-2.4636,-2.4195,-2.3768,-2.3768,-2.33,-2.2859,-2.2859,-2.2859,-2.2859,-2.2859,-2.2859,-2.2859,-2.2859,-2.2859,-2.2859,-2.2859,-2.2859,-2.2859,-2.2859,-2.2859,-2.2859,-2.2859,-2.2859,-2.2859,-2.2859,-2.3133,-2.3406,-2.3679,-2.4088,-2.451,-2.4781,-2.5052,-2.5052,-2.5052,-2.5052,-2.5052,-2.5052,-2.5052,-2.5052,-2.5052,-2.5052,-2.5052,-2.5052,-2.5052,-2.5052,-2.5052,-2.5052,-2.5052,-2.5052,-2.5052,-2.5052,-2.5052,-2.5052,-2.5052,-2.5322]}]]